<?xml version="1.0" encoding="UTF-8" standalone="no" ?>
<gpx xmlns="http://www.topografix.com/GPX/1/1" xmlns:xsi="http://www.w3.org/2001/XMLSchema-instance" xsi:schemaLocation="http://www.topografix.com/GPX/1/1 http://www.topografix.com/GPX/1/1/gpx.xsd" version="1.1" creator="VisuGPX - https://www.visugpx.com">
  <metadata>
    <name>Road trip fait P/E</name>
  </metadata>
  <trk>
    <name><![CDATA[Road trip fait P/E_11]]></name>
    <extensions>
      <line xmlns="http://www.topografix.com/GPX/gpx_style/0/2">
        <color>00FFFF</color>
        <width>4</width>
      </line>
    </extensions>
    <trkseg>
      <trkpt lat="37.18823" lon="-2.88649">
        <ele>1001.495</ele>
        <time>2021-07-17T17:52:39Z</time>
      </trkpt>
      <trkpt lat="37.18823" lon="-2.88649">
        <ele>1001.495</ele>
        <time>2021-07-17T17:52:39Z</time>
      </trkpt>
      <trkpt lat="37.16706" lon="-2.8209">
        <ele>873.2246</ele>
        <time>2021-07-18T07:39:12Z</time>
      </trkpt>
      <trkpt lat="37.16705" lon="-2.82092">
        <ele>873.0781</ele>
        <time>2021-07-18T07:40:12Z</time>
      </trkpt>
      <trkpt lat="37.16703" lon="-2.82085">
        <ele>873.0993</ele>
        <time>2021-07-18T07:40:57Z</time>
      </trkpt>
      <trkpt lat="37.16715" lon="-2.82073">
        <ele>871.9625</ele>
        <time>2021-07-18T07:41:08Z</time>
      </trkpt>
      <trkpt lat="37.16719" lon="-2.82075">
        <ele>872.7253</ele>
        <time>2021-07-18T07:41:24Z</time>
      </trkpt>
      <trkpt lat="37.1676" lon="-2.82198">
        <ele>872.3228</ele>
        <time>2021-07-18T07:41:35Z</time>
      </trkpt>
      <trkpt lat="37.16798" lon="-2.823">
        <ele>873.6063</ele>
        <time>2021-07-18T07:41:46Z</time>
      </trkpt>
      <trkpt lat="37.16817" lon="-2.8243">
        <ele>873.8708</ele>
        <time>2021-07-18T07:41:57Z</time>
      </trkpt>
      <trkpt lat="37.16823" lon="-2.82545">
        <ele>879.1067</ele>
        <time>2021-07-18T07:42:08Z</time>
      </trkpt>
      <trkpt lat="37.16819" lon="-2.82584">
        <ele>888.4252</ele>
        <time>2021-07-18T07:42:19Z</time>
      </trkpt>
      <trkpt lat="37.16777" lon="-2.82633">
        <ele>893.6377</ele>
        <time>2021-07-18T07:42:30Z</time>
      </trkpt>
      <trkpt lat="37.16726" lon="-2.82776">
        <ele>887.0911</ele>
        <time>2021-07-18T07:42:41Z</time>
      </trkpt>
      <trkpt lat="37.1667" lon="-2.82902">
        <ele>884.6894</ele>
        <time>2021-07-18T07:42:52Z</time>
      </trkpt>
      <trkpt lat="37.16654" lon="-2.83038">
        <ele>883.2597</ele>
        <time>2021-07-18T07:43:03Z</time>
      </trkpt>
      <trkpt lat="37.16613" lon="-2.83081">
        <ele>894.1142</ele>
        <time>2021-07-18T07:43:14Z</time>
      </trkpt>
      <trkpt lat="37.16547" lon="-2.83132">
        <ele>911.4559</ele>
        <time>2021-07-18T07:43:25Z</time>
      </trkpt>
      <trkpt lat="37.16475" lon="-2.83188">
        <ele>917.8975</ele>
        <time>2021-07-18T07:43:36Z</time>
      </trkpt>
      <trkpt lat="37.16381" lon="-2.83232">
        <ele>917.3049</ele>
        <time>2021-07-18T07:43:47Z</time>
      </trkpt>
      <trkpt lat="37.16319" lon="-2.83317">
        <ele>914.9341</ele>
        <time>2021-07-18T07:43:58Z</time>
      </trkpt>
      <trkpt lat="37.16206" lon="-2.83389">
        <ele>913.5339</ele>
        <time>2021-07-18T07:44:09Z</time>
      </trkpt>
      <trkpt lat="37.16132" lon="-2.83401">
        <ele>918.5654</ele>
        <time>2021-07-18T07:44:20Z</time>
      </trkpt>
      <trkpt lat="37.16104" lon="-2.83294">
        <ele>919.6851</ele>
        <time>2021-07-18T07:44:31Z</time>
      </trkpt>
      <trkpt lat="37.16103" lon="-2.83285">
        <ele>920.9631</ele>
        <time>2021-07-18T07:44:42Z</time>
      </trkpt>
      <trkpt lat="37.16098" lon="-2.8329">
        <ele>919.7406</ele>
        <time>2021-07-18T07:44:54Z</time>
      </trkpt>
      <trkpt lat="37.16101" lon="-2.83287">
        <ele>917.6373</ele>
        <time>2021-07-18T07:45:05Z</time>
      </trkpt>
      <trkpt lat="37.16099" lon="-2.83285">
        <ele>916.6287</ele>
        <time>2021-07-18T07:46:04Z</time>
      </trkpt>
      <trkpt lat="37.161" lon="-2.83285">
        <ele>916.6893</ele>
        <time>2021-07-18T07:47:03Z</time>
      </trkpt>
      <trkpt lat="37.161" lon="-2.83285">
        <ele>916.6893</ele>
        <time>2021-07-18T07:48:02Z</time>
      </trkpt>
      <trkpt lat="37.16101" lon="-2.83282">
        <ele>915.1154</ele>
        <time>2021-07-18T07:49:01Z</time>
      </trkpt>
      <trkpt lat="37.16101" lon="-2.83282">
        <ele>915.1154</ele>
        <time>2021-07-18T07:50:00Z</time>
      </trkpt>
      <trkpt lat="37.16106" lon="-2.83282">
        <ele>913.6178</ele>
        <time>2021-07-18T07:50:15Z</time>
      </trkpt>
      <trkpt lat="37.16102" lon="-2.83283">
        <ele>914.7558</ele>
        <time>2021-07-18T07:50:27Z</time>
      </trkpt>
      <trkpt lat="37.16098" lon="-2.83287">
        <ele>916.2543</ele>
        <time>2021-07-18T07:50:38Z</time>
      </trkpt>
      <trkpt lat="37.16099" lon="-2.83289">
        <ele>917.1222</ele>
        <time>2021-07-18T07:51:37Z</time>
      </trkpt>
      <trkpt lat="37.16097" lon="-2.83286">
        <ele>914.3048</ele>
        <time>2021-07-18T07:51:55Z</time>
      </trkpt>
      <trkpt lat="37.16097" lon="-2.83283">
        <ele>914.2286</ele>
        <time>2021-07-18T07:52:54Z</time>
      </trkpt>
      <trkpt lat="37.16101" lon="-2.83278">
        <ele>915.5227</ele>
        <time>2021-07-18T07:53:28Z</time>
      </trkpt>
      <trkpt lat="37.16127" lon="-2.83292">
        <ele>917.3686</ele>
        <time>2021-07-18T07:53:39Z</time>
      </trkpt>
      <trkpt lat="37.16135" lon="-2.83507">
        <ele>921.9395</ele>
        <time>2021-07-18T07:53:50Z</time>
      </trkpt>
      <trkpt lat="37.16178" lon="-2.83721">
        <ele>924.0228</ele>
        <time>2021-07-18T07:54:01Z</time>
      </trkpt>
      <trkpt lat="37.16255" lon="-2.83927">
        <ele>928.1023</ele>
        <time>2021-07-18T07:54:12Z</time>
      </trkpt>
      <trkpt lat="37.16417" lon="-2.84037">
        <ele>928.671</ele>
        <time>2021-07-18T07:54:23Z</time>
      </trkpt>
      <trkpt lat="37.16553" lon="-2.84123">
        <ele>921.0392</ele>
        <time>2021-07-18T07:54:34Z</time>
      </trkpt>
      <trkpt lat="37.16647" lon="-2.84111">
        <ele>913.7017</ele>
        <time>2021-07-18T07:54:45Z</time>
      </trkpt>
      <trkpt lat="37.16717" lon="-2.84034">
        <ele>913.402</ele>
        <time>2021-07-18T07:54:56Z</time>
      </trkpt>
      <trkpt lat="37.16814" lon="-2.83987">
        <ele>913.0129</ele>
        <time>2021-07-18T07:55:07Z</time>
      </trkpt>
      <trkpt lat="37.16893" lon="-2.83962">
        <ele>918.408</ele>
        <time>2021-07-18T07:55:18Z</time>
      </trkpt>
      <trkpt lat="37.16958" lon="-2.83928">
        <ele>918.7567</ele>
        <time>2021-07-18T07:55:29Z</time>
      </trkpt>
      <trkpt lat="37.17007" lon="-2.83878">
        <ele>922.4065</ele>
        <time>2021-07-18T07:55:40Z</time>
      </trkpt>
      <trkpt lat="37.17052" lon="-2.83836">
        <ele>927.9781</ele>
        <time>2021-07-18T07:55:51Z</time>
      </trkpt>
      <trkpt lat="37.17075" lon="-2.83866">
        <ele>929.2142</ele>
        <time>2021-07-18T07:56:02Z</time>
      </trkpt>
      <trkpt lat="37.17126" lon="-2.83868">
        <ele>932.3085</ele>
        <time>2021-07-18T07:56:13Z</time>
      </trkpt>
      <trkpt lat="37.17186" lon="-2.83909">
        <ele>931.9934</ele>
        <time>2021-07-18T07:56:24Z</time>
      </trkpt>
      <trkpt lat="37.17262" lon="-2.83977">
        <ele>927.6205</ele>
        <time>2021-07-18T07:56:35Z</time>
      </trkpt>
      <trkpt lat="37.17338" lon="-2.84023">
        <ele>924.314</ele>
        <time>2021-07-18T07:56:46Z</time>
      </trkpt>
      <trkpt lat="37.17445" lon="-2.83981">
        <ele>917.5252</ele>
        <time>2021-07-18T07:56:57Z</time>
      </trkpt>
      <trkpt lat="37.1754" lon="-2.84036">
        <ele>912.2197</ele>
        <time>2021-07-18T07:57:08Z</time>
      </trkpt>
      <trkpt lat="37.17622" lon="-2.8397">
        <ele>912.6784</ele>
        <time>2021-07-18T07:57:19Z</time>
      </trkpt>
      <trkpt lat="37.1772" lon="-2.84066">
        <ele>903.0552</ele>
        <time>2021-07-18T07:57:30Z</time>
      </trkpt>
      <trkpt lat="37.17834" lon="-2.84179">
        <ele>904.8189</ele>
        <time>2021-07-18T07:57:41Z</time>
      </trkpt>
      <trkpt lat="37.17942" lon="-2.84278">
        <ele>918.6118</ele>
        <time>2021-07-18T07:57:52Z</time>
      </trkpt>
      <trkpt lat="37.18026" lon="-2.8435">
        <ele>922.3207</ele>
        <time>2021-07-18T07:58:03Z</time>
      </trkpt>
      <trkpt lat="37.18111" lon="-2.84339">
        <ele>924.3728</ele>
        <time>2021-07-18T07:58:14Z</time>
      </trkpt>
      <trkpt lat="37.18245" lon="-2.84297">
        <ele>929.2585</ele>
        <time>2021-07-18T07:58:25Z</time>
      </trkpt>
      <trkpt lat="37.18382" lon="-2.84237">
        <ele>933.854</ele>
        <time>2021-07-18T07:58:36Z</time>
      </trkpt>
      <trkpt lat="37.18484" lon="-2.84189">
        <ele>935.0889</ele>
        <time>2021-07-18T07:58:47Z</time>
      </trkpt>
      <trkpt lat="37.18571" lon="-2.84137">
        <ele>937.7344</ele>
        <time>2021-07-18T07:58:58Z</time>
      </trkpt>
      <trkpt lat="37.18648" lon="-2.84081">
        <ele>945.7071</ele>
        <time>2021-07-18T07:59:09Z</time>
      </trkpt>
      <trkpt lat="37.18634" lon="-2.84011">
        <ele>945.1558</ele>
        <time>2021-07-18T07:59:20Z</time>
      </trkpt>
      <trkpt lat="37.1859" lon="-2.83974">
        <ele>948.4595</ele>
        <time>2021-07-18T07:59:31Z</time>
      </trkpt>
      <trkpt lat="37.18674" lon="-2.83807">
        <ele>959.5821</ele>
        <time>2021-07-18T07:59:42Z</time>
      </trkpt>
      <trkpt lat="37.18781" lon="-2.83676">
        <ele>970.3405</ele>
        <time>2021-07-18T07:59:53Z</time>
      </trkpt>
      <trkpt lat="37.18853" lon="-2.83609">
        <ele>975.7997</ele>
        <time>2021-07-18T08:00:04Z</time>
      </trkpt>
      <trkpt lat="37.18931" lon="-2.83468">
        <ele>986.2206</ele>
        <time>2021-07-18T08:00:15Z</time>
      </trkpt>
      <trkpt lat="37.19016" lon="-2.83385">
        <ele>996.8676</ele>
        <time>2021-07-18T08:00:26Z</time>
      </trkpt>
      <trkpt lat="37.19115" lon="-2.83261">
        <ele>1007.174</ele>
        <time>2021-07-18T08:00:37Z</time>
      </trkpt>
      <trkpt lat="37.1922" lon="-2.83193">
        <ele>1016.7</ele>
        <time>2021-07-18T08:00:48Z</time>
      </trkpt>
      <trkpt lat="37.19271" lon="-2.83099">
        <ele>1020.892</ele>
        <time>2021-07-18T08:00:59Z</time>
      </trkpt>
      <trkpt lat="37.19376" lon="-2.8308">
        <ele>1038.942</ele>
        <time>2021-07-18T08:01:10Z</time>
      </trkpt>
      <trkpt lat="37.19481" lon="-2.83046">
        <ele>1038.077</ele>
        <time>2021-07-18T08:01:21Z</time>
      </trkpt>
      <trkpt lat="37.19586" lon="-2.83015">
        <ele>1047.599</ele>
        <time>2021-07-18T08:01:32Z</time>
      </trkpt>
      <trkpt lat="37.19669" lon="-2.82975">
        <ele>1054.037</ele>
        <time>2021-07-18T08:01:43Z</time>
      </trkpt>
      <trkpt lat="37.19687" lon="-2.82946">
        <ele>1058.413</ele>
        <time>2021-07-18T08:01:54Z</time>
      </trkpt>
      <trkpt lat="37.19611" lon="-2.82883">
        <ele>1069.105</ele>
        <time>2021-07-18T08:02:05Z</time>
      </trkpt>
      <trkpt lat="37.19602" lon="-2.8281">
        <ele>1074.67</ele>
        <time>2021-07-18T08:02:16Z</time>
      </trkpt>
      <trkpt lat="37.19698" lon="-2.8277">
        <ele>1084.55</ele>
        <time>2021-07-18T08:02:27Z</time>
      </trkpt>
      <trkpt lat="37.1979" lon="-2.82714">
        <ele>1095.82</ele>
        <time>2021-07-18T08:02:38Z</time>
      </trkpt>
      <trkpt lat="37.19866" lon="-2.82626">
        <ele>1109.015</ele>
        <time>2021-07-18T08:02:49Z</time>
      </trkpt>
      <trkpt lat="37.19921" lon="-2.82533">
        <ele>1123.983</ele>
        <time>2021-07-18T08:03:00Z</time>
      </trkpt>
      <trkpt lat="37.2" lon="-2.82514">
        <ele>1127.374</ele>
        <time>2021-07-18T08:03:11Z</time>
      </trkpt>
      <trkpt lat="37.2007" lon="-2.82467">
        <ele>1133.652</ele>
        <time>2021-07-18T08:03:22Z</time>
      </trkpt>
      <trkpt lat="37.20156" lon="-2.82469">
        <ele>1140.738</ele>
        <time>2021-07-18T08:03:33Z</time>
      </trkpt>
      <trkpt lat="37.20253" lon="-2.82473">
        <ele>1149.824</ele>
        <time>2021-07-18T08:03:44Z</time>
      </trkpt>
      <trkpt lat="37.20306" lon="-2.82417">
        <ele>1147.202</ele>
        <time>2021-07-18T08:03:55Z</time>
      </trkpt>
      <trkpt lat="37.2033" lon="-2.82442">
        <ele>1152.329</ele>
        <time>2021-07-18T08:04:06Z</time>
      </trkpt>
      <trkpt lat="37.20371" lon="-2.82422">
        <ele>1165.006</ele>
        <time>2021-07-18T08:04:17Z</time>
      </trkpt>
      <trkpt lat="37.20436" lon="-2.8239">
        <ele>1178.457</ele>
        <time>2021-07-18T08:04:28Z</time>
      </trkpt>
      <trkpt lat="37.20494" lon="-2.82366">
        <ele>1192.257</ele>
        <time>2021-07-18T08:04:39Z</time>
      </trkpt>
      <trkpt lat="37.20536" lon="-2.8234">
        <ele>1204.59</ele>
        <time>2021-07-18T08:04:50Z</time>
      </trkpt>
      <trkpt lat="37.20532" lon="-2.8234">
        <ele>1224.271</ele>
        <time>2021-07-18T08:05:02Z</time>
      </trkpt>
      <trkpt lat="37.20537" lon="-2.82339">
        <ele>1206.272</ele>
        <time>2021-07-18T08:05:13Z</time>
      </trkpt>
      <trkpt lat="37.20535" lon="-2.82341">
        <ele>1203.73</ele>
        <time>2021-07-18T08:06:13Z</time>
      </trkpt>
      <trkpt lat="37.20538" lon="-2.8234">
        <ele>1202.051</ele>
        <time>2021-07-18T08:07:13Z</time>
      </trkpt>
      <trkpt lat="37.20538" lon="-2.8234">
        <ele>1201.722</ele>
        <time>2021-07-18T08:08:13Z</time>
      </trkpt>
      <trkpt lat="37.20537" lon="-2.82338">
        <ele>1202.682</ele>
        <time>2021-07-18T08:09:13Z</time>
      </trkpt>
      <trkpt lat="37.20537" lon="-2.8234">
        <ele>1204.244</ele>
        <time>2021-07-18T08:10:13Z</time>
      </trkpt>
      <trkpt lat="37.20537" lon="-2.8234">
        <ele>1204.244</ele>
        <time>2021-07-18T08:11:13Z</time>
      </trkpt>
      <trkpt lat="37.20541" lon="-2.82337">
        <ele>1206.197</ele>
        <time>2021-07-18T08:12:10Z</time>
      </trkpt>
      <trkpt lat="37.20551" lon="-2.8233">
        <ele>1206.106</ele>
        <time>2021-07-18T08:12:21Z</time>
      </trkpt>
      <trkpt lat="37.20551" lon="-2.8233">
        <ele>1203.535</ele>
        <time>2021-07-18T08:13:21Z</time>
      </trkpt>
      <trkpt lat="37.20551" lon="-2.8233">
        <ele>1202.63</ele>
        <time>2021-07-18T08:14:20Z</time>
      </trkpt>
      <trkpt lat="37.20589" lon="-2.82302">
        <ele>1212.216</ele>
        <time>2021-07-18T08:14:31Z</time>
      </trkpt>
      <trkpt lat="37.20609" lon="-2.82257">
        <ele>1222.339</ele>
        <time>2021-07-18T08:14:42Z</time>
      </trkpt>
      <trkpt lat="37.2065" lon="-2.82261">
        <ele>1228.473</ele>
        <time>2021-07-18T08:14:53Z</time>
      </trkpt>
      <trkpt lat="37.20685" lon="-2.82251">
        <ele>1235.053</ele>
        <time>2021-07-18T08:15:04Z</time>
      </trkpt>
      <trkpt lat="37.20743" lon="-2.82219">
        <ele>1250.145</ele>
        <time>2021-07-18T08:15:15Z</time>
      </trkpt>
      <trkpt lat="37.20789" lon="-2.82251">
        <ele>1256.103</ele>
        <time>2021-07-18T08:15:26Z</time>
      </trkpt>
      <trkpt lat="37.20808" lon="-2.82222">
        <ele>1263.652</ele>
        <time>2021-07-18T08:15:37Z</time>
      </trkpt>
      <trkpt lat="37.20837" lon="-2.82209">
        <ele>1270.64</ele>
        <time>2021-07-18T08:15:48Z</time>
      </trkpt>
      <trkpt lat="37.20883" lon="-2.82197">
        <ele>1280.369</ele>
        <time>2021-07-18T08:15:59Z</time>
      </trkpt>
      <trkpt lat="37.20901" lon="-2.82127">
        <ele>1294.546</ele>
        <time>2021-07-18T08:16:10Z</time>
      </trkpt>
      <trkpt lat="37.20968" lon="-2.82064">
        <ele>1309.939</ele>
        <time>2021-07-18T08:16:21Z</time>
      </trkpt>
      <trkpt lat="37.21046" lon="-2.82035">
        <ele>1325.367</ele>
        <time>2021-07-18T08:16:32Z</time>
      </trkpt>
      <trkpt lat="37.21094" lon="-2.82024">
        <ele>1326.726</ele>
        <time>2021-07-18T08:16:43Z</time>
      </trkpt>
      <trkpt lat="37.21153" lon="-2.82028">
        <ele>1334.787</ele>
        <time>2021-07-18T08:16:54Z</time>
      </trkpt>
      <trkpt lat="37.21112" lon="-2.82008">
        <ele>1338.12</ele>
        <time>2021-07-18T08:17:05Z</time>
      </trkpt>
      <trkpt lat="37.21042" lon="-2.81984">
        <ele>1340.709</ele>
        <time>2021-07-18T08:17:16Z</time>
      </trkpt>
      <trkpt lat="37.20966" lon="-2.81925">
        <ele>1343.557</ele>
        <time>2021-07-18T08:17:27Z</time>
      </trkpt>
      <trkpt lat="37.20917" lon="-2.81819">
        <ele>1343.623</ele>
        <time>2021-07-18T08:17:38Z</time>
      </trkpt>
      <trkpt lat="37.20954" lon="-2.81851">
        <ele>1352.746</ele>
        <time>2021-07-18T08:17:49Z</time>
      </trkpt>
      <trkpt lat="37.21046" lon="-2.81917">
        <ele>1362.94</ele>
        <time>2021-07-18T08:18:00Z</time>
      </trkpt>
      <trkpt lat="37.21162" lon="-2.81928">
        <ele>1373.386</ele>
        <time>2021-07-18T08:18:11Z</time>
      </trkpt>
      <trkpt lat="37.21272" lon="-2.81895">
        <ele>1383.268</ele>
        <time>2021-07-18T08:18:22Z</time>
      </trkpt>
      <trkpt lat="37.21332" lon="-2.81973">
        <ele>1385.324</ele>
        <time>2021-07-18T08:18:33Z</time>
      </trkpt>
      <trkpt lat="37.21471" lon="-2.81977">
        <ele>1395.142</ele>
        <time>2021-07-18T08:18:44Z</time>
      </trkpt>
      <trkpt lat="37.2156" lon="-2.81932">
        <ele>1400.711</ele>
        <time>2021-07-18T08:18:55Z</time>
      </trkpt>
      <trkpt lat="37.21613" lon="-2.81859">
        <ele>1402.803</ele>
        <time>2021-07-18T08:19:06Z</time>
      </trkpt>
      <trkpt lat="37.21538" lon="-2.81754">
        <ele>1403.616</ele>
        <time>2021-07-18T08:19:17Z</time>
      </trkpt>
      <trkpt lat="37.21544" lon="-2.81618">
        <ele>1405.299</ele>
        <time>2021-07-18T08:19:28Z</time>
      </trkpt>
      <trkpt lat="37.2147" lon="-2.81515">
        <ele>1402.903</ele>
        <time>2021-07-18T08:19:39Z</time>
      </trkpt>
      <trkpt lat="37.21383" lon="-2.8144">
        <ele>1403.364</ele>
        <time>2021-07-18T08:19:50Z</time>
      </trkpt>
      <trkpt lat="37.2133" lon="-2.81351">
        <ele>1404.275</ele>
        <time>2021-07-18T08:20:01Z</time>
      </trkpt>
      <trkpt lat="37.2126" lon="-2.81225">
        <ele>1410.617</ele>
        <time>2021-07-18T08:20:12Z</time>
      </trkpt>
      <trkpt lat="37.21263" lon="-2.81127">
        <ele>1415.265</ele>
        <time>2021-07-18T08:20:23Z</time>
      </trkpt>
      <trkpt lat="37.21372" lon="-2.81116">
        <ele>1411.146</ele>
        <time>2021-07-18T08:20:34Z</time>
      </trkpt>
      <trkpt lat="37.21432" lon="-2.81203">
        <ele>1407.909</ele>
        <time>2021-07-18T08:20:45Z</time>
      </trkpt>
      <trkpt lat="37.21544" lon="-2.81178">
        <ele>1409.016</ele>
        <time>2021-07-18T08:20:56Z</time>
      </trkpt>
      <trkpt lat="37.21615" lon="-2.8109">
        <ele>1415.773</ele>
        <time>2021-07-18T08:21:07Z</time>
      </trkpt>
      <trkpt lat="37.21702" lon="-2.81034">
        <ele>1424.627</ele>
        <time>2021-07-18T08:21:18Z</time>
      </trkpt>
      <trkpt lat="37.21783" lon="-2.80979">
        <ele>1429.896</ele>
        <time>2021-07-18T08:21:29Z</time>
      </trkpt>
      <trkpt lat="37.21748" lon="-2.80869">
        <ele>1432.083</ele>
        <time>2021-07-18T08:21:40Z</time>
      </trkpt>
      <trkpt lat="37.21832" lon="-2.8087">
        <ele>1430.967</ele>
        <time>2021-07-18T08:21:51Z</time>
      </trkpt>
      <trkpt lat="37.21873" lon="-2.8079">
        <ele>1434.708</ele>
        <time>2021-07-18T08:22:02Z</time>
      </trkpt>
      <trkpt lat="37.21923" lon="-2.80935">
        <ele>1438.996</ele>
        <time>2021-07-18T08:22:13Z</time>
      </trkpt>
      <trkpt lat="37.21963" lon="-2.80866">
        <ele>1437.372</ele>
        <time>2021-07-18T08:22:24Z</time>
      </trkpt>
      <trkpt lat="37.22024" lon="-2.80907">
        <ele>1432.396</ele>
        <time>2021-07-18T08:22:35Z</time>
      </trkpt>
      <trkpt lat="37.22149" lon="-2.80993">
        <ele>1422.03</ele>
        <time>2021-07-18T08:22:46Z</time>
      </trkpt>
      <trkpt lat="37.22262" lon="-2.80934">
        <ele>1413.415</ele>
        <time>2021-07-18T08:22:57Z</time>
      </trkpt>
      <trkpt lat="37.22372" lon="-2.80876">
        <ele>1413.51</ele>
        <time>2021-07-18T08:23:08Z</time>
      </trkpt>
      <trkpt lat="37.22427" lon="-2.80851">
        <ele>1417.084</ele>
        <time>2021-07-18T08:23:19Z</time>
      </trkpt>
      <trkpt lat="37.22387" lon="-2.80997">
        <ele>1418.339</ele>
        <time>2021-07-18T08:23:30Z</time>
      </trkpt>
      <trkpt lat="37.22468" lon="-2.81054">
        <ele>1412.4</ele>
        <time>2021-07-18T08:23:41Z</time>
      </trkpt>
      <trkpt lat="37.2252" lon="-2.81099">
        <ele>1416.545</ele>
        <time>2021-07-18T08:23:52Z</time>
      </trkpt>
      <trkpt lat="37.22446" lon="-2.81213">
        <ele>1411.985</ele>
        <time>2021-07-18T08:24:03Z</time>
      </trkpt>
      <trkpt lat="37.22492" lon="-2.81318">
        <ele>1407.635</ele>
        <time>2021-07-18T08:24:14Z</time>
      </trkpt>
      <trkpt lat="37.22502" lon="-2.81433">
        <ele>1406.963</ele>
        <time>2021-07-18T08:24:25Z</time>
      </trkpt>
      <trkpt lat="37.22449" lon="-2.81544">
        <ele>1414.95</ele>
        <time>2021-07-18T08:24:36Z</time>
      </trkpt>
      <trkpt lat="37.22551" lon="-2.8167">
        <ele>1405.557</ele>
        <time>2021-07-18T08:24:47Z</time>
      </trkpt>
      <trkpt lat="37.2257" lon="-2.81575">
        <ele>1405.164</ele>
        <time>2021-07-18T08:24:58Z</time>
      </trkpt>
      <trkpt lat="37.22642" lon="-2.81487">
        <ele>1403.559</ele>
        <time>2021-07-18T08:25:09Z</time>
      </trkpt>
      <trkpt lat="37.22703" lon="-2.81348">
        <ele>1391.264</ele>
        <time>2021-07-18T08:25:20Z</time>
      </trkpt>
      <trkpt lat="37.22784" lon="-2.81248">
        <ele>1388.487</ele>
        <time>2021-07-18T08:25:31Z</time>
      </trkpt>
      <trkpt lat="37.22832" lon="-2.81223">
        <ele>1388.899</ele>
        <time>2021-07-18T08:25:42Z</time>
      </trkpt>
      <trkpt lat="37.2291" lon="-2.81194">
        <ele>1392.525</ele>
        <time>2021-07-18T08:25:53Z</time>
      </trkpt>
      <trkpt lat="37.23016" lon="-2.81116">
        <ele>1405.213</ele>
        <time>2021-07-18T08:26:04Z</time>
      </trkpt>
      <trkpt lat="37.2303" lon="-2.81166">
        <ele>1407.947</ele>
        <time>2021-07-18T08:26:15Z</time>
      </trkpt>
      <trkpt lat="37.22941" lon="-2.8127">
        <ele>1405.706</ele>
        <time>2021-07-18T08:26:26Z</time>
      </trkpt>
      <trkpt lat="37.22874" lon="-2.81412">
        <ele>1412.988</ele>
        <time>2021-07-18T08:26:37Z</time>
      </trkpt>
      <trkpt lat="37.22925" lon="-2.81496">
        <ele>1421.104</ele>
        <time>2021-07-18T08:26:49Z</time>
      </trkpt>
      <trkpt lat="37.23017" lon="-2.81579">
        <ele>1424.965</ele>
        <time>2021-07-18T08:27:00Z</time>
      </trkpt>
      <trkpt lat="37.23024" lon="-2.81638">
        <ele>1431.375</ele>
        <time>2021-07-18T08:27:11Z</time>
      </trkpt>
      <trkpt lat="37.22935" lon="-2.81723">
        <ele>1438.264</ele>
        <time>2021-07-18T08:27:22Z</time>
      </trkpt>
      <trkpt lat="37.22982" lon="-2.81848">
        <ele>1438.178</ele>
        <time>2021-07-18T08:27:33Z</time>
      </trkpt>
      <trkpt lat="37.23015" lon="-2.81965">
        <ele>1445.015</ele>
        <time>2021-07-18T08:27:44Z</time>
      </trkpt>
      <trkpt lat="37.23131" lon="-2.82046">
        <ele>1456.714</ele>
        <time>2021-07-18T08:27:55Z</time>
      </trkpt>
      <trkpt lat="37.2328" lon="-2.82053">
        <ele>1464.172</ele>
        <time>2021-07-18T08:28:06Z</time>
      </trkpt>
      <trkpt lat="37.23355" lon="-2.82096">
        <ele>1472.89</ele>
        <time>2021-07-18T08:28:17Z</time>
      </trkpt>
      <trkpt lat="37.23479" lon="-2.82084">
        <ele>1478.915</ele>
        <time>2021-07-18T08:28:28Z</time>
      </trkpt>
      <trkpt lat="37.23473" lon="-2.8218">
        <ele>1482.339</ele>
        <time>2021-07-18T08:28:39Z</time>
      </trkpt>
      <trkpt lat="37.2354" lon="-2.82285">
        <ele>1487.89</ele>
        <time>2021-07-18T08:28:50Z</time>
      </trkpt>
      <trkpt lat="37.23663" lon="-2.82317">
        <ele>1492.127</ele>
        <time>2021-07-18T08:29:01Z</time>
      </trkpt>
      <trkpt lat="37.23762" lon="-2.82328">
        <ele>1493.828</ele>
        <time>2021-07-18T08:29:12Z</time>
      </trkpt>
      <trkpt lat="37.23826" lon="-2.8219">
        <ele>1502.881</ele>
        <time>2021-07-18T08:29:23Z</time>
      </trkpt>
      <trkpt lat="37.23839" lon="-2.82046">
        <ele>1517.096</ele>
        <time>2021-07-18T08:29:34Z</time>
      </trkpt>
      <trkpt lat="37.23885" lon="-2.81941">
        <ele>1532.834</ele>
        <time>2021-07-18T08:29:45Z</time>
      </trkpt>
      <trkpt lat="37.23964" lon="-2.81801">
        <ele>1541.595</ele>
        <time>2021-07-18T08:29:56Z</time>
      </trkpt>
      <trkpt lat="37.24038" lon="-2.81667">
        <ele>1551.46</ele>
        <time>2021-07-18T08:30:07Z</time>
      </trkpt>
      <trkpt lat="37.241" lon="-2.81575">
        <ele>1549.984</ele>
        <time>2021-07-18T08:30:18Z</time>
      </trkpt>
      <trkpt lat="37.24162" lon="-2.81607">
        <ele>1546.48</ele>
        <time>2021-07-18T08:30:29Z</time>
      </trkpt>
      <trkpt lat="37.24231" lon="-2.817">
        <ele>1546.872</ele>
        <time>2021-07-18T08:30:40Z</time>
      </trkpt>
      <trkpt lat="37.24221" lon="-2.81818">
        <ele>1550.065</ele>
        <time>2021-07-18T08:30:51Z</time>
      </trkpt>
      <trkpt lat="37.24279" lon="-2.81872">
        <ele>1548.685</ele>
        <time>2021-07-18T08:31:02Z</time>
      </trkpt>
      <trkpt lat="37.24241" lon="-2.81984">
        <ele>1550.405</ele>
        <time>2021-07-18T08:31:13Z</time>
      </trkpt>
      <trkpt lat="37.2424" lon="-2.82153">
        <ele>1551.993</ele>
        <time>2021-07-18T08:31:24Z</time>
      </trkpt>
      <trkpt lat="37.24257" lon="-2.82106">
        <ele>1560.41</ele>
        <time>2021-07-18T08:31:35Z</time>
      </trkpt>
      <trkpt lat="37.24323" lon="-2.82107">
        <ele>1558.413</ele>
        <time>2021-07-18T08:31:46Z</time>
      </trkpt>
      <trkpt lat="37.24378" lon="-2.81867">
        <ele>1583.616</ele>
        <time>2021-07-18T08:31:57Z</time>
      </trkpt>
      <trkpt lat="37.24377" lon="-2.81861">
        <ele>1579.944</ele>
        <time>2021-07-18T08:32:11Z</time>
      </trkpt>
      <trkpt lat="37.24317" lon="-2.81754">
        <ele>1590.796</ele>
        <time>2021-07-18T08:32:22Z</time>
      </trkpt>
      <trkpt lat="37.24408" lon="-2.81841">
        <ele>1598.151</ele>
        <time>2021-07-18T08:32:33Z</time>
      </trkpt>
      <trkpt lat="37.24408" lon="-2.81997">
        <ele>1606.707</ele>
        <time>2021-07-18T08:32:44Z</time>
      </trkpt>
      <trkpt lat="37.24443" lon="-2.82163">
        <ele>1612.167</ele>
        <time>2021-07-18T08:32:55Z</time>
      </trkpt>
      <trkpt lat="37.24558" lon="-2.82175">
        <ele>1624.003</ele>
        <time>2021-07-18T08:33:06Z</time>
      </trkpt>
      <trkpt lat="37.24625" lon="-2.82264">
        <ele>1631.754</ele>
        <time>2021-07-18T08:33:17Z</time>
      </trkpt>
      <trkpt lat="37.24621" lon="-2.82369">
        <ele>1639.003</ele>
        <time>2021-07-18T08:33:28Z</time>
      </trkpt>
      <trkpt lat="37.24685" lon="-2.82512">
        <ele>1652.362</ele>
        <time>2021-07-18T08:33:39Z</time>
      </trkpt>
      <trkpt lat="37.24631" lon="-2.82684">
        <ele>1661.427</ele>
        <time>2021-07-18T08:33:50Z</time>
      </trkpt>
      <trkpt lat="37.2459" lon="-2.82855">
        <ele>1674.354</ele>
        <time>2021-07-18T08:34:01Z</time>
      </trkpt>
      <trkpt lat="37.24664" lon="-2.82892">
        <ele>1678.76</ele>
        <time>2021-07-18T08:34:12Z</time>
      </trkpt>
      <trkpt lat="37.24683" lon="-2.82778">
        <ele>1682.545</ele>
        <time>2021-07-18T08:34:23Z</time>
      </trkpt>
      <trkpt lat="37.2469" lon="-2.82733">
        <ele>1685.917</ele>
        <time>2021-07-18T08:34:34Z</time>
      </trkpt>
      <trkpt lat="37.2469" lon="-2.82733">
        <ele>1687.069</ele>
        <time>2021-07-18T08:35:33Z</time>
      </trkpt>
      <trkpt lat="37.2469" lon="-2.82733">
        <ele>1687.069</ele>
        <time>2021-07-18T08:36:32Z</time>
      </trkpt>
      <trkpt lat="37.2469" lon="-2.82733">
        <ele>1687.069</ele>
        <time>2021-07-18T08:37:32Z</time>
      </trkpt>
      <trkpt lat="37.24695" lon="-2.8273">
        <ele>1686.172</ele>
        <time>2021-07-18T08:37:57Z</time>
      </trkpt>
      <trkpt lat="37.24761" lon="-2.82726">
        <ele>1690.326</ele>
        <time>2021-07-18T08:38:08Z</time>
      </trkpt>
      <trkpt lat="37.24882" lon="-2.82666">
        <ele>1706.458</ele>
        <time>2021-07-18T08:38:19Z</time>
      </trkpt>
      <trkpt lat="37.24946" lon="-2.82495">
        <ele>1719.103</ele>
        <time>2021-07-18T08:38:30Z</time>
      </trkpt>
      <trkpt lat="37.24999" lon="-2.82362">
        <ele>1733.691</ele>
        <time>2021-07-18T08:38:41Z</time>
      </trkpt>
      <trkpt lat="37.25063" lon="-2.82237">
        <ele>1744.606</ele>
        <time>2021-07-18T08:38:52Z</time>
      </trkpt>
      <trkpt lat="37.25035" lon="-2.82116">
        <ele>1754.796</ele>
        <time>2021-07-18T08:39:03Z</time>
      </trkpt>
      <trkpt lat="37.25073" lon="-2.82037">
        <ele>1760.545</ele>
        <time>2021-07-18T08:39:14Z</time>
      </trkpt>
      <trkpt lat="37.25127" lon="-2.81869">
        <ele>1768.452</ele>
        <time>2021-07-18T08:39:25Z</time>
      </trkpt>
      <trkpt lat="37.25113" lon="-2.81765">
        <ele>1773.83</ele>
        <time>2021-07-18T08:39:36Z</time>
      </trkpt>
      <trkpt lat="37.2513" lon="-2.81615">
        <ele>1784.77</ele>
        <time>2021-07-18T08:39:47Z</time>
      </trkpt>
      <trkpt lat="37.25062" lon="-2.81438">
        <ele>1799.573</ele>
        <time>2021-07-18T08:39:58Z</time>
      </trkpt>
      <trkpt lat="37.25005" lon="-2.81241">
        <ele>1812.083</ele>
        <time>2021-07-18T08:40:09Z</time>
      </trkpt>
      <trkpt lat="37.24983" lon="-2.81033">
        <ele>1822.325</ele>
        <time>2021-07-18T08:40:20Z</time>
      </trkpt>
      <trkpt lat="37.25103" lon="-2.80924">
        <ele>1835.847</ele>
        <time>2021-07-18T08:40:31Z</time>
      </trkpt>
      <trkpt lat="37.25025" lon="-2.80883">
        <ele>1850.423</ele>
        <time>2021-07-18T08:40:42Z</time>
      </trkpt>
      <trkpt lat="37.24895" lon="-2.80804">
        <ele>1855.152</ele>
        <time>2021-07-18T08:40:53Z</time>
      </trkpt>
      <trkpt lat="37.24922" lon="-2.80618">
        <ele>1861.34</ele>
        <time>2021-07-18T08:41:04Z</time>
      </trkpt>
      <trkpt lat="37.24998" lon="-2.8051">
        <ele>1858.88</ele>
        <time>2021-07-18T08:41:15Z</time>
      </trkpt>
      <trkpt lat="37.25032" lon="-2.8037">
        <ele>1868.711</ele>
        <time>2021-07-18T08:41:26Z</time>
      </trkpt>
      <trkpt lat="37.2495" lon="-2.80347">
        <ele>1878.116</ele>
        <time>2021-07-18T08:41:37Z</time>
      </trkpt>
      <trkpt lat="37.24893" lon="-2.80242">
        <ele>1887.499</ele>
        <time>2021-07-18T08:41:48Z</time>
      </trkpt>
      <trkpt lat="37.24796" lon="-2.80274">
        <ele>1903.411</ele>
        <time>2021-07-18T08:41:59Z</time>
      </trkpt>
      <trkpt lat="37.24789" lon="-2.80145">
        <ele>1913.494</ele>
        <time>2021-07-18T08:42:10Z</time>
      </trkpt>
      <trkpt lat="37.24825" lon="-2.79935">
        <ele>1927.925</ele>
        <time>2021-07-18T08:42:21Z</time>
      </trkpt>
      <trkpt lat="37.24733" lon="-2.79828">
        <ele>1935.883</ele>
        <time>2021-07-18T08:42:32Z</time>
      </trkpt>
      <trkpt lat="37.24629" lon="-2.79694">
        <ele>1935.667</ele>
        <time>2021-07-18T08:42:43Z</time>
      </trkpt>
      <trkpt lat="37.24609" lon="-2.79592">
        <ele>1928.248</ele>
        <time>2021-07-18T08:42:54Z</time>
      </trkpt>
      <trkpt lat="37.24599" lon="-2.79551">
        <ele>1927.887</ele>
        <time>2021-07-18T08:43:05Z</time>
      </trkpt>
      <trkpt lat="37.24594" lon="-2.7954">
        <ele>1925.6</ele>
        <time>2021-07-18T08:43:23Z</time>
      </trkpt>
      <trkpt lat="37.24554" lon="-2.79401">
        <ele>1926.809</ele>
        <time>2021-07-18T08:43:34Z</time>
      </trkpt>
      <trkpt lat="37.24602" lon="-2.7932">
        <ele>1925.134</ele>
        <time>2021-07-18T08:43:45Z</time>
      </trkpt>
      <trkpt lat="37.24687" lon="-2.79304">
        <ele>1916.465</ele>
        <time>2021-07-18T08:43:56Z</time>
      </trkpt>
      <trkpt lat="37.24676" lon="-2.79217">
        <ele>1915.433</ele>
        <time>2021-07-18T08:44:07Z</time>
      </trkpt>
      <trkpt lat="37.24614" lon="-2.79075">
        <ele>1916.495</ele>
        <time>2021-07-18T08:44:18Z</time>
      </trkpt>
      <trkpt lat="37.24606" lon="-2.78951">
        <ele>1914.759</ele>
        <time>2021-07-18T08:44:29Z</time>
      </trkpt>
      <trkpt lat="37.24631" lon="-2.78805">
        <ele>1909.816</ele>
        <time>2021-07-18T08:44:40Z</time>
      </trkpt>
      <trkpt lat="37.24598" lon="-2.78684">
        <ele>1913.585</ele>
        <time>2021-07-18T08:44:51Z</time>
      </trkpt>
      <trkpt lat="37.24552" lon="-2.78535">
        <ele>1926.935</ele>
        <time>2021-07-18T08:45:02Z</time>
      </trkpt>
      <trkpt lat="37.24542" lon="-2.78408">
        <ele>1938.051</ele>
        <time>2021-07-18T08:45:13Z</time>
      </trkpt>
      <trkpt lat="37.24471" lon="-2.78254">
        <ele>1937.865</ele>
        <time>2021-07-18T08:45:24Z</time>
      </trkpt>
      <trkpt lat="37.24393" lon="-2.78295">
        <ele>1933.397</ele>
        <time>2021-07-18T08:45:35Z</time>
      </trkpt>
      <trkpt lat="37.24338" lon="-2.78168">
        <ele>1934.413</ele>
        <time>2021-07-18T08:45:46Z</time>
      </trkpt>
      <trkpt lat="37.24335" lon="-2.78048">
        <ele>1939.977</ele>
        <time>2021-07-18T08:45:57Z</time>
      </trkpt>
      <trkpt lat="37.24298" lon="-2.77887">
        <ele>1949.296</ele>
        <time>2021-07-18T08:46:08Z</time>
      </trkpt>
      <trkpt lat="37.24283" lon="-2.77728">
        <ele>1952.061</ele>
        <time>2021-07-18T08:46:19Z</time>
      </trkpt>
      <trkpt lat="37.2417" lon="-2.7765">
        <ele>1949.381</ele>
        <time>2021-07-18T08:46:30Z</time>
      </trkpt>
      <trkpt lat="37.24178" lon="-2.7752">
        <ele>1947.574</ele>
        <time>2021-07-18T08:46:41Z</time>
      </trkpt>
      <trkpt lat="37.24195" lon="-2.77391">
        <ele>1945.095</ele>
        <time>2021-07-18T08:46:52Z</time>
      </trkpt>
      <trkpt lat="37.24225" lon="-2.77336">
        <ele>1944.764</ele>
        <time>2021-07-18T08:47:03Z</time>
      </trkpt>
      <trkpt lat="37.24215" lon="-2.77324">
        <ele>1942.043</ele>
        <time>2021-07-18T08:47:22Z</time>
      </trkpt>
      <trkpt lat="37.24098" lon="-2.77226">
        <ele>1934.439</ele>
        <time>2021-07-18T08:47:33Z</time>
      </trkpt>
      <trkpt lat="37.23943" lon="-2.77123">
        <ele>1924.76</ele>
        <time>2021-07-18T08:47:44Z</time>
      </trkpt>
      <trkpt lat="37.23873" lon="-2.76946">
        <ele>1917.424</ele>
        <time>2021-07-18T08:47:55Z</time>
      </trkpt>
      <trkpt lat="37.23741" lon="-2.76724">
        <ele>1922.152</ele>
        <time>2021-07-18T08:48:06Z</time>
      </trkpt>
      <trkpt lat="37.23633" lon="-2.76524">
        <ele>1927.629</ele>
        <time>2021-07-18T08:48:17Z</time>
      </trkpt>
      <trkpt lat="37.23458" lon="-2.76463">
        <ele>1926.738</ele>
        <time>2021-07-18T08:48:28Z</time>
      </trkpt>
      <trkpt lat="37.23246" lon="-2.76349">
        <ele>1923.5</ele>
        <time>2021-07-18T08:48:39Z</time>
      </trkpt>
      <trkpt lat="37.23132" lon="-2.76151">
        <ele>1917.419</ele>
        <time>2021-07-18T08:48:50Z</time>
      </trkpt>
      <trkpt lat="37.23022" lon="-2.75866">
        <ele>1904.864</ele>
        <time>2021-07-18T08:49:01Z</time>
      </trkpt>
      <trkpt lat="37.22918" lon="-2.75609">
        <ele>1893.411</ele>
        <time>2021-07-18T08:49:12Z</time>
      </trkpt>
      <trkpt lat="37.22807" lon="-2.75344">
        <ele>1881.828</ele>
        <time>2021-07-18T08:49:23Z</time>
      </trkpt>
      <trkpt lat="37.22696" lon="-2.7514">
        <ele>1866.146</ele>
        <time>2021-07-18T08:49:34Z</time>
      </trkpt>
      <trkpt lat="37.22501" lon="-2.75081">
        <ele>1852.194</ele>
        <time>2021-07-18T08:49:45Z</time>
      </trkpt>
      <trkpt lat="37.22356" lon="-2.74964">
        <ele>1839.756</ele>
        <time>2021-07-18T08:49:56Z</time>
      </trkpt>
      <trkpt lat="37.22367" lon="-2.74796">
        <ele>1828.334</ele>
        <time>2021-07-18T08:50:07Z</time>
      </trkpt>
      <trkpt lat="37.22299" lon="-2.74641">
        <ele>1816.78</ele>
        <time>2021-07-18T08:50:18Z</time>
      </trkpt>
      <trkpt lat="37.22264" lon="-2.74475">
        <ele>1807.862</ele>
        <time>2021-07-18T08:50:29Z</time>
      </trkpt>
      <trkpt lat="37.2224" lon="-2.74255">
        <ele>1797.897</ele>
        <time>2021-07-18T08:50:40Z</time>
      </trkpt>
      <trkpt lat="37.22221" lon="-2.74096">
        <ele>1788.019</ele>
        <time>2021-07-18T08:50:51Z</time>
      </trkpt>
      <trkpt lat="37.22223" lon="-2.73891">
        <ele>1775.911</ele>
        <time>2021-07-18T08:51:02Z</time>
      </trkpt>
      <trkpt lat="37.2231" lon="-2.73683">
        <ele>1766.727</ele>
        <time>2021-07-18T08:51:13Z</time>
      </trkpt>
      <trkpt lat="37.2236" lon="-2.73539">
        <ele>1769.553</ele>
        <time>2021-07-18T08:51:24Z</time>
      </trkpt>
      <trkpt lat="37.22341" lon="-2.7344">
        <ele>1773.162</ele>
        <time>2021-07-18T08:51:35Z</time>
      </trkpt>
      <trkpt lat="37.22358" lon="-2.73275">
        <ele>1777.452</ele>
        <time>2021-07-18T08:51:46Z</time>
      </trkpt>
      <trkpt lat="37.22318" lon="-2.7321">
        <ele>1781.113</ele>
        <time>2021-07-18T08:51:57Z</time>
      </trkpt>
      <trkpt lat="37.22225" lon="-2.73118">
        <ele>1772.525</ele>
        <time>2021-07-18T08:52:08Z</time>
      </trkpt>
      <trkpt lat="37.22106" lon="-2.73112">
        <ele>1768.622</ele>
        <time>2021-07-18T08:52:19Z</time>
      </trkpt>
      <trkpt lat="37.21985" lon="-2.72994">
        <ele>1752.522</ele>
        <time>2021-07-18T08:52:30Z</time>
      </trkpt>
      <trkpt lat="37.21876" lon="-2.72922">
        <ele>1748.862</ele>
        <time>2021-07-18T08:52:41Z</time>
      </trkpt>
      <trkpt lat="37.21786" lon="-2.72931">
        <ele>1743.912</ele>
        <time>2021-07-18T08:52:52Z</time>
      </trkpt>
      <trkpt lat="37.2174" lon="-2.72896">
        <ele>1740.566</ele>
        <time>2021-07-18T08:53:03Z</time>
      </trkpt>
      <trkpt lat="37.2174" lon="-2.72901">
        <ele>1731.408</ele>
        <time>2021-07-18T08:53:27Z</time>
      </trkpt>
      <trkpt lat="37.2174" lon="-2.72896">
        <ele>1735.055</ele>
        <time>2021-07-18T08:53:49Z</time>
      </trkpt>
      <trkpt lat="37.2174" lon="-2.72896">
        <ele>1741.138</ele>
        <time>2021-07-18T08:54:49Z</time>
      </trkpt>
      <trkpt lat="37.21735" lon="-2.72892">
        <ele>1742.504</ele>
        <time>2021-07-18T08:55:25Z</time>
      </trkpt>
      <trkpt lat="37.21684" lon="-2.72779">
        <ele>1737.356</ele>
        <time>2021-07-18T08:55:36Z</time>
      </trkpt>
      <trkpt lat="37.21722" lon="-2.72653">
        <ele>1734.714</ele>
        <time>2021-07-18T08:55:47Z</time>
      </trkpt>
      <trkpt lat="37.21784" lon="-2.72584">
        <ele>1734.164</ele>
        <time>2021-07-18T08:55:58Z</time>
      </trkpt>
      <trkpt lat="37.21697" lon="-2.72442">
        <ele>1727.999</ele>
        <time>2021-07-18T08:56:09Z</time>
      </trkpt>
      <trkpt lat="37.21685" lon="-2.72322">
        <ele>1717.675</ele>
        <time>2021-07-18T08:56:20Z</time>
      </trkpt>
      <trkpt lat="37.21799" lon="-2.72261">
        <ele>1718.633</ele>
        <time>2021-07-18T08:56:31Z</time>
      </trkpt>
      <trkpt lat="37.21848" lon="-2.72142">
        <ele>1710.615</ele>
        <time>2021-07-18T08:56:42Z</time>
      </trkpt>
      <trkpt lat="37.21981" lon="-2.72034">
        <ele>1704.275</ele>
        <time>2021-07-18T08:56:53Z</time>
      </trkpt>
      <trkpt lat="37.22005" lon="-2.71951">
        <ele>1704.98</ele>
        <time>2021-07-18T08:57:04Z</time>
      </trkpt>
      <trkpt lat="37.21989" lon="-2.71779">
        <ele>1711.74</ele>
        <time>2021-07-18T08:57:15Z</time>
      </trkpt>
      <trkpt lat="37.21868" lon="-2.71689">
        <ele>1714.346</ele>
        <time>2021-07-18T08:57:26Z</time>
      </trkpt>
      <trkpt lat="37.21875" lon="-2.71517">
        <ele>1721.504</ele>
        <time>2021-07-18T08:57:37Z</time>
      </trkpt>
      <trkpt lat="37.21834" lon="-2.71404">
        <ele>1718.612</ele>
        <time>2021-07-18T08:57:48Z</time>
      </trkpt>
      <trkpt lat="37.21745" lon="-2.71326">
        <ele>1710.103</ele>
        <time>2021-07-18T08:57:59Z</time>
      </trkpt>
      <trkpt lat="37.21735" lon="-2.71184">
        <ele>1706.672</ele>
        <time>2021-07-18T08:58:10Z</time>
      </trkpt>
      <trkpt lat="37.21643" lon="-2.71055">
        <ele>1701.803</ele>
        <time>2021-07-18T08:58:21Z</time>
      </trkpt>
      <trkpt lat="37.21626" lon="-2.7094">
        <ele>1700.393</ele>
        <time>2021-07-18T08:58:32Z</time>
      </trkpt>
      <trkpt lat="37.21568" lon="-2.7084">
        <ele>1701.214</ele>
        <time>2021-07-18T08:58:43Z</time>
      </trkpt>
      <trkpt lat="37.21568" lon="-2.70657">
        <ele>1701.292</ele>
        <time>2021-07-18T08:58:54Z</time>
      </trkpt>
      <trkpt lat="37.21549" lon="-2.70575">
        <ele>1703.302</ele>
        <time>2021-07-18T08:59:05Z</time>
      </trkpt>
      <trkpt lat="37.21465" lon="-2.70625">
        <ele>1683.791</ele>
        <time>2021-07-18T08:59:16Z</time>
      </trkpt>
      <trkpt lat="37.21335" lon="-2.70695">
        <ele>1681.806</ele>
        <time>2021-07-18T08:59:27Z</time>
      </trkpt>
      <trkpt lat="37.2118" lon="-2.7074">
        <ele>1670.269</ele>
        <time>2021-07-18T08:59:38Z</time>
      </trkpt>
      <trkpt lat="37.21045" lon="-2.70786">
        <ele>1666.941</ele>
        <time>2021-07-18T08:59:49Z</time>
      </trkpt>
      <trkpt lat="37.21046" lon="-2.70678">
        <ele>1669.614</ele>
        <time>2021-07-18T09:00:00Z</time>
      </trkpt>
      <trkpt lat="37.2106" lon="-2.70524">
        <ele>1668.857</ele>
        <time>2021-07-18T09:00:11Z</time>
      </trkpt>
      <trkpt lat="37.21078" lon="-2.70385">
        <ele>1688.817</ele>
        <time>2021-07-18T09:00:22Z</time>
      </trkpt>
      <trkpt lat="37.20907" lon="-2.70368">
        <ele>1679.641</ele>
        <time>2021-07-18T09:00:33Z</time>
      </trkpt>
      <trkpt lat="37.20788" lon="-2.70314">
        <ele>1696.184</ele>
        <time>2021-07-18T09:00:44Z</time>
      </trkpt>
      <trkpt lat="37.20815" lon="-2.7015">
        <ele>1699.184</ele>
        <time>2021-07-18T09:00:55Z</time>
      </trkpt>
      <trkpt lat="37.20896" lon="-2.70059">
        <ele>1711.475</ele>
        <time>2021-07-18T09:01:06Z</time>
      </trkpt>
      <trkpt lat="37.20942" lon="-2.69952">
        <ele>1726.631</ele>
        <time>2021-07-18T09:01:17Z</time>
      </trkpt>
      <trkpt lat="37.20837" lon="-2.69932">
        <ele>1735.047</ele>
        <time>2021-07-18T09:01:28Z</time>
      </trkpt>
      <trkpt lat="37.20707" lon="-2.69872">
        <ele>1736.32</ele>
        <time>2021-07-18T09:01:39Z</time>
      </trkpt>
      <trkpt lat="37.2061" lon="-2.69781">
        <ele>1732.802</ele>
        <time>2021-07-18T09:01:50Z</time>
      </trkpt>
      <trkpt lat="37.20687" lon="-2.69792">
        <ele>1733.473</ele>
        <time>2021-07-18T09:02:01Z</time>
      </trkpt>
      <trkpt lat="37.20782" lon="-2.69768">
        <ele>1735.973</ele>
        <time>2021-07-18T09:02:12Z</time>
      </trkpt>
      <trkpt lat="37.20892" lon="-2.69828">
        <ele>1724.497</ele>
        <time>2021-07-18T09:02:23Z</time>
      </trkpt>
      <trkpt lat="37.20884" lon="-2.69799">
        <ele>1725.129</ele>
        <time>2021-07-18T09:02:34Z</time>
      </trkpt>
      <trkpt lat="37.20798" lon="-2.69693">
        <ele>1778.688</ele>
        <time>2021-07-18T09:02:45Z</time>
      </trkpt>
      <trkpt lat="37.20762" lon="-2.69586">
        <ele>1785.485</ele>
        <time>2021-07-18T09:02:56Z</time>
      </trkpt>
      <trkpt lat="37.20811" lon="-2.69453">
        <ele>1796.336</ele>
        <time>2021-07-18T09:03:07Z</time>
      </trkpt>
      <trkpt lat="37.20831" lon="-2.69311">
        <ele>1805.932</ele>
        <time>2021-07-18T09:03:18Z</time>
      </trkpt>
      <trkpt lat="37.20945" lon="-2.69316">
        <ele>1815.285</ele>
        <time>2021-07-18T09:03:29Z</time>
      </trkpt>
      <trkpt lat="37.21069" lon="-2.6936">
        <ele>1823.65</ele>
        <time>2021-07-18T09:03:40Z</time>
      </trkpt>
      <trkpt lat="37.21166" lon="-2.69406">
        <ele>1829.552</ele>
        <time>2021-07-18T09:03:51Z</time>
      </trkpt>
      <trkpt lat="37.21256" lon="-2.6932">
        <ele>1841.79</ele>
        <time>2021-07-18T09:04:02Z</time>
      </trkpt>
      <trkpt lat="37.21272" lon="-2.69202">
        <ele>1849.194</ele>
        <time>2021-07-18T09:04:13Z</time>
      </trkpt>
      <trkpt lat="37.21259" lon="-2.69053">
        <ele>1856.202</ele>
        <time>2021-07-18T09:04:24Z</time>
      </trkpt>
      <trkpt lat="37.21264" lon="-2.68979">
        <ele>1865.429</ele>
        <time>2021-07-18T09:04:35Z</time>
      </trkpt>
      <trkpt lat="37.21267" lon="-2.68974">
        <ele>1860.671</ele>
        <time>2021-07-18T09:04:51Z</time>
      </trkpt>
      <trkpt lat="37.21307" lon="-2.68871">
        <ele>1861.107</ele>
        <time>2021-07-18T09:05:02Z</time>
      </trkpt>
      <trkpt lat="37.21261" lon="-2.68806">
        <ele>1859.667</ele>
        <time>2021-07-18T09:05:13Z</time>
      </trkpt>
      <trkpt lat="37.21187" lon="-2.68775">
        <ele>1855.223</ele>
        <time>2021-07-18T09:05:24Z</time>
      </trkpt>
      <trkpt lat="37.21086" lon="-2.68719">
        <ele>1847.355</ele>
        <time>2021-07-18T09:05:35Z</time>
      </trkpt>
      <trkpt lat="37.21057" lon="-2.68595">
        <ele>1848.735</ele>
        <time>2021-07-18T09:05:46Z</time>
      </trkpt>
      <trkpt lat="37.21063" lon="-2.6846">
        <ele>1858.256</ele>
        <time>2021-07-18T09:05:57Z</time>
      </trkpt>
      <trkpt lat="37.20967" lon="-2.68336">
        <ele>1859.421</ele>
        <time>2021-07-18T09:06:08Z</time>
      </trkpt>
      <trkpt lat="37.20951" lon="-2.68202">
        <ele>1862.112</ele>
        <time>2021-07-18T09:06:19Z</time>
      </trkpt>
      <trkpt lat="37.20901" lon="-2.68027">
        <ele>1857.8</ele>
        <time>2021-07-18T09:06:30Z</time>
      </trkpt>
      <trkpt lat="37.20926" lon="-2.67886">
        <ele>1854.257</ele>
        <time>2021-07-18T09:06:41Z</time>
      </trkpt>
      <trkpt lat="37.20963" lon="-2.67726">
        <ele>1840.114</ele>
        <time>2021-07-18T09:06:52Z</time>
      </trkpt>
      <trkpt lat="37.20975" lon="-2.67579">
        <ele>1844.238</ele>
        <time>2021-07-18T09:07:03Z</time>
      </trkpt>
      <trkpt lat="37.20979" lon="-2.67435">
        <ele>1841.054</ele>
        <time>2021-07-18T09:07:14Z</time>
      </trkpt>
      <trkpt lat="37.21055" lon="-2.67292">
        <ele>1864.789</ele>
        <time>2021-07-18T09:07:25Z</time>
      </trkpt>
      <trkpt lat="37.21157" lon="-2.67164">
        <ele>1907.427</ele>
        <time>2021-07-18T09:07:36Z</time>
      </trkpt>
      <trkpt lat="37.21223" lon="-2.67021">
        <ele>1920.535</ele>
        <time>2021-07-18T09:07:47Z</time>
      </trkpt>
      <trkpt lat="37.21267" lon="-2.66911">
        <ele>1924.294</ele>
        <time>2021-07-18T09:07:58Z</time>
      </trkpt>
      <trkpt lat="37.21186" lon="-2.66754">
        <ele>1936.864</ele>
        <time>2021-07-18T09:08:09Z</time>
      </trkpt>
      <trkpt lat="37.21059" lon="-2.66645">
        <ele>1945.072</ele>
        <time>2021-07-18T09:08:20Z</time>
      </trkpt>
      <trkpt lat="37.20952" lon="-2.66524">
        <ele>1948.415</ele>
        <time>2021-07-18T09:08:31Z</time>
      </trkpt>
      <trkpt lat="37.20922" lon="-2.66398">
        <ele>1958.145</ele>
        <time>2021-07-18T09:08:42Z</time>
      </trkpt>
      <trkpt lat="37.20933" lon="-2.66216">
        <ele>1968.198</ele>
        <time>2021-07-18T09:08:53Z</time>
      </trkpt>
      <trkpt lat="37.20893" lon="-2.66116">
        <ele>1968.716</ele>
        <time>2021-07-18T09:09:04Z</time>
      </trkpt>
      <trkpt lat="37.20962" lon="-2.65987">
        <ele>1970.205</ele>
        <time>2021-07-18T09:09:15Z</time>
      </trkpt>
      <trkpt lat="37.21071" lon="-2.65857">
        <ele>1969.116</ele>
        <time>2021-07-18T09:09:26Z</time>
      </trkpt>
      <trkpt lat="37.21163" lon="-2.65736">
        <ele>1966.143</ele>
        <time>2021-07-18T09:09:37Z</time>
      </trkpt>
      <trkpt lat="37.21144" lon="-2.65546">
        <ele>1960.981</ele>
        <time>2021-07-18T09:09:48Z</time>
      </trkpt>
      <trkpt lat="37.21123" lon="-2.65308">
        <ele>1957.552</ele>
        <time>2021-07-18T09:09:59Z</time>
      </trkpt>
      <trkpt lat="37.21102" lon="-2.65139">
        <ele>1961.894</ele>
        <time>2021-07-18T09:10:10Z</time>
      </trkpt>
      <trkpt lat="37.21025" lon="-2.64972">
        <ele>1966.272</ele>
        <time>2021-07-18T09:10:21Z</time>
      </trkpt>
      <trkpt lat="37.20909" lon="-2.64844">
        <ele>1972.759</ele>
        <time>2021-07-18T09:10:32Z</time>
      </trkpt>
      <trkpt lat="37.2088" lon="-2.64669">
        <ele>1966.138</ele>
        <time>2021-07-18T09:10:43Z</time>
      </trkpt>
      <trkpt lat="37.20862" lon="-2.6445">
        <ele>1958.559</ele>
        <time>2021-07-18T09:10:54Z</time>
      </trkpt>
      <trkpt lat="37.20862" lon="-2.64234">
        <ele>1962.38</ele>
        <time>2021-07-18T09:11:05Z</time>
      </trkpt>
      <trkpt lat="37.20813" lon="-2.64063">
        <ele>1952.785</ele>
        <time>2021-07-18T09:11:16Z</time>
      </trkpt>
      <trkpt lat="37.2078" lon="-2.63861">
        <ele>1947.017</ele>
        <time>2021-07-18T09:11:27Z</time>
      </trkpt>
      <trkpt lat="37.20821" lon="-2.63725">
        <ele>1939.968</ele>
        <time>2021-07-18T09:11:38Z</time>
      </trkpt>
      <trkpt lat="37.20913" lon="-2.63599">
        <ele>1937.256</ele>
        <time>2021-07-18T09:11:49Z</time>
      </trkpt>
      <trkpt lat="37.20916" lon="-2.63391">
        <ele>1936.328</ele>
        <time>2021-07-18T09:12:00Z</time>
      </trkpt>
      <trkpt lat="37.2096" lon="-2.63222">
        <ele>1938.073</ele>
        <time>2021-07-18T09:12:11Z</time>
      </trkpt>
      <trkpt lat="37.20993" lon="-2.63057">
        <ele>1935.263</ele>
        <time>2021-07-18T09:12:22Z</time>
      </trkpt>
      <trkpt lat="37.20965" lon="-2.62908">
        <ele>1934.089</ele>
        <time>2021-07-18T09:12:33Z</time>
      </trkpt>
      <trkpt lat="37.20989" lon="-2.62701">
        <ele>1931.68</ele>
        <time>2021-07-18T09:12:44Z</time>
      </trkpt>
      <trkpt lat="37.21129" lon="-2.62488">
        <ele>1949.011</ele>
        <time>2021-07-18T09:12:55Z</time>
      </trkpt>
      <trkpt lat="37.21233" lon="-2.62335">
        <ele>1949.405</ele>
        <time>2021-07-18T09:13:06Z</time>
      </trkpt>
      <trkpt lat="37.21294" lon="-2.62129">
        <ele>1949.101</ele>
        <time>2021-07-18T09:13:17Z</time>
      </trkpt>
      <trkpt lat="37.21284" lon="-2.61916">
        <ele>1943.529</ele>
        <time>2021-07-18T09:13:28Z</time>
      </trkpt>
      <trkpt lat="37.21215" lon="-2.61669">
        <ele>1929.974</ele>
        <time>2021-07-18T09:13:39Z</time>
      </trkpt>
      <trkpt lat="37.21287" lon="-2.61513">
        <ele>1940.909</ele>
        <time>2021-07-18T09:13:50Z</time>
      </trkpt>
      <trkpt lat="37.21438" lon="-2.61371">
        <ele>1948.831</ele>
        <time>2021-07-18T09:14:01Z</time>
      </trkpt>
      <trkpt lat="37.21409" lon="-2.61249">
        <ele>1942.475</ele>
        <time>2021-07-18T09:14:12Z</time>
      </trkpt>
      <trkpt lat="37.21385" lon="-2.61001">
        <ele>1937.353</ele>
        <time>2021-07-18T09:14:23Z</time>
      </trkpt>
      <trkpt lat="37.21279" lon="-2.60865">
        <ele>1929.249</ele>
        <time>2021-07-18T09:14:34Z</time>
      </trkpt>
      <trkpt lat="37.21153" lon="-2.60761">
        <ele>1925.518</ele>
        <time>2021-07-18T09:14:45Z</time>
      </trkpt>
      <trkpt lat="37.21131" lon="-2.60739">
        <ele>1924.27</ele>
        <time>2021-07-18T09:14:56Z</time>
      </trkpt>
      <trkpt lat="37.21133" lon="-2.60796">
        <ele>1925.748</ele>
        <time>2021-07-18T09:15:07Z</time>
      </trkpt>
      <trkpt lat="37.21136" lon="-2.60793">
        <ele>1920.834</ele>
        <time>2021-07-18T09:15:37Z</time>
      </trkpt>
      <trkpt lat="37.21137" lon="-2.60788">
        <ele>1920.111</ele>
        <time>2021-07-18T09:15:52Z</time>
      </trkpt>
      <trkpt lat="37.21139" lon="-2.60788">
        <ele>1921.746</ele>
        <time>2021-07-18T09:16:51Z</time>
      </trkpt>
      <trkpt lat="37.21138" lon="-2.60786">
        <ele>1921.47</ele>
        <time>2021-07-18T09:17:50Z</time>
      </trkpt>
      <trkpt lat="37.21139" lon="-2.60788">
        <ele>1918.577</ele>
        <time>2021-07-18T09:18:50Z</time>
      </trkpt>
      <trkpt lat="37.21138" lon="-2.60788">
        <ele>1920.472</ele>
        <time>2021-07-18T09:19:49Z</time>
      </trkpt>
      <trkpt lat="37.21138" lon="-2.60788">
        <ele>1922.162</ele>
        <time>2021-07-18T09:20:49Z</time>
      </trkpt>
      <trkpt lat="37.21138" lon="-2.60788">
        <ele>1922.162</ele>
        <time>2021-07-18T09:21:49Z</time>
      </trkpt>
      <trkpt lat="37.21137" lon="-2.60785">
        <ele>1920.822</ele>
        <time>2021-07-18T09:22:48Z</time>
      </trkpt>
      <trkpt lat="37.21139" lon="-2.60787">
        <ele>1921.245</ele>
        <time>2021-07-18T09:23:48Z</time>
      </trkpt>
      <trkpt lat="37.21138" lon="-2.60787">
        <ele>1921.866</ele>
        <time>2021-07-18T09:24:48Z</time>
      </trkpt>
      <trkpt lat="37.21136" lon="-2.60786">
        <ele>1920.313</ele>
        <time>2021-07-18T09:25:47Z</time>
      </trkpt>
      <trkpt lat="37.21136" lon="-2.60786">
        <ele>1921.93</ele>
        <time>2021-07-18T09:26:46Z</time>
      </trkpt>
      <trkpt lat="37.2114" lon="-2.60788">
        <ele>1923.736</ele>
        <time>2021-07-18T09:27:34Z</time>
      </trkpt>
      <trkpt lat="37.21149" lon="-2.60781">
        <ele>1924.348</ele>
        <time>2021-07-18T09:27:45Z</time>
      </trkpt>
      <trkpt lat="37.21155" lon="-2.60788">
        <ele>1926.384</ele>
        <time>2021-07-18T09:27:56Z</time>
      </trkpt>
      <trkpt lat="37.21157" lon="-2.60794">
        <ele>1924.928</ele>
        <time>2021-07-18T09:28:07Z</time>
      </trkpt>
      <trkpt lat="37.2116" lon="-2.60794">
        <ele>1924.717</ele>
        <time>2021-07-18T09:29:06Z</time>
      </trkpt>
      <trkpt lat="37.21158" lon="-2.60791">
        <ele>1924.479</ele>
        <time>2021-07-18T09:29:19Z</time>
      </trkpt>
      <trkpt lat="37.21162" lon="-2.6079">
        <ele>1923.718</ele>
        <time>2021-07-18T09:29:45Z</time>
      </trkpt>
      <trkpt lat="37.21168" lon="-2.60792">
        <ele>1925.352</ele>
        <time>2021-07-18T09:29:56Z</time>
      </trkpt>
      <trkpt lat="37.21172" lon="-2.60794">
        <ele>1925.148</ele>
        <time>2021-07-18T09:30:29Z</time>
      </trkpt>
      <trkpt lat="37.21178" lon="-2.60794">
        <ele>1925.553</ele>
        <time>2021-07-18T09:30:40Z</time>
      </trkpt>
      <trkpt lat="37.21176" lon="-2.6079">
        <ele>1923.951</ele>
        <time>2021-07-18T09:31:23Z</time>
      </trkpt>
      <trkpt lat="37.21173" lon="-2.60793">
        <ele>1923.599</ele>
        <time>2021-07-18T09:31:46Z</time>
      </trkpt>
      <trkpt lat="37.2117" lon="-2.60796">
        <ele>1924.22</ele>
        <time>2021-07-18T09:32:04Z</time>
      </trkpt>
      <trkpt lat="37.21166" lon="-2.60796">
        <ele>1924.058</ele>
        <time>2021-07-18T09:32:16Z</time>
      </trkpt>
      <trkpt lat="37.21156" lon="-2.60787">
        <ele>1923.007</ele>
        <time>2021-07-18T09:32:27Z</time>
      </trkpt>
      <trkpt lat="37.21141" lon="-2.60784">
        <ele>1922.294</ele>
        <time>2021-07-18T09:32:38Z</time>
      </trkpt>
      <trkpt lat="37.21138" lon="-2.60787">
        <ele>1921.93</ele>
        <time>2021-07-18T09:32:49Z</time>
      </trkpt>
      <trkpt lat="37.21141" lon="-2.6079">
        <ele>1923.127</ele>
        <time>2021-07-18T09:33:28Z</time>
      </trkpt>
      <trkpt lat="37.21137" lon="-2.60791">
        <ele>1924.11</ele>
        <time>2021-07-18T09:34:10Z</time>
      </trkpt>
      <trkpt lat="37.21135" lon="-2.60794">
        <ele>1923.61</ele>
        <time>2021-07-18T09:35:09Z</time>
      </trkpt>
      <trkpt lat="37.21133" lon="-2.60791">
        <ele>1924.032</ele>
        <time>2021-07-18T09:36:08Z</time>
      </trkpt>
      <trkpt lat="37.21128" lon="-2.60788">
        <ele>1922.476</ele>
        <time>2021-07-18T09:36:34Z</time>
      </trkpt>
      <trkpt lat="37.21144" lon="-2.60717">
        <ele>1922.306</ele>
        <time>2021-07-18T09:36:45Z</time>
      </trkpt>
      <trkpt lat="37.21292" lon="-2.60711">
        <ele>1917.924</ele>
        <time>2021-07-18T09:36:56Z</time>
      </trkpt>
      <trkpt lat="37.21457" lon="-2.60694">
        <ele>1914.261</ele>
        <time>2021-07-18T09:37:07Z</time>
      </trkpt>
      <trkpt lat="37.21612" lon="-2.60601">
        <ele>1912.599</ele>
        <time>2021-07-18T09:37:18Z</time>
      </trkpt>
      <trkpt lat="37.21766" lon="-2.60555">
        <ele>1905.656</ele>
        <time>2021-07-18T09:37:29Z</time>
      </trkpt>
      <trkpt lat="37.21702" lon="-2.60383">
        <ele>1904.766</ele>
        <time>2021-07-18T09:37:40Z</time>
      </trkpt>
      <trkpt lat="37.21644" lon="-2.60118">
        <ele>1897.782</ele>
        <time>2021-07-18T09:37:51Z</time>
      </trkpt>
      <trkpt lat="37.21675" lon="-2.5985">
        <ele>1886.212</ele>
        <time>2021-07-18T09:38:02Z</time>
      </trkpt>
      <trkpt lat="37.21783" lon="-2.59648">
        <ele>1877.1</ele>
        <time>2021-07-18T09:38:13Z</time>
      </trkpt>
      <trkpt lat="37.21979" lon="-2.59463">
        <ele>1859.841</ele>
        <time>2021-07-18T09:38:24Z</time>
      </trkpt>
      <trkpt lat="37.22103" lon="-2.59276">
        <ele>1846.811</ele>
        <time>2021-07-18T09:38:35Z</time>
      </trkpt>
      <trkpt lat="37.22199" lon="-2.59146">
        <ele>1833.684</ele>
        <time>2021-07-18T09:38:46Z</time>
      </trkpt>
      <trkpt lat="37.22258" lon="-2.58977">
        <ele>1824.36</ele>
        <time>2021-07-18T09:38:57Z</time>
      </trkpt>
      <trkpt lat="37.22401" lon="-2.58889">
        <ele>1805.553</ele>
        <time>2021-07-18T09:39:08Z</time>
      </trkpt>
      <trkpt lat="37.22482" lon="-2.58794">
        <ele>1792.05</ele>
        <time>2021-07-18T09:39:19Z</time>
      </trkpt>
      <trkpt lat="37.2236" lon="-2.58827">
        <ele>1781.62</ele>
        <time>2021-07-18T09:39:30Z</time>
      </trkpt>
      <trkpt lat="37.22285" lon="-2.58824">
        <ele>1782.047</ele>
        <time>2021-07-18T09:39:41Z</time>
      </trkpt>
      <trkpt lat="37.22401" lon="-2.58697">
        <ele>1783.436</ele>
        <time>2021-07-18T09:39:52Z</time>
      </trkpt>
      <trkpt lat="37.22576" lon="-2.58567">
        <ele>1784.402</ele>
        <time>2021-07-18T09:40:03Z</time>
      </trkpt>
      <trkpt lat="37.22775" lon="-2.58428">
        <ele>1786.657</ele>
        <time>2021-07-18T09:40:14Z</time>
      </trkpt>
      <trkpt lat="37.22979" lon="-2.58366">
        <ele>1790.719</ele>
        <time>2021-07-18T09:40:25Z</time>
      </trkpt>
      <trkpt lat="37.23187" lon="-2.58375">
        <ele>1794.002</ele>
        <time>2021-07-18T09:40:36Z</time>
      </trkpt>
      <trkpt lat="37.23291" lon="-2.58335">
        <ele>1791.37</ele>
        <time>2021-07-18T09:40:47Z</time>
      </trkpt>
      <trkpt lat="37.23448" lon="-2.58224">
        <ele>1784.402</ele>
        <time>2021-07-18T09:40:58Z</time>
      </trkpt>
      <trkpt lat="37.23539" lon="-2.58104">
        <ele>1775.175</ele>
        <time>2021-07-18T09:41:09Z</time>
      </trkpt>
      <trkpt lat="37.23562" lon="-2.58006">
        <ele>1770.887</ele>
        <time>2021-07-18T09:41:20Z</time>
      </trkpt>
      <trkpt lat="37.23404" lon="-2.5794">
        <ele>1765.3</ele>
        <time>2021-07-18T09:41:31Z</time>
      </trkpt>
      <trkpt lat="37.23296" lon="-2.57944">
        <ele>1759.322</ele>
        <time>2021-07-18T09:41:42Z</time>
      </trkpt>
      <trkpt lat="37.23392" lon="-2.57845">
        <ele>1753.173</ele>
        <time>2021-07-18T09:41:53Z</time>
      </trkpt>
      <trkpt lat="37.23556" lon="-2.57779">
        <ele>1753.456</ele>
        <time>2021-07-18T09:42:04Z</time>
      </trkpt>
      <trkpt lat="37.23699" lon="-2.5774">
        <ele>1757.486</ele>
        <time>2021-07-18T09:42:15Z</time>
      </trkpt>
      <trkpt lat="37.23855" lon="-2.57752">
        <ele>1748.82</ele>
        <time>2021-07-18T09:42:26Z</time>
      </trkpt>
      <trkpt lat="37.23984" lon="-2.57865">
        <ele>1739.042</ele>
        <time>2021-07-18T09:42:37Z</time>
      </trkpt>
      <trkpt lat="37.24118" lon="-2.57803">
        <ele>1733.777</ele>
        <time>2021-07-18T09:42:48Z</time>
      </trkpt>
      <trkpt lat="37.24234" lon="-2.57752">
        <ele>1724.856</ele>
        <time>2021-07-18T09:42:59Z</time>
      </trkpt>
      <trkpt lat="37.24382" lon="-2.57782">
        <ele>1715.177</ele>
        <time>2021-07-18T09:43:10Z</time>
      </trkpt>
      <trkpt lat="37.24527" lon="-2.57819">
        <ele>1700.95</ele>
        <time>2021-07-18T09:43:21Z</time>
      </trkpt>
      <trkpt lat="37.24676" lon="-2.57695">
        <ele>1686.122</ele>
        <time>2021-07-18T09:43:32Z</time>
      </trkpt>
      <trkpt lat="37.24679" lon="-2.5755">
        <ele>1686.003</ele>
        <time>2021-07-18T09:43:43Z</time>
      </trkpt>
      <trkpt lat="37.24546" lon="-2.57334">
        <ele>1686.932</ele>
        <time>2021-07-18T09:43:54Z</time>
      </trkpt>
      <trkpt lat="37.24394" lon="-2.57124">
        <ele>1688.705</ele>
        <time>2021-07-18T09:44:05Z</time>
      </trkpt>
      <trkpt lat="37.24288" lon="-2.56963">
        <ele>1690.459</ele>
        <time>2021-07-18T09:44:16Z</time>
      </trkpt>
      <trkpt lat="37.24293" lon="-2.56773">
        <ele>1696.091</ele>
        <time>2021-07-18T09:44:27Z</time>
      </trkpt>
      <trkpt lat="37.24298" lon="-2.56603">
        <ele>1697.581</ele>
        <time>2021-07-18T09:44:38Z</time>
      </trkpt>
      <trkpt lat="37.24172" lon="-2.56469">
        <ele>1703.889</ele>
        <time>2021-07-18T09:44:49Z</time>
      </trkpt>
      <trkpt lat="37.24133" lon="-2.56305">
        <ele>1707</ele>
        <time>2021-07-18T09:45:00Z</time>
      </trkpt>
      <trkpt lat="37.24068" lon="-2.56226">
        <ele>1707.721</ele>
        <time>2021-07-18T09:45:11Z</time>
      </trkpt>
      <trkpt lat="37.24029" lon="-2.56054">
        <ele>1710.779</ele>
        <time>2021-07-18T09:45:22Z</time>
      </trkpt>
      <trkpt lat="37.23987" lon="-2.55843">
        <ele>1718.405</ele>
        <time>2021-07-18T09:45:33Z</time>
      </trkpt>
      <trkpt lat="37.23949" lon="-2.55668">
        <ele>1726.988</ele>
        <time>2021-07-18T09:45:44Z</time>
      </trkpt>
      <trkpt lat="37.23886" lon="-2.55603">
        <ele>1730.447</ele>
        <time>2021-07-18T09:45:55Z</time>
      </trkpt>
      <trkpt lat="37.23773" lon="-2.55636">
        <ele>1728.914</ele>
        <time>2021-07-18T09:46:06Z</time>
      </trkpt>
      <trkpt lat="37.23643" lon="-2.5566">
        <ele>1737.745</ele>
        <time>2021-07-18T09:46:17Z</time>
      </trkpt>
      <trkpt lat="37.23561" lon="-2.5565">
        <ele>1745.657</ele>
        <time>2021-07-18T09:46:28Z</time>
      </trkpt>
      <trkpt lat="37.23599" lon="-2.55526">
        <ele>1755.244</ele>
        <time>2021-07-18T09:46:39Z</time>
      </trkpt>
      <trkpt lat="37.23526" lon="-2.55413">
        <ele>1762.289</ele>
        <time>2021-07-18T09:46:50Z</time>
      </trkpt>
      <trkpt lat="37.23456" lon="-2.5535">
        <ele>1769.094</ele>
        <time>2021-07-18T09:47:01Z</time>
      </trkpt>
      <trkpt lat="37.2354" lon="-2.55236">
        <ele>1771.891</ele>
        <time>2021-07-18T09:47:12Z</time>
      </trkpt>
      <trkpt lat="37.23676" lon="-2.55155">
        <ele>1780.966</ele>
        <time>2021-07-18T09:47:23Z</time>
      </trkpt>
      <trkpt lat="37.23685" lon="-2.55025">
        <ele>1780.753</ele>
        <time>2021-07-18T09:47:34Z</time>
      </trkpt>
      <trkpt lat="37.23627" lon="-2.5487">
        <ele>1780.548</ele>
        <time>2021-07-18T09:47:45Z</time>
      </trkpt>
      <trkpt lat="37.23552" lon="-2.54736">
        <ele>1804.295</ele>
        <time>2021-07-18T09:47:56Z</time>
      </trkpt>
      <trkpt lat="37.23646" lon="-2.54697">
        <ele>1808.447</ele>
        <time>2021-07-18T09:48:07Z</time>
      </trkpt>
      <trkpt lat="37.23808" lon="-2.54661">
        <ele>1810.281</ele>
        <time>2021-07-18T09:48:18Z</time>
      </trkpt>
      <trkpt lat="37.23933" lon="-2.54745">
        <ele>1815.322</ele>
        <time>2021-07-18T09:48:29Z</time>
      </trkpt>
      <trkpt lat="37.24057" lon="-2.54703">
        <ele>1814.616</ele>
        <time>2021-07-18T09:48:40Z</time>
      </trkpt>
      <trkpt lat="37.24169" lon="-2.54736">
        <ele>1820.002</ele>
        <time>2021-07-18T09:48:51Z</time>
      </trkpt>
      <trkpt lat="37.24317" lon="-2.54727">
        <ele>1825.288</ele>
        <time>2021-07-18T09:49:02Z</time>
      </trkpt>
      <trkpt lat="37.24388" lon="-2.54605">
        <ele>1824.478</ele>
        <time>2021-07-18T09:49:13Z</time>
      </trkpt>
      <trkpt lat="37.24381" lon="-2.54341">
        <ele>1824.701</ele>
        <time>2021-07-18T09:49:24Z</time>
      </trkpt>
      <trkpt lat="37.24309" lon="-2.54128">
        <ele>1823.993</ele>
        <time>2021-07-18T09:49:35Z</time>
      </trkpt>
      <trkpt lat="37.24193" lon="-2.54056">
        <ele>1822.99</ele>
        <time>2021-07-18T09:49:46Z</time>
      </trkpt>
      <trkpt lat="37.24173" lon="-2.53917">
        <ele>1822.086</ele>
        <time>2021-07-18T09:49:57Z</time>
      </trkpt>
      <trkpt lat="37.24091" lon="-2.53686">
        <ele>1829.028</ele>
        <time>2021-07-18T09:50:08Z</time>
      </trkpt>
      <trkpt lat="37.23976" lon="-2.53555">
        <ele>1829.292</ele>
        <time>2021-07-18T09:50:19Z</time>
      </trkpt>
      <trkpt lat="37.2378" lon="-2.53493">
        <ele>1828.468</ele>
        <time>2021-07-18T09:50:30Z</time>
      </trkpt>
      <trkpt lat="37.23655" lon="-2.53466">
        <ele>1826.384</ele>
        <time>2021-07-18T09:50:41Z</time>
      </trkpt>
      <trkpt lat="37.23543" lon="-2.53479">
        <ele>1830.385</ele>
        <time>2021-07-18T09:50:52Z</time>
      </trkpt>
      <trkpt lat="37.23611" lon="-2.53372">
        <ele>1838.143</ele>
        <time>2021-07-18T09:51:03Z</time>
      </trkpt>
      <trkpt lat="37.23773" lon="-2.53313">
        <ele>1840.836</ele>
        <time>2021-07-18T09:51:14Z</time>
      </trkpt>
      <trkpt lat="37.23933" lon="-2.532">
        <ele>1838.294</ele>
        <time>2021-07-18T09:51:25Z</time>
      </trkpt>
      <trkpt lat="37.23978" lon="-2.53047">
        <ele>1826.351</ele>
        <time>2021-07-18T09:51:36Z</time>
      </trkpt>
      <trkpt lat="37.23829" lon="-2.52862">
        <ele>1835.246</ele>
        <time>2021-07-18T09:51:47Z</time>
      </trkpt>
      <trkpt lat="37.23729" lon="-2.52822">
        <ele>1841.628</ele>
        <time>2021-07-18T09:51:58Z</time>
      </trkpt>
      <trkpt lat="37.23601" lon="-2.52798">
        <ele>1840.151</ele>
        <time>2021-07-18T09:52:09Z</time>
      </trkpt>
      <trkpt lat="37.2354" lon="-2.52705">
        <ele>1841.943</ele>
        <time>2021-07-18T09:52:20Z</time>
      </trkpt>
      <trkpt lat="37.23539" lon="-2.52593">
        <ele>1844.824</ele>
        <time>2021-07-18T09:52:31Z</time>
      </trkpt>
      <trkpt lat="37.23464" lon="-2.52534">
        <ele>1845.371</ele>
        <time>2021-07-18T09:52:42Z</time>
      </trkpt>
      <trkpt lat="37.23412" lon="-2.52471">
        <ele>1844.101</ele>
        <time>2021-07-18T09:52:53Z</time>
      </trkpt>
      <trkpt lat="37.23351" lon="-2.52415">
        <ele>1844.041</ele>
        <time>2021-07-18T09:53:04Z</time>
      </trkpt>
      <trkpt lat="37.23289" lon="-2.52407">
        <ele>1842.957</ele>
        <time>2021-07-18T09:53:15Z</time>
      </trkpt>
      <trkpt lat="37.2335" lon="-2.52352">
        <ele>1846.273</ele>
        <time>2021-07-18T09:53:26Z</time>
      </trkpt>
      <trkpt lat="37.23447" lon="-2.52356">
        <ele>1852.217</ele>
        <time>2021-07-18T09:53:37Z</time>
      </trkpt>
      <trkpt lat="37.23531" lon="-2.52397">
        <ele>1855.167</ele>
        <time>2021-07-18T09:53:48Z</time>
      </trkpt>
      <trkpt lat="37.23646" lon="-2.52369">
        <ele>1851.309</ele>
        <time>2021-07-18T09:53:59Z</time>
      </trkpt>
      <trkpt lat="37.23688" lon="-2.52243">
        <ele>1851.113</ele>
        <time>2021-07-18T09:54:10Z</time>
      </trkpt>
      <trkpt lat="37.2378" lon="-2.52187">
        <ele>1851.998</ele>
        <time>2021-07-18T09:54:21Z</time>
      </trkpt>
      <trkpt lat="37.23845" lon="-2.52093">
        <ele>1854.358</ele>
        <time>2021-07-18T09:54:32Z</time>
      </trkpt>
      <trkpt lat="37.23893" lon="-2.51968">
        <ele>1855.313</ele>
        <time>2021-07-18T09:54:43Z</time>
      </trkpt>
      <trkpt lat="37.23951" lon="-2.51885">
        <ele>1855.644</ele>
        <time>2021-07-18T09:54:54Z</time>
      </trkpt>
      <trkpt lat="37.23955" lon="-2.5176">
        <ele>1857.493</ele>
        <time>2021-07-18T09:55:05Z</time>
      </trkpt>
      <trkpt lat="37.24057" lon="-2.5176">
        <ele>1859.814</ele>
        <time>2021-07-18T09:55:16Z</time>
      </trkpt>
      <trkpt lat="37.2416" lon="-2.51723">
        <ele>1862.826</ele>
        <time>2021-07-18T09:55:27Z</time>
      </trkpt>
      <trkpt lat="37.24232" lon="-2.51643">
        <ele>1863.542</ele>
        <time>2021-07-18T09:55:38Z</time>
      </trkpt>
      <trkpt lat="37.24281" lon="-2.51564">
        <ele>1859.884</ele>
        <time>2021-07-18T09:55:49Z</time>
      </trkpt>
      <trkpt lat="37.24282" lon="-2.51489">
        <ele>1865.977</ele>
        <time>2021-07-18T09:56:00Z</time>
      </trkpt>
      <trkpt lat="37.2412" lon="-2.51507">
        <ele>1877.111</ele>
        <time>2021-07-18T09:56:11Z</time>
      </trkpt>
      <trkpt lat="37.239" lon="-2.51572">
        <ele>1886.369</ele>
        <time>2021-07-18T09:56:22Z</time>
      </trkpt>
      <trkpt lat="37.237" lon="-2.51597">
        <ele>1891.872</ele>
        <time>2021-07-18T09:56:33Z</time>
      </trkpt>
      <trkpt lat="37.23461" lon="-2.51546">
        <ele>1895.628</ele>
        <time>2021-07-18T09:56:44Z</time>
      </trkpt>
      <trkpt lat="37.23307" lon="-2.51518">
        <ele>1899.216</ele>
        <time>2021-07-18T09:56:55Z</time>
      </trkpt>
      <trkpt lat="37.23139" lon="-2.51404">
        <ele>1906.543</ele>
        <time>2021-07-18T09:57:06Z</time>
      </trkpt>
      <trkpt lat="37.2297" lon="-2.51256">
        <ele>1920.732</ele>
        <time>2021-07-18T09:57:17Z</time>
      </trkpt>
      <trkpt lat="37.22763" lon="-2.51303">
        <ele>1932.059</ele>
        <time>2021-07-18T09:57:28Z</time>
      </trkpt>
      <trkpt lat="37.22619" lon="-2.51524">
        <ele>1935.575</ele>
        <time>2021-07-18T09:57:39Z</time>
      </trkpt>
      <trkpt lat="37.2242" lon="-2.51579">
        <ele>1942.49</ele>
        <time>2021-07-18T09:57:50Z</time>
      </trkpt>
      <trkpt lat="37.22235" lon="-2.51596">
        <ele>1937.704</ele>
        <time>2021-07-18T09:58:01Z</time>
      </trkpt>
      <trkpt lat="37.22153" lon="-2.51793">
        <ele>1922.564</ele>
        <time>2021-07-18T09:58:12Z</time>
      </trkpt>
      <trkpt lat="37.22103" lon="-2.51972">
        <ele>1933.925</ele>
        <time>2021-07-18T09:58:23Z</time>
      </trkpt>
      <trkpt lat="37.22004" lon="-2.52041">
        <ele>1933.685</ele>
        <time>2021-07-18T09:58:34Z</time>
      </trkpt>
      <trkpt lat="37.21884" lon="-2.51943">
        <ele>1936.225</ele>
        <time>2021-07-18T09:58:45Z</time>
      </trkpt>
      <trkpt lat="37.21722" lon="-2.51927">
        <ele>1950.09</ele>
        <time>2021-07-18T09:58:56Z</time>
      </trkpt>
      <trkpt lat="37.21575" lon="-2.51813">
        <ele>1958.439</ele>
        <time>2021-07-18T09:59:07Z</time>
      </trkpt>
      <trkpt lat="37.21372" lon="-2.51704">
        <ele>1970.163</ele>
        <time>2021-07-18T09:59:18Z</time>
      </trkpt>
      <trkpt lat="37.21238" lon="-2.51483">
        <ele>1967.48</ele>
        <time>2021-07-18T09:59:29Z</time>
      </trkpt>
      <trkpt lat="37.2119" lon="-2.51221">
        <ele>1958.317</ele>
        <time>2021-07-18T09:59:40Z</time>
      </trkpt>
      <trkpt lat="37.21168" lon="-2.50958">
        <ele>1950.653</ele>
        <time>2021-07-18T09:59:51Z</time>
      </trkpt>
      <trkpt lat="37.21177" lon="-2.50726">
        <ele>1947.426</ele>
        <time>2021-07-18T10:00:02Z</time>
      </trkpt>
      <trkpt lat="37.21125" lon="-2.50559">
        <ele>1947.219</ele>
        <time>2021-07-18T10:00:13Z</time>
      </trkpt>
      <trkpt lat="37.21021" lon="-2.50358">
        <ele>1944.866</ele>
        <time>2021-07-18T10:00:24Z</time>
      </trkpt>
      <trkpt lat="37.20916" lon="-2.50153">
        <ele>1942.163</ele>
        <time>2021-07-18T10:00:36Z</time>
      </trkpt>
      <trkpt lat="37.20789" lon="-2.5003">
        <ele>1942.912</ele>
        <time>2021-07-18T10:00:47Z</time>
      </trkpt>
      <trkpt lat="37.20712" lon="-2.49884">
        <ele>1941.773</ele>
        <time>2021-07-18T10:00:58Z</time>
      </trkpt>
      <trkpt lat="37.20766" lon="-2.49687">
        <ele>1946.701</ele>
        <time>2021-07-18T10:01:09Z</time>
      </trkpt>
      <trkpt lat="37.20845" lon="-2.49477">
        <ele>1945.592</ele>
        <time>2021-07-18T10:01:20Z</time>
      </trkpt>
      <trkpt lat="37.20923" lon="-2.49246">
        <ele>1939.71</ele>
        <time>2021-07-18T10:01:31Z</time>
      </trkpt>
      <trkpt lat="37.21024" lon="-2.49041">
        <ele>1916.241</ele>
        <time>2021-07-18T10:01:42Z</time>
      </trkpt>
      <trkpt lat="37.21101" lon="-2.48904">
        <ele>1942.974</ele>
        <time>2021-07-18T10:01:53Z</time>
      </trkpt>
      <trkpt lat="37.21266" lon="-2.48813">
        <ele>1943.212</ele>
        <time>2021-07-18T10:02:04Z</time>
      </trkpt>
      <trkpt lat="37.21445" lon="-2.48705">
        <ele>1939.331</ele>
        <time>2021-07-18T10:02:15Z</time>
      </trkpt>
      <trkpt lat="37.2157" lon="-2.48608">
        <ele>1936.703</ele>
        <time>2021-07-18T10:02:26Z</time>
      </trkpt>
      <trkpt lat="37.21518" lon="-2.48446">
        <ele>1932.367</ele>
        <time>2021-07-18T10:02:37Z</time>
      </trkpt>
      <trkpt lat="37.21446" lon="-2.48207">
        <ele>1930.955</ele>
        <time>2021-07-18T10:02:48Z</time>
      </trkpt>
      <trkpt lat="37.21442" lon="-2.48019">
        <ele>1930.702</ele>
        <time>2021-07-18T10:02:59Z</time>
      </trkpt>
      <trkpt lat="37.21501" lon="-2.47835">
        <ele>1935.813</ele>
        <time>2021-07-18T10:03:10Z</time>
      </trkpt>
      <trkpt lat="37.21525" lon="-2.47611">
        <ele>1936.024</ele>
        <time>2021-07-18T10:03:21Z</time>
      </trkpt>
      <trkpt lat="37.21585" lon="-2.47451">
        <ele>1936.575</ele>
        <time>2021-07-18T10:03:32Z</time>
      </trkpt>
      <trkpt lat="37.21647" lon="-2.47272">
        <ele>1930.993</ele>
        <time>2021-07-18T10:03:43Z</time>
      </trkpt>
      <trkpt lat="37.21741" lon="-2.47119">
        <ele>1933.858</ele>
        <time>2021-07-18T10:03:54Z</time>
      </trkpt>
      <trkpt lat="37.21867" lon="-2.4702">
        <ele>1939.647</ele>
        <time>2021-07-18T10:04:05Z</time>
      </trkpt>
      <trkpt lat="37.21842" lon="-2.4681">
        <ele>1931.74</ele>
        <time>2021-07-18T10:04:16Z</time>
      </trkpt>
      <trkpt lat="37.21823" lon="-2.46577">
        <ele>1924.874</ele>
        <time>2021-07-18T10:04:27Z</time>
      </trkpt>
      <trkpt lat="37.21818" lon="-2.46424">
        <ele>1912.162</ele>
        <time>2021-07-18T10:04:38Z</time>
      </trkpt>
      <trkpt lat="37.21755" lon="-2.46269">
        <ele>1909.58</ele>
        <time>2021-07-18T10:04:49Z</time>
      </trkpt>
      <trkpt lat="37.21794" lon="-2.46067">
        <ele>1909.474</ele>
        <time>2021-07-18T10:05:00Z</time>
      </trkpt>
      <trkpt lat="37.21811" lon="-2.45834">
        <ele>1906.624</ele>
        <time>2021-07-18T10:05:11Z</time>
      </trkpt>
      <trkpt lat="37.21798" lon="-2.45638">
        <ele>1901.367</ele>
        <time>2021-07-18T10:05:22Z</time>
      </trkpt>
      <trkpt lat="37.21823" lon="-2.45435">
        <ele>1889.012</ele>
        <time>2021-07-18T10:05:33Z</time>
      </trkpt>
      <trkpt lat="37.21863" lon="-2.45254">
        <ele>1875.795</ele>
        <time>2021-07-18T10:05:44Z</time>
      </trkpt>
      <trkpt lat="37.21975" lon="-2.45204">
        <ele>1869.541</ele>
        <time>2021-07-18T10:05:55Z</time>
      </trkpt>
      <trkpt lat="37.22101" lon="-2.45109">
        <ele>1864.645</ele>
        <time>2021-07-18T10:06:06Z</time>
      </trkpt>
      <trkpt lat="37.22201" lon="-2.44985">
        <ele>1850.35</ele>
        <time>2021-07-18T10:06:17Z</time>
      </trkpt>
      <trkpt lat="37.22177" lon="-2.44821">
        <ele>1851.24</ele>
        <time>2021-07-18T10:06:28Z</time>
      </trkpt>
      <trkpt lat="37.22133" lon="-2.44651">
        <ele>1857.961</ele>
        <time>2021-07-18T10:06:39Z</time>
      </trkpt>
      <trkpt lat="37.22199" lon="-2.44492">
        <ele>1868.336</ele>
        <time>2021-07-18T10:06:50Z</time>
      </trkpt>
      <trkpt lat="37.22326" lon="-2.44388">
        <ele>1868.315</ele>
        <time>2021-07-18T10:07:01Z</time>
      </trkpt>
      <trkpt lat="37.22335" lon="-2.44264">
        <ele>1865.487</ele>
        <time>2021-07-18T10:07:12Z</time>
      </trkpt>
      <trkpt lat="37.22413" lon="-2.44122">
        <ele>1860.974</ele>
        <time>2021-07-18T10:07:23Z</time>
      </trkpt>
      <trkpt lat="37.22537" lon="-2.44128">
        <ele>1854.657</ele>
        <time>2021-07-18T10:07:34Z</time>
      </trkpt>
      <trkpt lat="37.22667" lon="-2.44106">
        <ele>1842.003</ele>
        <time>2021-07-18T10:07:45Z</time>
      </trkpt>
      <trkpt lat="37.2279" lon="-2.44031">
        <ele>1824.002</ele>
        <time>2021-07-18T10:07:56Z</time>
      </trkpt>
      <trkpt lat="37.22859" lon="-2.43871">
        <ele>1834.388</ele>
        <time>2021-07-18T10:08:07Z</time>
      </trkpt>
      <trkpt lat="37.22804" lon="-2.43742">
        <ele>1847.749</ele>
        <time>2021-07-18T10:08:18Z</time>
      </trkpt>
      <trkpt lat="37.22902" lon="-2.43687">
        <ele>1862.25</ele>
        <time>2021-07-18T10:08:29Z</time>
      </trkpt>
      <trkpt lat="37.23022" lon="-2.43651">
        <ele>1865.381</ele>
        <time>2021-07-18T10:08:40Z</time>
      </trkpt>
      <trkpt lat="37.23084" lon="-2.43503">
        <ele>1848.373</ele>
        <time>2021-07-18T10:08:51Z</time>
      </trkpt>
      <trkpt lat="37.23024" lon="-2.43392">
        <ele>1847.052</ele>
        <time>2021-07-18T10:09:02Z</time>
      </trkpt>
      <trkpt lat="37.22953" lon="-2.43288">
        <ele>1849.197</ele>
        <time>2021-07-18T10:09:13Z</time>
      </trkpt>
      <trkpt lat="37.22911" lon="-2.43113">
        <ele>1859.815</ele>
        <time>2021-07-18T10:09:24Z</time>
      </trkpt>
      <trkpt lat="37.22781" lon="-2.42994">
        <ele>1862.085</ele>
        <time>2021-07-18T10:09:35Z</time>
      </trkpt>
      <trkpt lat="37.22629" lon="-2.4298">
        <ele>1864.699</ele>
        <time>2021-07-18T10:09:46Z</time>
      </trkpt>
      <trkpt lat="37.22524" lon="-2.42869">
        <ele>1860.12</ele>
        <time>2021-07-18T10:09:57Z</time>
      </trkpt>
      <trkpt lat="37.22574" lon="-2.42723">
        <ele>1859.329</ele>
        <time>2021-07-18T10:10:08Z</time>
      </trkpt>
      <trkpt lat="37.22605" lon="-2.42579">
        <ele>1850.806</ele>
        <time>2021-07-18T10:10:19Z</time>
      </trkpt>
      <trkpt lat="37.22738" lon="-2.42516">
        <ele>1841.342</ele>
        <time>2021-07-18T10:10:30Z</time>
      </trkpt>
      <trkpt lat="37.2285" lon="-2.42429">
        <ele>1826.737</ele>
        <time>2021-07-18T10:10:41Z</time>
      </trkpt>
      <trkpt lat="37.22999" lon="-2.42354">
        <ele>1821.496</ele>
        <time>2021-07-18T10:10:52Z</time>
      </trkpt>
      <trkpt lat="37.23113" lon="-2.42276">
        <ele>1819.364</ele>
        <time>2021-07-18T10:11:03Z</time>
      </trkpt>
      <trkpt lat="37.23232" lon="-2.42316">
        <ele>1828.253</ele>
        <time>2021-07-18T10:11:14Z</time>
      </trkpt>
      <trkpt lat="37.23328" lon="-2.42145">
        <ele>1839.212</ele>
        <time>2021-07-18T10:11:25Z</time>
      </trkpt>
      <trkpt lat="37.2346" lon="-2.41954">
        <ele>1845.369</ele>
        <time>2021-07-18T10:11:36Z</time>
      </trkpt>
      <trkpt lat="37.2353" lon="-2.41811">
        <ele>1839.927</ele>
        <time>2021-07-18T10:11:47Z</time>
      </trkpt>
      <trkpt lat="37.2354" lon="-2.41791">
        <ele>1832.371</ele>
        <time>2021-07-18T10:11:58Z</time>
      </trkpt>
      <trkpt lat="37.23539" lon="-2.41792">
        <ele>1826.195</ele>
        <time>2021-07-18T10:12:58Z</time>
      </trkpt>
      <trkpt lat="37.23541" lon="-2.41787">
        <ele>1829.832</ele>
        <time>2021-07-18T10:13:55Z</time>
      </trkpt>
      <trkpt lat="37.23534" lon="-2.41687">
        <ele>1827.216</ele>
        <time>2021-07-18T10:14:06Z</time>
      </trkpt>
      <trkpt lat="37.23412" lon="-2.4165">
        <ele>1820.721</ele>
        <time>2021-07-18T10:14:17Z</time>
      </trkpt>
      <trkpt lat="37.23265" lon="-2.41774">
        <ele>1815.097</ele>
        <time>2021-07-18T10:14:28Z</time>
      </trkpt>
      <trkpt lat="37.23117" lon="-2.41872">
        <ele>1809.199</ele>
        <time>2021-07-18T10:14:39Z</time>
      </trkpt>
      <trkpt lat="37.22979" lon="-2.41743">
        <ele>1804.966</ele>
        <time>2021-07-18T10:14:50Z</time>
      </trkpt>
      <trkpt lat="37.22823" lon="-2.41778">
        <ele>1800.376</ele>
        <time>2021-07-18T10:15:01Z</time>
      </trkpt>
      <trkpt lat="37.2279" lon="-2.41591">
        <ele>1799.788</ele>
        <time>2021-07-18T10:15:12Z</time>
      </trkpt>
      <trkpt lat="37.22656" lon="-2.41374">
        <ele>1796.503</ele>
        <time>2021-07-18T10:15:23Z</time>
      </trkpt>
      <trkpt lat="37.22623" lon="-2.41227">
        <ele>1793.818</ele>
        <time>2021-07-18T10:15:34Z</time>
      </trkpt>
      <trkpt lat="37.22574" lon="-2.41137">
        <ele>1789.639</ele>
        <time>2021-07-18T10:15:45Z</time>
      </trkpt>
      <trkpt lat="37.22573" lon="-2.41029">
        <ele>1783.25</ele>
        <time>2021-07-18T10:15:56Z</time>
      </trkpt>
      <trkpt lat="37.22601" lon="-2.4087">
        <ele>1753.061</ele>
        <time>2021-07-18T10:16:07Z</time>
      </trkpt>
      <trkpt lat="37.22557" lon="-2.40726">
        <ele>1691.982</ele>
        <time>2021-07-18T10:16:18Z</time>
      </trkpt>
      <trkpt lat="37.22449" lon="-2.40569">
        <ele>1779.772</ele>
        <time>2021-07-18T10:16:29Z</time>
      </trkpt>
      <trkpt lat="37.22372" lon="-2.40438">
        <ele>1776.577</ele>
        <time>2021-07-18T10:16:40Z</time>
      </trkpt>
      <trkpt lat="37.22384" lon="-2.40266">
        <ele>1773.979</ele>
        <time>2021-07-18T10:16:51Z</time>
      </trkpt>
      <trkpt lat="37.22353" lon="-2.40036">
        <ele>1771.474</ele>
        <time>2021-07-18T10:17:02Z</time>
      </trkpt>
      <trkpt lat="37.22265" lon="-2.39947">
        <ele>1768.696</ele>
        <time>2021-07-18T10:17:13Z</time>
      </trkpt>
      <trkpt lat="37.22292" lon="-2.39761">
        <ele>1765.038</ele>
        <time>2021-07-18T10:17:24Z</time>
      </trkpt>
      <trkpt lat="37.22295" lon="-2.39604">
        <ele>1760.999</ele>
        <time>2021-07-18T10:17:35Z</time>
      </trkpt>
      <trkpt lat="37.22202" lon="-2.39498">
        <ele>1754.778</ele>
        <time>2021-07-18T10:17:46Z</time>
      </trkpt>
      <trkpt lat="37.22243" lon="-2.39285">
        <ele>1750.142</ele>
        <time>2021-07-18T10:17:57Z</time>
      </trkpt>
      <trkpt lat="37.2222" lon="-2.39109">
        <ele>1742.514</ele>
        <time>2021-07-18T10:18:08Z</time>
      </trkpt>
      <trkpt lat="37.22252" lon="-2.38954">
        <ele>1738.881</ele>
        <time>2021-07-18T10:18:19Z</time>
      </trkpt>
      <trkpt lat="37.22226" lon="-2.38764">
        <ele>1734.569</ele>
        <time>2021-07-18T10:18:30Z</time>
      </trkpt>
      <trkpt lat="37.22284" lon="-2.38652">
        <ele>1734.086</ele>
        <time>2021-07-18T10:18:41Z</time>
      </trkpt>
      <trkpt lat="37.22287" lon="-2.38649">
        <ele>1736.632</ele>
        <time>2021-07-18T10:18:53Z</time>
      </trkpt>
      <trkpt lat="37.22287" lon="-2.38651">
        <ele>1738.469</ele>
        <time>2021-07-18T10:19:53Z</time>
      </trkpt>
      <trkpt lat="37.22286" lon="-2.38652">
        <ele>1739.398</ele>
        <time>2021-07-18T10:20:53Z</time>
      </trkpt>
      <trkpt lat="37.22284" lon="-2.38653">
        <ele>1734.312</ele>
        <time>2021-07-18T10:21:53Z</time>
      </trkpt>
      <trkpt lat="37.22287" lon="-2.38651">
        <ele>1735.949</ele>
        <time>2021-07-18T10:22:12Z</time>
      </trkpt>
      <trkpt lat="37.22289" lon="-2.38655">
        <ele>1736.887</ele>
        <time>2021-07-18T10:22:53Z</time>
      </trkpt>
      <trkpt lat="37.22289" lon="-2.38653">
        <ele>1738.307</ele>
        <time>2021-07-18T10:23:53Z</time>
      </trkpt>
      <trkpt lat="37.2229" lon="-2.38654">
        <ele>1738.53</ele>
        <time>2021-07-18T10:24:52Z</time>
      </trkpt>
      <trkpt lat="37.22286" lon="-2.38655">
        <ele>1740.048</ele>
        <time>2021-07-18T10:25:25Z</time>
      </trkpt>
      <trkpt lat="37.22284" lon="-2.38648">
        <ele>1731.997</ele>
        <time>2021-07-18T10:26:03Z</time>
      </trkpt>
      <trkpt lat="37.22288" lon="-2.38649">
        <ele>1733.284</ele>
        <time>2021-07-18T10:26:46Z</time>
      </trkpt>
      <trkpt lat="37.22287" lon="-2.38654">
        <ele>1733.715</ele>
        <time>2021-07-18T10:26:57Z</time>
      </trkpt>
      <trkpt lat="37.22291" lon="-2.38656">
        <ele>1732.022</ele>
        <time>2021-07-18T10:27:30Z</time>
      </trkpt>
      <trkpt lat="37.2229" lon="-2.38656">
        <ele>1733.508</ele>
        <time>2021-07-18T10:28:29Z</time>
      </trkpt>
      <trkpt lat="37.22289" lon="-2.38655">
        <ele>1732.095</ele>
        <time>2021-07-18T10:29:28Z</time>
      </trkpt>
      <trkpt lat="37.22289" lon="-2.38652">
        <ele>1731.978</ele>
        <time>2021-07-18T10:30:27Z</time>
      </trkpt>
      <trkpt lat="37.22286" lon="-2.38649">
        <ele>1731.606</ele>
        <time>2021-07-18T10:30:44Z</time>
      </trkpt>
      <trkpt lat="37.22285" lon="-2.38644">
        <ele>1733.598</ele>
        <time>2021-07-18T10:31:03Z</time>
      </trkpt>
      <trkpt lat="37.22287" lon="-2.3865">
        <ele>1733.439</ele>
        <time>2021-07-18T10:31:29Z</time>
      </trkpt>
      <trkpt lat="37.2229" lon="-2.38654">
        <ele>1735.587</ele>
        <time>2021-07-18T10:32:23Z</time>
      </trkpt>
      <trkpt lat="37.22288" lon="-2.38656">
        <ele>1734.511</ele>
        <time>2021-07-18T10:33:22Z</time>
      </trkpt>
      <trkpt lat="37.22291" lon="-2.38651">
        <ele>1732.73</ele>
        <time>2021-07-18T10:34:08Z</time>
      </trkpt>
      <trkpt lat="37.22327" lon="-2.38531">
        <ele>1729.135</ele>
        <time>2021-07-18T10:34:19Z</time>
      </trkpt>
      <trkpt lat="37.22268" lon="-2.3842">
        <ele>1724.227</ele>
        <time>2021-07-18T10:34:30Z</time>
      </trkpt>
      <trkpt lat="37.22347" lon="-2.38234">
        <ele>1719.066</ele>
        <time>2021-07-18T10:34:41Z</time>
      </trkpt>
      <trkpt lat="37.22343" lon="-2.38052">
        <ele>1710.838</ele>
        <time>2021-07-18T10:34:52Z</time>
      </trkpt>
      <trkpt lat="37.22392" lon="-2.37875">
        <ele>1718.049</ele>
        <time>2021-07-18T10:35:03Z</time>
      </trkpt>
      <trkpt lat="37.22384" lon="-2.37723">
        <ele>1716.182</ele>
        <time>2021-07-18T10:35:14Z</time>
      </trkpt>
      <trkpt lat="37.22431" lon="-2.37558">
        <ele>1716.449</ele>
        <time>2021-07-18T10:35:25Z</time>
      </trkpt>
      <trkpt lat="37.22414" lon="-2.37381">
        <ele>1716.159</ele>
        <time>2021-07-18T10:35:36Z</time>
      </trkpt>
      <trkpt lat="37.22424" lon="-2.37318">
        <ele>1713.346</ele>
        <time>2021-07-18T10:35:47Z</time>
      </trkpt>
      <trkpt lat="37.22582" lon="-2.37344">
        <ele>1708.128</ele>
        <time>2021-07-18T10:35:58Z</time>
      </trkpt>
      <trkpt lat="37.22665" lon="-2.37393">
        <ele>1701.737</ele>
        <time>2021-07-18T10:36:09Z</time>
      </trkpt>
      <trkpt lat="37.22681" lon="-2.37391">
        <ele>1703.406</ele>
        <time>2021-07-18T10:36:20Z</time>
      </trkpt>
      <trkpt lat="37.22687" lon="-2.37397">
        <ele>1706.389</ele>
        <time>2021-07-18T10:36:31Z</time>
      </trkpt>
      <trkpt lat="37.22656" lon="-2.37401">
        <ele>1710.529</ele>
        <time>2021-07-18T10:36:42Z</time>
      </trkpt>
      <trkpt lat="37.22603" lon="-2.37382">
        <ele>1704.676</ele>
        <time>2021-07-18T10:36:53Z</time>
      </trkpt>
      <trkpt lat="37.226" lon="-2.37379">
        <ele>1704.433</ele>
        <time>2021-07-18T10:37:06Z</time>
      </trkpt>
      <trkpt lat="37.22582" lon="-2.37343">
        <ele>1704.987</ele>
        <time>2021-07-18T10:37:17Z</time>
      </trkpt>
      <trkpt lat="37.22485" lon="-2.37304">
        <ele>1702.239</ele>
        <time>2021-07-18T10:37:28Z</time>
      </trkpt>
      <trkpt lat="37.22446" lon="-2.37407">
        <ele>1709.175</ele>
        <time>2021-07-18T10:37:39Z</time>
      </trkpt>
      <trkpt lat="37.22432" lon="-2.3754">
        <ele>1711.598</ele>
        <time>2021-07-18T10:37:50Z</time>
      </trkpt>
      <trkpt lat="37.22402" lon="-2.3748">
        <ele>1716.262</ele>
        <time>2021-07-18T10:38:01Z</time>
      </trkpt>
      <trkpt lat="37.22418" lon="-2.37372">
        <ele>1724.798</ele>
        <time>2021-07-18T10:38:12Z</time>
      </trkpt>
      <trkpt lat="37.22361" lon="-2.37249">
        <ele>1732.228</ele>
        <time>2021-07-18T10:38:23Z</time>
      </trkpt>
      <trkpt lat="37.22375" lon="-2.37099">
        <ele>1742.299</ele>
        <time>2021-07-18T10:38:34Z</time>
      </trkpt>
      <trkpt lat="37.22406" lon="-2.36927">
        <ele>1735.922</ele>
        <time>2021-07-18T10:38:45Z</time>
      </trkpt>
      <trkpt lat="37.22445" lon="-2.36768">
        <ele>1725.753</ele>
        <time>2021-07-18T10:38:56Z</time>
      </trkpt>
      <trkpt lat="37.22442" lon="-2.36588">
        <ele>1719.011</ele>
        <time>2021-07-18T10:39:07Z</time>
      </trkpt>
      <trkpt lat="37.22482" lon="-2.36463">
        <ele>1709.706</ele>
        <time>2021-07-18T10:39:18Z</time>
      </trkpt>
      <trkpt lat="37.22434" lon="-2.36347">
        <ele>1708.366</ele>
        <time>2021-07-18T10:39:29Z</time>
      </trkpt>
      <trkpt lat="37.22381" lon="-2.36169">
        <ele>1701.676</ele>
        <time>2021-07-18T10:39:40Z</time>
      </trkpt>
      <trkpt lat="37.22385" lon="-2.35979">
        <ele>1687.786</ele>
        <time>2021-07-18T10:39:51Z</time>
      </trkpt>
      <trkpt lat="37.22436" lon="-2.35874">
        <ele>1676.565</ele>
        <time>2021-07-18T10:40:02Z</time>
      </trkpt>
      <trkpt lat="37.22573" lon="-2.35843">
        <ele>1673.109</ele>
        <time>2021-07-18T10:40:13Z</time>
      </trkpt>
      <trkpt lat="37.22725" lon="-2.3576">
        <ele>1656.988</ele>
        <time>2021-07-18T10:40:24Z</time>
      </trkpt>
      <trkpt lat="37.22852" lon="-2.35684">
        <ele>1647.229</ele>
        <time>2021-07-18T10:40:35Z</time>
      </trkpt>
      <trkpt lat="37.22894" lon="-2.3554">
        <ele>1633.319</ele>
        <time>2021-07-18T10:40:46Z</time>
      </trkpt>
      <trkpt lat="37.23006" lon="-2.3548">
        <ele>1636.165</ele>
        <time>2021-07-18T10:40:57Z</time>
      </trkpt>
      <trkpt lat="37.23013" lon="-2.3543">
        <ele>1648.95</ele>
        <time>2021-07-18T10:41:08Z</time>
      </trkpt>
      <trkpt lat="37.2291" lon="-2.3546">
        <ele>1652.82</ele>
        <time>2021-07-18T10:41:19Z</time>
      </trkpt>
      <trkpt lat="37.22808" lon="-2.35519">
        <ele>1642.493</ele>
        <time>2021-07-18T10:41:30Z</time>
      </trkpt>
      <trkpt lat="37.22715" lon="-2.35542">
        <ele>1617.806</ele>
        <time>2021-07-18T10:41:41Z</time>
      </trkpt>
      <trkpt lat="37.22584" lon="-2.35514">
        <ele>1606.424</ele>
        <time>2021-07-18T10:41:52Z</time>
      </trkpt>
      <trkpt lat="37.22464" lon="-2.35446">
        <ele>1588.771</ele>
        <time>2021-07-18T10:42:03Z</time>
      </trkpt>
      <trkpt lat="37.22385" lon="-2.35316">
        <ele>1569.239</ele>
        <time>2021-07-18T10:42:14Z</time>
      </trkpt>
      <trkpt lat="37.22308" lon="-2.35139">
        <ele>1578.013</ele>
        <time>2021-07-18T10:42:25Z</time>
      </trkpt>
      <trkpt lat="37.2219" lon="-2.35083">
        <ele>1566.004</ele>
        <time>2021-07-18T10:42:36Z</time>
      </trkpt>
      <trkpt lat="37.22102" lon="-2.34978">
        <ele>1557.954</ele>
        <time>2021-07-18T10:42:47Z</time>
      </trkpt>
      <trkpt lat="37.22049" lon="-2.34832">
        <ele>1541.839</ele>
        <time>2021-07-18T10:42:58Z</time>
      </trkpt>
      <trkpt lat="37.22039" lon="-2.34801">
        <ele>1540.458</ele>
        <time>2021-07-18T10:43:09Z</time>
      </trkpt>
      <trkpt lat="37.22041" lon="-2.34807">
        <ele>1564.424</ele>
        <time>2021-07-18T10:43:27Z</time>
      </trkpt>
      <trkpt lat="37.22006" lon="-2.34919">
        <ele>1558.693</ele>
        <time>2021-07-18T10:43:38Z</time>
      </trkpt>
      <trkpt lat="37.21965" lon="-2.35027">
        <ele>1558.318</ele>
        <time>2021-07-18T10:43:49Z</time>
      </trkpt>
      <trkpt lat="37.21968" lon="-2.35093">
        <ele>1582.419</ele>
        <time>2021-07-18T10:44:00Z</time>
      </trkpt>
      <trkpt lat="37.21999" lon="-2.35138">
        <ele>1601.131</ele>
        <time>2021-07-18T10:44:11Z</time>
      </trkpt>
      <trkpt lat="37.22004" lon="-2.35145">
        <ele>1608.389</ele>
        <time>2021-07-18T10:44:28Z</time>
      </trkpt>
      <trkpt lat="37.22085" lon="-2.35232">
        <ele>1605.283</ele>
        <time>2021-07-18T10:44:39Z</time>
      </trkpt>
      <trkpt lat="37.22112" lon="-2.35291">
        <ele>1598.944</ele>
        <time>2021-07-18T10:44:50Z</time>
      </trkpt>
      <trkpt lat="37.22112" lon="-2.35296">
        <ele>1614.539</ele>
        <time>2021-07-18T10:45:11Z</time>
      </trkpt>
      <trkpt lat="37.2211" lon="-2.35331">
        <ele>1612.963</ele>
        <time>2021-07-18T10:45:22Z</time>
      </trkpt>
      <trkpt lat="37.22107" lon="-2.35336">
        <ele>1609.807</ele>
        <time>2021-07-18T10:45:33Z</time>
      </trkpt>
      <trkpt lat="37.22103" lon="-2.35345">
        <ele>1610.002</ele>
        <time>2021-07-18T10:46:04Z</time>
      </trkpt>
      <trkpt lat="37.22079" lon="-2.35401">
        <ele>1604.977</ele>
        <time>2021-07-18T10:46:15Z</time>
      </trkpt>
      <trkpt lat="37.22067" lon="-2.35455">
        <ele>1593.349</ele>
        <time>2021-07-18T10:46:26Z</time>
      </trkpt>
      <trkpt lat="37.2206" lon="-2.35534">
        <ele>1577.415</ele>
        <time>2021-07-18T10:46:37Z</time>
      </trkpt>
      <trkpt lat="37.22022" lon="-2.35582">
        <ele>1565.307</ele>
        <time>2021-07-18T10:46:48Z</time>
      </trkpt>
      <trkpt lat="37.22008" lon="-2.35638">
        <ele>1556.666</ele>
        <time>2021-07-18T10:46:59Z</time>
      </trkpt>
      <trkpt lat="37.22007" lon="-2.35687">
        <ele>1547.749</ele>
        <time>2021-07-18T10:47:10Z</time>
      </trkpt>
      <trkpt lat="37.21999" lon="-2.35739">
        <ele>1537.577</ele>
        <time>2021-07-18T10:47:21Z</time>
      </trkpt>
      <trkpt lat="37.21986" lon="-2.35781">
        <ele>1526.704</ele>
        <time>2021-07-18T10:47:32Z</time>
      </trkpt>
      <trkpt lat="37.2198" lon="-2.35835">
        <ele>1515.838</ele>
        <time>2021-07-18T10:47:43Z</time>
      </trkpt>
      <trkpt lat="37.21972" lon="-2.35891">
        <ele>1506.846</ele>
        <time>2021-07-18T10:47:54Z</time>
      </trkpt>
      <trkpt lat="37.21967" lon="-2.35923">
        <ele>1502.801</ele>
        <time>2021-07-18T10:48:05Z</time>
      </trkpt>
      <trkpt lat="37.21968" lon="-2.35981">
        <ele>1492.444</ele>
        <time>2021-07-18T10:48:16Z</time>
      </trkpt>
      <trkpt lat="37.21972" lon="-2.36052">
        <ele>1481.107</ele>
        <time>2021-07-18T10:48:27Z</time>
      </trkpt>
      <trkpt lat="37.21934" lon="-2.36126">
        <ele>1472.403</ele>
        <time>2021-07-18T10:48:38Z</time>
      </trkpt>
      <trkpt lat="37.21885" lon="-2.36169">
        <ele>1479.435</ele>
        <time>2021-07-18T10:48:49Z</time>
      </trkpt>
      <trkpt lat="37.21834" lon="-2.36192">
        <ele>1471.858</ele>
        <time>2021-07-18T10:49:00Z</time>
      </trkpt>
      <trkpt lat="37.21758" lon="-2.36193">
        <ele>1474.856</ele>
        <time>2021-07-18T10:49:11Z</time>
      </trkpt>
      <trkpt lat="37.21688" lon="-2.36252">
        <ele>1465.975</ele>
        <time>2021-07-18T10:49:22Z</time>
      </trkpt>
      <trkpt lat="37.21594" lon="-2.36231">
        <ele>1445.231</ele>
        <time>2021-07-18T10:49:33Z</time>
      </trkpt>
      <trkpt lat="37.21524" lon="-2.36223">
        <ele>1442.513</ele>
        <time>2021-07-18T10:49:44Z</time>
      </trkpt>
      <trkpt lat="37.21461" lon="-2.36273">
        <ele>1419.458</ele>
        <time>2021-07-18T10:49:55Z</time>
      </trkpt>
      <trkpt lat="37.21382" lon="-2.36372">
        <ele>1424.763</ele>
        <time>2021-07-18T10:50:06Z</time>
      </trkpt>
      <trkpt lat="37.21327" lon="-2.36421">
        <ele>1421.522</ele>
        <time>2021-07-18T10:50:17Z</time>
      </trkpt>
      <trkpt lat="37.21221" lon="-2.36354">
        <ele>1410.548</ele>
        <time>2021-07-18T10:50:28Z</time>
      </trkpt>
      <trkpt lat="37.21093" lon="-2.36321">
        <ele>1399.305</ele>
        <time>2021-07-18T10:50:39Z</time>
      </trkpt>
      <trkpt lat="37.21021" lon="-2.3629">
        <ele>1387.98</ele>
        <time>2021-07-18T10:50:50Z</time>
      </trkpt>
      <trkpt lat="37.21119" lon="-2.36257">
        <ele>1377.807</ele>
        <time>2021-07-18T10:51:01Z</time>
      </trkpt>
      <trkpt lat="37.21237" lon="-2.36224">
        <ele>1363.598</ele>
        <time>2021-07-18T10:51:12Z</time>
      </trkpt>
      <trkpt lat="37.21294" lon="-2.3621">
        <ele>1359.818</ele>
        <time>2021-07-18T10:51:23Z</time>
      </trkpt>
      <trkpt lat="37.21215" lon="-2.36177">
        <ele>1341.258</ele>
        <time>2021-07-18T10:51:34Z</time>
      </trkpt>
      <trkpt lat="37.21141" lon="-2.36137">
        <ele>1336.148</ele>
        <time>2021-07-18T10:51:45Z</time>
      </trkpt>
      <trkpt lat="37.21039" lon="-2.36118">
        <ele>1332.752</ele>
        <time>2021-07-18T10:51:56Z</time>
      </trkpt>
      <trkpt lat="37.20978" lon="-2.36082">
        <ele>1324.041</ele>
        <time>2021-07-18T10:52:07Z</time>
      </trkpt>
      <trkpt lat="37.21103" lon="-2.36071">
        <ele>1313.173</ele>
        <time>2021-07-18T10:52:18Z</time>
      </trkpt>
      <trkpt lat="37.21148" lon="-2.3601">
        <ele>1303.669</ele>
        <time>2021-07-18T10:52:29Z</time>
      </trkpt>
      <trkpt lat="37.21082" lon="-2.36006">
        <ele>1292.756</ele>
        <time>2021-07-18T10:52:40Z</time>
      </trkpt>
      <trkpt lat="37.20991" lon="-2.35988">
        <ele>1285.713</ele>
        <time>2021-07-18T10:52:51Z</time>
      </trkpt>
      <trkpt lat="37.20944" lon="-2.36002">
        <ele>1287.278</ele>
        <time>2021-07-18T10:53:02Z</time>
      </trkpt>
      <trkpt lat="37.20926" lon="-2.36">
        <ele>1311.912</ele>
        <time>2021-07-18T10:53:13Z</time>
      </trkpt>
      <trkpt lat="37.20869" lon="-2.35983">
        <ele>1318.456</ele>
        <time>2021-07-18T10:53:24Z</time>
      </trkpt>
      <trkpt lat="37.20878" lon="-2.35993">
        <ele>1273.411</ele>
        <time>2021-07-18T10:53:35Z</time>
      </trkpt>
      <trkpt lat="37.2088" lon="-2.35994">
        <ele>1274.383</ele>
        <time>2021-07-18T10:54:35Z</time>
      </trkpt>
      <trkpt lat="37.2088" lon="-2.35995">
        <ele>1274.759</ele>
        <time>2021-07-18T10:55:35Z</time>
      </trkpt>
      <trkpt lat="37.20864" lon="-2.35981">
        <ele>1272.783</ele>
        <time>2021-07-18T10:55:46Z</time>
      </trkpt>
      <trkpt lat="37.20829" lon="-2.35943">
        <ele>1259.829</ele>
        <time>2021-07-18T10:55:57Z</time>
      </trkpt>
      <trkpt lat="37.20898" lon="-2.35907">
        <ele>1245.349</ele>
        <time>2021-07-18T10:56:08Z</time>
      </trkpt>
      <trkpt lat="37.20973" lon="-2.3589">
        <ele>1243.046</ele>
        <time>2021-07-18T10:56:19Z</time>
      </trkpt>
      <trkpt lat="37.20938" lon="-2.35856">
        <ele>1232.72</ele>
        <time>2021-07-18T10:56:30Z</time>
      </trkpt>
      <trkpt lat="37.20866" lon="-2.35865">
        <ele>1220.83</ele>
        <time>2021-07-18T10:56:41Z</time>
      </trkpt>
      <trkpt lat="37.20798" lon="-2.35818">
        <ele>1205.381</ele>
        <time>2021-07-18T10:56:52Z</time>
      </trkpt>
      <trkpt lat="37.20708" lon="-2.35805">
        <ele>1198.855</ele>
        <time>2021-07-18T10:57:03Z</time>
      </trkpt>
      <trkpt lat="37.20626" lon="-2.35748">
        <ele>1189.363</ele>
        <time>2021-07-18T10:57:14Z</time>
      </trkpt>
      <trkpt lat="37.20571" lon="-2.35738">
        <ele>1183.583</ele>
        <time>2021-07-18T10:57:25Z</time>
      </trkpt>
      <trkpt lat="37.20578" lon="-2.35805">
        <ele>1175.248</ele>
        <time>2021-07-18T10:57:36Z</time>
      </trkpt>
      <trkpt lat="37.20583" lon="-2.35838">
        <ele>1169.45</ele>
        <time>2021-07-18T10:57:47Z</time>
      </trkpt>
      <trkpt lat="37.20579" lon="-2.35834">
        <ele>1168.343</ele>
        <time>2021-07-18T10:57:59Z</time>
      </trkpt>
      <trkpt lat="37.20525" lon="-2.35762">
        <ele>1162.209</ele>
        <time>2021-07-18T10:58:10Z</time>
      </trkpt>
      <trkpt lat="37.2046" lon="-2.35663">
        <ele>1148.942</ele>
        <time>2021-07-18T10:58:21Z</time>
      </trkpt>
      <trkpt lat="37.20415" lon="-2.35517">
        <ele>1132.28</ele>
        <time>2021-07-18T10:58:32Z</time>
      </trkpt>
      <trkpt lat="37.20348" lon="-2.35381">
        <ele>1109.323</ele>
        <time>2021-07-18T10:58:43Z</time>
      </trkpt>
      <trkpt lat="37.20261" lon="-2.3526">
        <ele>1102.123</ele>
        <time>2021-07-18T10:58:54Z</time>
      </trkpt>
      <trkpt lat="37.20147" lon="-2.35224">
        <ele>1108.102</ele>
        <time>2021-07-18T10:59:05Z</time>
      </trkpt>
      <trkpt lat="37.20015" lon="-2.35187">
        <ele>1083.34</ele>
        <time>2021-07-18T10:59:16Z</time>
      </trkpt>
      <trkpt lat="37.19885" lon="-2.35067">
        <ele>1089.555</ele>
        <time>2021-07-18T10:59:27Z</time>
      </trkpt>
      <trkpt lat="37.19793" lon="-2.34956">
        <ele>1083.267</ele>
        <time>2021-07-18T10:59:38Z</time>
      </trkpt>
      <trkpt lat="37.19707" lon="-2.34956">
        <ele>1083.877</ele>
        <time>2021-07-18T10:59:49Z</time>
      </trkpt>
      <trkpt lat="37.19615" lon="-2.34906">
        <ele>1078.415</ele>
        <time>2021-07-18T11:00:00Z</time>
      </trkpt>
      <trkpt lat="37.1958" lon="-2.34784">
        <ele>1069.032</ele>
        <time>2021-07-18T11:00:11Z</time>
      </trkpt>
      <trkpt lat="37.1957" lon="-2.34768">
        <ele>1064.504</ele>
        <time>2021-07-18T11:00:22Z</time>
      </trkpt>
      <trkpt lat="37.19542" lon="-2.34866">
        <ele>1055.493</ele>
        <time>2021-07-18T11:00:33Z</time>
      </trkpt>
      <trkpt lat="37.19561" lon="-2.34961">
        <ele>1047.797</ele>
        <time>2021-07-18T11:00:44Z</time>
      </trkpt>
      <trkpt lat="37.19621" lon="-2.35032">
        <ele>1037.007</ele>
        <time>2021-07-18T11:00:55Z</time>
      </trkpt>
      <trkpt lat="37.1972" lon="-2.35107">
        <ele>1025.295</ele>
        <time>2021-07-18T11:01:06Z</time>
      </trkpt>
      <trkpt lat="37.1981" lon="-2.35189">
        <ele>1017.983</ele>
        <time>2021-07-18T11:01:17Z</time>
      </trkpt>
      <trkpt lat="37.1989" lon="-2.35292">
        <ele>1012.539</ele>
        <time>2021-07-18T11:01:28Z</time>
      </trkpt>
      <trkpt lat="37.19979" lon="-2.3538">
        <ele>1002.78</ele>
        <time>2021-07-18T11:01:39Z</time>
      </trkpt>
      <trkpt lat="37.20065" lon="-2.35438">
        <ele>1000.086</ele>
        <time>2021-07-18T11:01:50Z</time>
      </trkpt>
      <trkpt lat="37.20035" lon="-2.35486">
        <ele>1002.907</ele>
        <time>2021-07-18T11:02:01Z</time>
      </trkpt>
      <trkpt lat="37.19945" lon="-2.35519">
        <ele>981.1822</ele>
        <time>2021-07-18T11:02:12Z</time>
      </trkpt>
      <trkpt lat="37.1986" lon="-2.35578">
        <ele>962.6717</ele>
        <time>2021-07-18T11:02:23Z</time>
      </trkpt>
      <trkpt lat="37.19801" lon="-2.35579">
        <ele>971.2014</ele>
        <time>2021-07-18T11:02:34Z</time>
      </trkpt>
      <trkpt lat="37.198" lon="-2.35703">
        <ele>966.7433</ele>
        <time>2021-07-18T11:02:45Z</time>
      </trkpt>
      <trkpt lat="37.19798" lon="-2.35822">
        <ele>964.5954</ele>
        <time>2021-07-18T11:02:56Z</time>
      </trkpt>
      <trkpt lat="37.19745" lon="-2.35778">
        <ele>971.6913</ele>
        <time>2021-07-18T11:03:07Z</time>
      </trkpt>
      <trkpt lat="37.19687" lon="-2.35674">
        <ele>965.7103</ele>
        <time>2021-07-18T11:03:18Z</time>
      </trkpt>
      <trkpt lat="37.19616" lon="-2.35662">
        <ele>947.418</ele>
        <time>2021-07-18T11:03:29Z</time>
      </trkpt>
      <trkpt lat="37.19564" lon="-2.35788">
        <ele>915.0527</ele>
        <time>2021-07-18T11:03:40Z</time>
      </trkpt>
      <trkpt lat="37.19526" lon="-2.35911">
        <ele>942.2167</ele>
        <time>2021-07-18T11:03:51Z</time>
      </trkpt>
      <trkpt lat="37.19497" lon="-2.35844">
        <ele>935.2551</ele>
        <time>2021-07-18T11:04:02Z</time>
      </trkpt>
      <trkpt lat="37.19442" lon="-2.35719">
        <ele>922.4595</ele>
        <time>2021-07-18T11:04:13Z</time>
      </trkpt>
      <trkpt lat="37.19403" lon="-2.35616">
        <ele>915.4322</ele>
        <time>2021-07-18T11:04:24Z</time>
      </trkpt>
      <trkpt lat="37.19332" lon="-2.35556">
        <ele>919.6075</ele>
        <time>2021-07-18T11:04:35Z</time>
      </trkpt>
      <trkpt lat="37.19273" lon="-2.35468">
        <ele>914.7341</ele>
        <time>2021-07-18T11:04:46Z</time>
      </trkpt>
      <trkpt lat="37.19171" lon="-2.35485">
        <ele>915.8802</ele>
        <time>2021-07-18T11:04:57Z</time>
      </trkpt>
      <trkpt lat="37.19088" lon="-2.35479">
        <ele>913.0361</ele>
        <time>2021-07-18T11:05:08Z</time>
      </trkpt>
      <trkpt lat="37.18978" lon="-2.35484">
        <ele>904.5236</ele>
        <time>2021-07-18T11:05:19Z</time>
      </trkpt>
      <trkpt lat="37.18846" lon="-2.35497">
        <ele>893.5235</ele>
        <time>2021-07-18T11:05:30Z</time>
      </trkpt>
      <trkpt lat="37.18783" lon="-2.35527">
        <ele>887.289</ele>
        <time>2021-07-18T11:05:41Z</time>
      </trkpt>
      <trkpt lat="37.18785" lon="-2.35686">
        <ele>882.9197</ele>
        <time>2021-07-18T11:05:52Z</time>
      </trkpt>
      <trkpt lat="37.18801" lon="-2.35844">
        <ele>888.59</ele>
        <time>2021-07-18T11:06:03Z</time>
      </trkpt>
      <trkpt lat="37.18822" lon="-2.35986">
        <ele>900.5764</ele>
        <time>2021-07-18T11:06:14Z</time>
      </trkpt>
      <trkpt lat="37.18768" lon="-2.36063">
        <ele>900.1576</ele>
        <time>2021-07-18T11:06:25Z</time>
      </trkpt>
      <trkpt lat="37.18738" lon="-2.36236">
        <ele>891.5481</ele>
        <time>2021-07-18T11:06:36Z</time>
      </trkpt>
      <trkpt lat="37.18759" lon="-2.36332">
        <ele>898.8017</ele>
        <time>2021-07-18T11:06:47Z</time>
      </trkpt>
      <trkpt lat="37.1887" lon="-2.36356">
        <ele>906.3455</ele>
        <time>2021-07-18T11:06:58Z</time>
      </trkpt>
      <trkpt lat="37.18911" lon="-2.36473">
        <ele>909.7806</ele>
        <time>2021-07-18T11:07:09Z</time>
      </trkpt>
      <trkpt lat="37.18978" lon="-2.36605">
        <ele>914.341</ele>
        <time>2021-07-18T11:07:20Z</time>
      </trkpt>
      <trkpt lat="37.19059" lon="-2.36685">
        <ele>912.7493</ele>
        <time>2021-07-18T11:07:31Z</time>
      </trkpt>
      <trkpt lat="37.19047" lon="-2.36752">
        <ele>910.9012</ele>
        <time>2021-07-18T11:07:42Z</time>
      </trkpt>
      <trkpt lat="37.18975" lon="-2.36808">
        <ele>916.1635</ele>
        <time>2021-07-18T11:07:53Z</time>
      </trkpt>
      <trkpt lat="37.18902" lon="-2.36834">
        <ele>911.9589</ele>
        <time>2021-07-18T11:08:04Z</time>
      </trkpt>
      <trkpt lat="37.18875" lon="-2.36969">
        <ele>907.3341</ele>
        <time>2021-07-18T11:08:15Z</time>
      </trkpt>
      <trkpt lat="37.18822" lon="-2.37047">
        <ele>902.3892</ele>
        <time>2021-07-18T11:08:26Z</time>
      </trkpt>
      <trkpt lat="37.18805" lon="-2.37159">
        <ele>896.7341</ele>
        <time>2021-07-18T11:08:37Z</time>
      </trkpt>
      <trkpt lat="37.18802" lon="-2.37221">
        <ele>897.8248</ele>
        <time>2021-07-18T11:08:48Z</time>
      </trkpt>
      <trkpt lat="37.1873" lon="-2.37212">
        <ele>903.7993</ele>
        <time>2021-07-18T11:08:59Z</time>
      </trkpt>
      <trkpt lat="37.18606" lon="-2.37201">
        <ele>902.2887</ele>
        <time>2021-07-18T11:09:10Z</time>
      </trkpt>
      <trkpt lat="37.18589" lon="-2.37298">
        <ele>903.8876</ele>
        <time>2021-07-18T11:09:21Z</time>
      </trkpt>
      <trkpt lat="37.18609" lon="-2.37455">
        <ele>904.8081</ele>
        <time>2021-07-18T11:09:32Z</time>
      </trkpt>
      <trkpt lat="37.18563" lon="-2.3751">
        <ele>907.9604</ele>
        <time>2021-07-18T11:09:43Z</time>
      </trkpt>
      <trkpt lat="37.18492" lon="-2.37393">
        <ele>910.2742</ele>
        <time>2021-07-18T11:09:54Z</time>
      </trkpt>
      <trkpt lat="37.18425" lon="-2.37399">
        <ele>916.3346</ele>
        <time>2021-07-18T11:10:05Z</time>
      </trkpt>
      <trkpt lat="37.18467" lon="-2.37527">
        <ele>921.397</ele>
        <time>2021-07-18T11:10:16Z</time>
      </trkpt>
      <trkpt lat="37.18511" lon="-2.37683">
        <ele>934.0787</ele>
        <time>2021-07-18T11:10:27Z</time>
      </trkpt>
      <trkpt lat="37.18545" lon="-2.37812">
        <ele>939.3485</ele>
        <time>2021-07-18T11:10:38Z</time>
      </trkpt>
      <trkpt lat="37.18538" lon="-2.379">
        <ele>944.1584</ele>
        <time>2021-07-18T11:10:49Z</time>
      </trkpt>
      <trkpt lat="37.18507" lon="-2.37971">
        <ele>945.0493</ele>
        <time>2021-07-18T11:11:00Z</time>
      </trkpt>
      <trkpt lat="37.18434" lon="-2.38014">
        <ele>945.5209</ele>
        <time>2021-07-18T11:11:11Z</time>
      </trkpt>
      <trkpt lat="37.18414" lon="-2.38152">
        <ele>940.7978</ele>
        <time>2021-07-18T11:11:22Z</time>
      </trkpt>
      <trkpt lat="37.1845" lon="-2.38289">
        <ele>941.7673</ele>
        <time>2021-07-18T11:11:33Z</time>
      </trkpt>
      <trkpt lat="37.18492" lon="-2.38359">
        <ele>946.063</ele>
        <time>2021-07-18T11:11:44Z</time>
      </trkpt>
      <trkpt lat="37.18441" lon="-2.38416">
        <ele>963.442</ele>
        <time>2021-07-18T11:11:55Z</time>
      </trkpt>
      <trkpt lat="37.1837" lon="-2.3848">
        <ele>970.6514</ele>
        <time>2021-07-18T11:12:06Z</time>
      </trkpt>
      <trkpt lat="37.18348" lon="-2.3852">
        <ele>975.7765</ele>
        <time>2021-07-18T11:12:17Z</time>
      </trkpt>
      <trkpt lat="37.18318" lon="-2.38471">
        <ele>979.2036</ele>
        <time>2021-07-18T11:12:28Z</time>
      </trkpt>
      <trkpt lat="37.18267" lon="-2.38387">
        <ele>979.6001</ele>
        <time>2021-07-18T11:12:39Z</time>
      </trkpt>
      <trkpt lat="37.1814" lon="-2.38388">
        <ele>988.4019</ele>
        <time>2021-07-18T11:12:50Z</time>
      </trkpt>
      <trkpt lat="37.18034" lon="-2.38365">
        <ele>986.8474</ele>
        <time>2021-07-18T11:13:01Z</time>
      </trkpt>
      <trkpt lat="37.18011" lon="-2.38481">
        <ele>993.4538</ele>
        <time>2021-07-18T11:13:12Z</time>
      </trkpt>
      <trkpt lat="37.17935" lon="-2.38579">
        <ele>1009.276</ele>
        <time>2021-07-18T11:13:23Z</time>
      </trkpt>
      <trkpt lat="37.17846" lon="-2.38634">
        <ele>1020.833</ele>
        <time>2021-07-18T11:13:34Z</time>
      </trkpt>
      <trkpt lat="37.1784" lon="-2.38806">
        <ele>1031.853</ele>
        <time>2021-07-18T11:13:45Z</time>
      </trkpt>
      <trkpt lat="37.17797" lon="-2.38963">
        <ele>1044.424</ele>
        <time>2021-07-18T11:13:56Z</time>
      </trkpt>
      <trkpt lat="37.17818" lon="-2.39079">
        <ele>1026.259</ele>
        <time>2021-07-18T11:14:07Z</time>
      </trkpt>
      <trkpt lat="37.17902" lon="-2.39066">
        <ele>1011.081</ele>
        <time>2021-07-18T11:14:18Z</time>
      </trkpt>
      <trkpt lat="37.17981" lon="-2.39225">
        <ele>1008.14</ele>
        <time>2021-07-18T11:14:29Z</time>
      </trkpt>
      <trkpt lat="37.18063" lon="-2.39322">
        <ele>1011.139</ele>
        <time>2021-07-18T11:14:40Z</time>
      </trkpt>
      <trkpt lat="37.18067" lon="-2.39392">
        <ele>1010.248</ele>
        <time>2021-07-18T11:14:51Z</time>
      </trkpt>
      <trkpt lat="37.1811" lon="-2.39453">
        <ele>998.1885</ele>
        <time>2021-07-18T11:15:02Z</time>
      </trkpt>
      <trkpt lat="37.18184" lon="-2.39509">
        <ele>990.9971</ele>
        <time>2021-07-18T11:15:13Z</time>
      </trkpt>
      <trkpt lat="37.18232" lon="-2.39649">
        <ele>982.8327</ele>
        <time>2021-07-18T11:15:24Z</time>
      </trkpt>
      <trkpt lat="37.18277" lon="-2.39822">
        <ele>975.8994</ele>
        <time>2021-07-18T11:15:35Z</time>
      </trkpt>
      <trkpt lat="37.18301" lon="-2.39942">
        <ele>972.0418</ele>
        <time>2021-07-18T11:15:46Z</time>
      </trkpt>
      <trkpt lat="37.18271" lon="-2.40052">
        <ele>975.0168</ele>
        <time>2021-07-18T11:15:57Z</time>
      </trkpt>
      <trkpt lat="37.184" lon="-2.40099">
        <ele>965.2946</ele>
        <time>2021-07-18T11:16:08Z</time>
      </trkpt>
      <trkpt lat="37.18516" lon="-2.40169">
        <ele>953.7021</ele>
        <time>2021-07-18T11:16:19Z</time>
      </trkpt>
      <trkpt lat="37.18623" lon="-2.40113">
        <ele>945.496</ele>
        <time>2021-07-18T11:16:30Z</time>
      </trkpt>
      <trkpt lat="37.18704" lon="-2.40078">
        <ele>934.196</ele>
        <time>2021-07-18T11:16:41Z</time>
      </trkpt>
      <trkpt lat="37.18666" lon="-2.40127">
        <ele>928.0711</ele>
        <time>2021-07-18T11:16:52Z</time>
      </trkpt>
      <trkpt lat="37.18588" lon="-2.40232">
        <ele>915.381</ele>
        <time>2021-07-18T11:17:03Z</time>
      </trkpt>
      <trkpt lat="37.18604" lon="-2.40238">
        <ele>906.0661</ele>
        <time>2021-07-18T11:17:14Z</time>
      </trkpt>
      <trkpt lat="37.18684" lon="-2.40201">
        <ele>891.6547</ele>
        <time>2021-07-18T11:17:25Z</time>
      </trkpt>
      <trkpt lat="37.18787" lon="-2.40236">
        <ele>881.7114</ele>
        <time>2021-07-18T11:17:36Z</time>
      </trkpt>
      <trkpt lat="37.18826" lon="-2.40229">
        <ele>876.9337</ele>
        <time>2021-07-18T11:17:47Z</time>
      </trkpt>
      <trkpt lat="37.18747" lon="-2.40337">
        <ele>861.0435</ele>
        <time>2021-07-18T11:17:58Z</time>
      </trkpt>
      <trkpt lat="37.18675" lon="-2.40363">
        <ele>856.9673</ele>
        <time>2021-07-18T11:18:09Z</time>
      </trkpt>
      <trkpt lat="37.18595" lon="-2.40423">
        <ele>839.2743</ele>
        <time>2021-07-18T11:18:20Z</time>
      </trkpt>
      <trkpt lat="37.18466" lon="-2.40488">
        <ele>848.7885</ele>
        <time>2021-07-18T11:18:31Z</time>
      </trkpt>
      <trkpt lat="37.18403" lon="-2.40707">
        <ele>858.2701</ele>
        <time>2021-07-18T11:18:42Z</time>
      </trkpt>
      <trkpt lat="37.18342" lon="-2.40916">
        <ele>826.2587</ele>
        <time>2021-07-18T11:18:53Z</time>
      </trkpt>
      <trkpt lat="37.18149" lon="-2.41034">
        <ele>805.5012</ele>
        <time>2021-07-18T11:19:04Z</time>
      </trkpt>
      <trkpt lat="37.1799" lon="-2.4123">
        <ele>792.6566</ele>
        <time>2021-07-18T11:19:15Z</time>
      </trkpt>
      <trkpt lat="37.17799" lon="-2.41371">
        <ele>781.1311</ele>
        <time>2021-07-18T11:19:26Z</time>
      </trkpt>
      <trkpt lat="37.17568" lon="-2.41304">
        <ele>773.7244</ele>
        <time>2021-07-18T11:19:37Z</time>
      </trkpt>
      <trkpt lat="37.17346" lon="-2.41309">
        <ele>771.7949</ele>
        <time>2021-07-18T11:19:48Z</time>
      </trkpt>
      <trkpt lat="37.17098" lon="-2.41352">
        <ele>763.6915</ele>
        <time>2021-07-18T11:19:59Z</time>
      </trkpt>
      <trkpt lat="37.16836" lon="-2.41412">
        <ele>760.3808</ele>
        <time>2021-07-18T11:20:10Z</time>
      </trkpt>
      <trkpt lat="37.16563" lon="-2.41465">
        <ele>749.2584</ele>
        <time>2021-07-18T11:20:21Z</time>
      </trkpt>
      <trkpt lat="37.16323" lon="-2.41534">
        <ele>733.1287</ele>
        <time>2021-07-18T11:20:32Z</time>
      </trkpt>
      <trkpt lat="37.16176" lon="-2.41666">
        <ele>729.1293</ele>
        <time>2021-07-18T11:20:43Z</time>
      </trkpt>
      <trkpt lat="37.15996" lon="-2.4176">
        <ele>723.2361</ele>
        <time>2021-07-18T11:20:54Z</time>
      </trkpt>
      <trkpt lat="37.158" lon="-2.41657">
        <ele>718.7532</ele>
        <time>2021-07-18T11:21:05Z</time>
      </trkpt>
      <trkpt lat="37.15596" lon="-2.41682">
        <ele>716.4463</ele>
        <time>2021-07-18T11:21:16Z</time>
      </trkpt>
      <trkpt lat="37.15435" lon="-2.41762">
        <ele>714.2514</ele>
        <time>2021-07-18T11:21:27Z</time>
      </trkpt>
      <trkpt lat="37.15221" lon="-2.41808">
        <ele>704.7654</ele>
        <time>2021-07-18T11:21:38Z</time>
      </trkpt>
      <trkpt lat="37.1506" lon="-2.41889">
        <ele>700.9927</ele>
        <time>2021-07-18T11:21:49Z</time>
      </trkpt>
      <trkpt lat="37.14882" lon="-2.42021">
        <ele>692.019</ele>
        <time>2021-07-18T11:22:00Z</time>
      </trkpt>
      <trkpt lat="37.1472" lon="-2.42159">
        <ele>685.6483</ele>
        <time>2021-07-18T11:22:11Z</time>
      </trkpt>
      <trkpt lat="37.14667" lon="-2.42187">
        <ele>684.9476</ele>
        <time>2021-07-18T11:22:22Z</time>
      </trkpt>
      <trkpt lat="37.14669" lon="-2.42181">
        <ele>685.8444</ele>
        <time>2021-07-18T11:22:39Z</time>
      </trkpt>
      <trkpt lat="37.1462" lon="-2.42129">
        <ele>681.7775</ele>
        <time>2021-07-18T11:22:50Z</time>
      </trkpt>
      <trkpt lat="37.14538" lon="-2.42085">
        <ele>675.563</ele>
        <time>2021-07-18T11:23:01Z</time>
      </trkpt>
      <trkpt lat="37.14437" lon="-2.42113">
        <ele>667.6825</ele>
        <time>2021-07-18T11:23:12Z</time>
      </trkpt>
      <trkpt lat="37.14393" lon="-2.42112">
        <ele>676.4003</ele>
        <time>2021-07-18T11:23:23Z</time>
      </trkpt>
      <trkpt lat="37.14396" lon="-2.42109">
        <ele>676.4377</ele>
        <time>2021-07-18T11:23:34Z</time>
      </trkpt>
      <trkpt lat="37.14399" lon="-2.42142">
        <ele>675.092</ele>
        <time>2021-07-18T11:23:45Z</time>
      </trkpt>
      <trkpt lat="37.14304" lon="-2.4219">
        <ele>671.0933</ele>
        <time>2021-07-18T11:23:56Z</time>
      </trkpt>
      <trkpt lat="37.14218" lon="-2.422">
        <ele>670.6465</ele>
        <time>2021-07-18T11:24:07Z</time>
      </trkpt>
      <trkpt lat="37.14125" lon="-2.42182">
        <ele>669.4597</ele>
        <time>2021-07-18T11:24:18Z</time>
      </trkpt>
      <trkpt lat="37.14045" lon="-2.42181">
        <ele>658.3633</ele>
        <time>2021-07-18T11:24:29Z</time>
      </trkpt>
      <trkpt lat="37.13966" lon="-2.4219">
        <ele>660.6082</ele>
        <time>2021-07-18T11:24:40Z</time>
      </trkpt>
      <trkpt lat="37.13882" lon="-2.42204">
        <ele>660.3937</ele>
        <time>2021-07-18T11:24:51Z</time>
      </trkpt>
      <trkpt lat="37.13785" lon="-2.42223">
        <ele>658.9614</ele>
        <time>2021-07-18T11:25:02Z</time>
      </trkpt>
      <trkpt lat="37.13681" lon="-2.42224">
        <ele>654.7317</ele>
        <time>2021-07-18T11:25:13Z</time>
      </trkpt>
      <trkpt lat="37.13591" lon="-2.42235">
        <ele>653.5211</ele>
        <time>2021-07-18T11:25:24Z</time>
      </trkpt>
      <trkpt lat="37.13511" lon="-2.42226">
        <ele>651.1657</ele>
        <time>2021-07-18T11:25:35Z</time>
      </trkpt>
      <trkpt lat="37.13422" lon="-2.42192">
        <ele>646.8295</ele>
        <time>2021-07-18T11:25:46Z</time>
      </trkpt>
      <trkpt lat="37.13355" lon="-2.42183">
        <ele>646.8968</ele>
        <time>2021-07-18T11:25:57Z</time>
      </trkpt>
      <trkpt lat="37.13259" lon="-2.42155">
        <ele>650.4342</ele>
        <time>2021-07-18T11:26:08Z</time>
      </trkpt>
      <trkpt lat="37.13225" lon="-2.42124">
        <ele>655.3552</ele>
        <time>2021-07-18T11:26:19Z</time>
      </trkpt>
      <trkpt lat="37.13147" lon="-2.42118">
        <ele>656.7023</ele>
        <time>2021-07-18T11:26:30Z</time>
      </trkpt>
      <trkpt lat="37.1307" lon="-2.42102">
        <ele>650.9919</ele>
        <time>2021-07-18T11:26:41Z</time>
      </trkpt>
      <trkpt lat="37.12997" lon="-2.42018">
        <ele>637.0416</ele>
        <time>2021-07-18T11:26:52Z</time>
      </trkpt>
      <trkpt lat="37.12916" lon="-2.41949">
        <ele>621.3036</ele>
        <time>2021-07-18T11:27:03Z</time>
      </trkpt>
      <trkpt lat="37.12851" lon="-2.41898">
        <ele>610.2135</ele>
        <time>2021-07-18T11:27:14Z</time>
      </trkpt>
      <trkpt lat="37.12754" lon="-2.41816">
        <ele>621.7093</ele>
        <time>2021-07-18T11:27:25Z</time>
      </trkpt>
      <trkpt lat="37.12687" lon="-2.41736">
        <ele>624.8031</ele>
        <time>2021-07-18T11:27:36Z</time>
      </trkpt>
      <trkpt lat="37.12606" lon="-2.4163">
        <ele>623.6019</ele>
        <time>2021-07-18T11:27:47Z</time>
      </trkpt>
      <trkpt lat="37.12487" lon="-2.41497">
        <ele>619.7422</ele>
        <time>2021-07-18T11:27:58Z</time>
      </trkpt>
      <trkpt lat="37.12388" lon="-2.41386">
        <ele>612.2215</ele>
        <time>2021-07-18T11:28:09Z</time>
      </trkpt>
      <trkpt lat="37.1231" lon="-2.41268">
        <ele>612.5824</ele>
        <time>2021-07-18T11:28:20Z</time>
      </trkpt>
      <trkpt lat="37.12212" lon="-2.41161">
        <ele>602.8422</ele>
        <time>2021-07-18T11:28:31Z</time>
      </trkpt>
      <trkpt lat="37.12087" lon="-2.41028">
        <ele>609.1532</ele>
        <time>2021-07-18T11:28:42Z</time>
      </trkpt>
      <trkpt lat="37.11966" lon="-2.40919">
        <ele>602.1548</ele>
        <time>2021-07-18T11:28:53Z</time>
      </trkpt>
      <trkpt lat="37.11862" lon="-2.408">
        <ele>600.8689</ele>
        <time>2021-07-18T11:29:04Z</time>
      </trkpt>
      <trkpt lat="37.11749" lon="-2.40699">
        <ele>598.8889</ele>
        <time>2021-07-18T11:29:15Z</time>
      </trkpt>
      <trkpt lat="37.11642" lon="-2.40643">
        <ele>589.3915</ele>
        <time>2021-07-18T11:29:26Z</time>
      </trkpt>
      <trkpt lat="37.11537" lon="-2.40529">
        <ele>583.1109</ele>
        <time>2021-07-18T11:29:37Z</time>
      </trkpt>
      <trkpt lat="37.11539" lon="-2.40397">
        <ele>574.8362</ele>
        <time>2021-07-18T11:29:48Z</time>
      </trkpt>
      <trkpt lat="37.1155" lon="-2.40239">
        <ele>588.5307</ele>
        <time>2021-07-18T11:29:59Z</time>
      </trkpt>
      <trkpt lat="37.1154" lon="-2.40057">
        <ele>603.0819</ele>
        <time>2021-07-18T11:30:10Z</time>
      </trkpt>
      <trkpt lat="37.11496" lon="-2.39856">
        <ele>610.86</ele>
        <time>2021-07-18T11:30:21Z</time>
      </trkpt>
      <trkpt lat="37.11445" lon="-2.39678">
        <ele>605.4927</ele>
        <time>2021-07-18T11:30:32Z</time>
      </trkpt>
      <trkpt lat="37.11403" lon="-2.39487">
        <ele>599.3535</ele>
        <time>2021-07-18T11:30:43Z</time>
      </trkpt>
      <trkpt lat="37.11372" lon="-2.39393">
        <ele>598.0434</ele>
        <time>2021-07-18T11:30:54Z</time>
      </trkpt>
      <trkpt lat="37.11314" lon="-2.3936">
        <ele>596.0061</ele>
        <time>2021-07-18T11:31:05Z</time>
      </trkpt>
      <trkpt lat="37.11188" lon="-2.39358">
        <ele>597.2371</ele>
        <time>2021-07-18T11:31:16Z</time>
      </trkpt>
      <trkpt lat="37.1109" lon="-2.39306">
        <ele>591.9245</ele>
        <time>2021-07-18T11:31:27Z</time>
      </trkpt>
      <trkpt lat="37.11045" lon="-2.39215">
        <ele>586.6973</ele>
        <time>2021-07-18T11:31:38Z</time>
      </trkpt>
      <trkpt lat="37.10952" lon="-2.39147">
        <ele>579.6981</ele>
        <time>2021-07-18T11:31:49Z</time>
      </trkpt>
      <trkpt lat="37.10839" lon="-2.39129">
        <ele>571.8747</ele>
        <time>2021-07-18T11:32:00Z</time>
      </trkpt>
      <trkpt lat="37.10691" lon="-2.39159">
        <ele>565.3804</ele>
        <time>2021-07-18T11:32:11Z</time>
      </trkpt>
      <trkpt lat="37.10558" lon="-2.39218">
        <ele>557.839</ele>
        <time>2021-07-18T11:32:22Z</time>
      </trkpt>
      <trkpt lat="37.10435" lon="-2.39292">
        <ele>552.0228</ele>
        <time>2021-07-18T11:32:33Z</time>
      </trkpt>
      <trkpt lat="37.10304" lon="-2.39345">
        <ele>544.771</ele>
        <time>2021-07-18T11:32:44Z</time>
      </trkpt>
      <trkpt lat="37.10157" lon="-2.39368">
        <ele>540.3923</ele>
        <time>2021-07-18T11:32:55Z</time>
      </trkpt>
      <trkpt lat="37.10027" lon="-2.39369">
        <ele>542.3493</ele>
        <time>2021-07-18T11:33:06Z</time>
      </trkpt>
      <trkpt lat="37.09885" lon="-2.39362">
        <ele>539.4818</ele>
        <time>2021-07-18T11:33:17Z</time>
      </trkpt>
      <trkpt lat="37.09747" lon="-2.39323">
        <ele>536.465</ele>
        <time>2021-07-18T11:33:29Z</time>
      </trkpt>
      <trkpt lat="37.09614" lon="-2.39258">
        <ele>532.8555</ele>
        <time>2021-07-18T11:33:40Z</time>
      </trkpt>
      <trkpt lat="37.09486" lon="-2.3922">
        <ele>526.3125</ele>
        <time>2021-07-18T11:33:51Z</time>
      </trkpt>
      <trkpt lat="37.09322" lon="-2.39215">
        <ele>519.8065</ele>
        <time>2021-07-18T11:34:02Z</time>
      </trkpt>
      <trkpt lat="37.09174" lon="-2.3918">
        <ele>513.2314</ele>
        <time>2021-07-18T11:34:13Z</time>
      </trkpt>
      <trkpt lat="37.09089" lon="-2.39167">
        <ele>509.5978</ele>
        <time>2021-07-18T11:34:24Z</time>
      </trkpt>
      <trkpt lat="37.08997" lon="-2.39124">
        <ele>476.4518</ele>
        <time>2021-07-18T11:34:35Z</time>
      </trkpt>
      <trkpt lat="37.08883" lon="-2.39071">
        <ele>463.1111</ele>
        <time>2021-07-18T11:34:46Z</time>
      </trkpt>
      <trkpt lat="37.08706" lon="-2.3904">
        <ele>494.0914</ele>
        <time>2021-07-18T11:34:57Z</time>
      </trkpt>
      <trkpt lat="37.08557" lon="-2.3901">
        <ele>492.5005</ele>
        <time>2021-07-18T11:35:08Z</time>
      </trkpt>
      <trkpt lat="37.08391" lon="-2.38999">
        <ele>489.5415</ele>
        <time>2021-07-18T11:35:19Z</time>
      </trkpt>
      <trkpt lat="37.08254" lon="-2.38973">
        <ele>484.7776</ele>
        <time>2021-07-18T11:35:30Z</time>
      </trkpt>
      <trkpt lat="37.08103" lon="-2.38931">
        <ele>481.321</ele>
        <time>2021-07-18T11:35:41Z</time>
      </trkpt>
      <trkpt lat="37.07944" lon="-2.38867">
        <ele>476.8002</ele>
        <time>2021-07-18T11:35:52Z</time>
      </trkpt>
      <trkpt lat="37.07796" lon="-2.3883">
        <ele>472.1307</ele>
        <time>2021-07-18T11:36:03Z</time>
      </trkpt>
      <trkpt lat="37.07714" lon="-2.38841">
        <ele>470</ele>
        <time>2021-07-18T11:36:47Z</time>
      </trkpt>
      <trkpt lat="37.0771" lon="-2.38839">
        <ele>473.3685</ele>
        <time>2021-07-18T11:37:35Z</time>
      </trkpt>
      <trkpt lat="37.07618" lon="-2.38821">
        <ele>468.0936</ele>
        <time>2021-07-18T11:37:46Z</time>
      </trkpt>
      <trkpt lat="37.07499" lon="-2.38825">
        <ele>464.0299</ele>
        <time>2021-07-18T11:37:57Z</time>
      </trkpt>
      <trkpt lat="37.07354" lon="-2.38855">
        <ele>458.5111</ele>
        <time>2021-07-18T11:38:08Z</time>
      </trkpt>
      <trkpt lat="37.07206" lon="-2.38853">
        <ele>456.5011</ele>
        <time>2021-07-18T11:38:19Z</time>
      </trkpt>
      <trkpt lat="37.0705" lon="-2.38825">
        <ele>449.0922</ele>
        <time>2021-07-18T11:38:30Z</time>
      </trkpt>
      <trkpt lat="37.06937" lon="-2.38786">
        <ele>443.7846</ele>
        <time>2021-07-18T11:38:41Z</time>
      </trkpt>
      <trkpt lat="37.06831" lon="-2.38771">
        <ele>441.5766</ele>
        <time>2021-07-18T11:38:52Z</time>
      </trkpt>
      <trkpt lat="37.06669" lon="-2.38789">
        <ele>436.9687</ele>
        <time>2021-07-18T11:39:03Z</time>
      </trkpt>
      <trkpt lat="37.06527" lon="-2.38784">
        <ele>433.1008</ele>
        <time>2021-07-18T11:39:14Z</time>
      </trkpt>
      <trkpt lat="37.06419" lon="-2.38811">
        <ele>426.1611</ele>
        <time>2021-07-18T11:39:25Z</time>
      </trkpt>
      <trkpt lat="37.06298" lon="-2.3886">
        <ele>424.1046</ele>
        <time>2021-07-18T11:39:36Z</time>
      </trkpt>
      <trkpt lat="37.06213" lon="-2.38798">
        <ele>433.8089</ele>
        <time>2021-07-18T11:39:47Z</time>
      </trkpt>
      <trkpt lat="37.06196" lon="-2.38773">
        <ele>436.2958</ele>
        <time>2021-07-18T11:39:58Z</time>
      </trkpt>
      <trkpt lat="37.06267" lon="-2.38853">
        <ele>428.2304</ele>
        <time>2021-07-18T11:40:09Z</time>
      </trkpt>
      <trkpt lat="37.063" lon="-2.38901">
        <ele>420.7177</ele>
        <time>2021-07-18T11:40:20Z</time>
      </trkpt>
      <trkpt lat="37.06236" lon="-2.3895">
        <ele>416.3147</ele>
        <time>2021-07-18T11:40:31Z</time>
      </trkpt>
      <trkpt lat="37.06182" lon="-2.3896">
        <ele>412.8143</ele>
        <time>2021-07-18T11:40:42Z</time>
      </trkpt>
      <trkpt lat="37.06107" lon="-2.38991">
        <ele>414.9467</ele>
        <time>2021-07-18T11:40:53Z</time>
      </trkpt>
      <trkpt lat="37.06037" lon="-2.39031">
        <ele>411.7517</ele>
        <time>2021-07-18T11:41:04Z</time>
      </trkpt>
      <trkpt lat="37.05926" lon="-2.39109">
        <ele>406.6596</ele>
        <time>2021-07-18T11:41:15Z</time>
      </trkpt>
      <trkpt lat="37.05824" lon="-2.39223">
        <ele>401.5481</ele>
        <time>2021-07-18T11:41:26Z</time>
      </trkpt>
      <trkpt lat="37.05763" lon="-2.39332">
        <ele>393.6474</ele>
        <time>2021-07-18T11:41:37Z</time>
      </trkpt>
      <trkpt lat="37.05704" lon="-2.39396">
        <ele>396.6907</ele>
        <time>2021-07-18T11:41:48Z</time>
      </trkpt>
      <trkpt lat="37.05658" lon="-2.39494">
        <ele>396.3598</ele>
        <time>2021-07-18T11:41:59Z</time>
      </trkpt>
      <trkpt lat="37.05584" lon="-2.3958">
        <ele>391.2991</ele>
        <time>2021-07-18T11:42:10Z</time>
      </trkpt>
      <trkpt lat="37.05489" lon="-2.39618">
        <ele>383.875</ele>
        <time>2021-07-18T11:42:21Z</time>
      </trkpt>
      <trkpt lat="37.05402" lon="-2.39715">
        <ele>373.7345</ele>
        <time>2021-07-18T11:42:32Z</time>
      </trkpt>
      <trkpt lat="37.05334" lon="-2.39823">
        <ele>374.2048</ele>
        <time>2021-07-18T11:42:43Z</time>
      </trkpt>
      <trkpt lat="37.05241" lon="-2.39866">
        <ele>377.6646</ele>
        <time>2021-07-18T11:42:54Z</time>
      </trkpt>
      <trkpt lat="37.05218" lon="-2.39883">
        <ele>380.576</ele>
        <time>2021-07-18T11:43:05Z</time>
      </trkpt>
      <trkpt lat="37.05275" lon="-2.39855">
        <ele>387.4628</ele>
        <time>2021-07-18T11:43:16Z</time>
      </trkpt>
      <trkpt lat="37.05234" lon="-2.39913">
        <ele>387.376</ele>
        <time>2021-07-18T11:43:27Z</time>
      </trkpt>
      <trkpt lat="37.05183" lon="-2.40015">
        <ele>381.1515</ele>
        <time>2021-07-18T11:43:38Z</time>
      </trkpt>
      <trkpt lat="37.05133" lon="-2.40141">
        <ele>369.2757</ele>
        <time>2021-07-18T11:43:49Z</time>
      </trkpt>
      <trkpt lat="37.05104" lon="-2.40274">
        <ele>361.738</ele>
        <time>2021-07-18T11:44:00Z</time>
      </trkpt>
      <trkpt lat="37.05075" lon="-2.40368">
        <ele>348.4927</ele>
        <time>2021-07-18T11:44:11Z</time>
      </trkpt>
      <trkpt lat="37.05016" lon="-2.40475">
        <ele>334.4712</ele>
        <time>2021-07-18T11:44:22Z</time>
      </trkpt>
      <trkpt lat="37.04944" lon="-2.40591">
        <ele>335.4766</ele>
        <time>2021-07-18T11:44:33Z</time>
      </trkpt>
      <trkpt lat="37.04864" lon="-2.40695">
        <ele>337.6415</ele>
        <time>2021-07-18T11:44:44Z</time>
      </trkpt>
      <trkpt lat="37.0481" lon="-2.40783">
        <ele>344.6779</ele>
        <time>2021-07-18T11:44:55Z</time>
      </trkpt>
      <trkpt lat="37.04783" lon="-2.40874">
        <ele>343.0489</ele>
        <time>2021-07-18T11:45:06Z</time>
      </trkpt>
      <trkpt lat="37.04745" lon="-2.40939">
        <ele>342.4905</ele>
        <time>2021-07-18T11:45:17Z</time>
      </trkpt>
      <trkpt lat="37.04698" lon="-2.4098">
        <ele>339.984</ele>
        <time>2021-07-18T11:45:28Z</time>
      </trkpt>
      <trkpt lat="37.04648" lon="-2.41048">
        <ele>336.8717</ele>
        <time>2021-07-18T11:45:39Z</time>
      </trkpt>
      <trkpt lat="37.04605" lon="-2.41102">
        <ele>336.9038</ele>
        <time>2021-07-18T11:45:50Z</time>
      </trkpt>
      <trkpt lat="37.04567" lon="-2.41145">
        <ele>334.5353</ele>
        <time>2021-07-18T11:46:01Z</time>
      </trkpt>
      <trkpt lat="37.04531" lon="-2.41218">
        <ele>332.756</ele>
        <time>2021-07-18T11:46:12Z</time>
      </trkpt>
      <trkpt lat="37.04463" lon="-2.41238">
        <ele>330.6991</ele>
        <time>2021-07-18T11:46:23Z</time>
      </trkpt>
      <trkpt lat="37.04433" lon="-2.41253">
        <ele>330.1197</ele>
        <time>2021-07-18T11:46:34Z</time>
      </trkpt>
      <trkpt lat="37.04395" lon="-2.4133">
        <ele>328.2722</ele>
        <time>2021-07-18T11:46:45Z</time>
      </trkpt>
      <trkpt lat="37.04389" lon="-2.41505">
        <ele>326.0616</ele>
        <time>2021-07-18T11:46:56Z</time>
      </trkpt>
      <trkpt lat="37.04371" lon="-2.41681">
        <ele>322.5987</ele>
        <time>2021-07-18T11:47:07Z</time>
      </trkpt>
      <trkpt lat="37.04381" lon="-2.41782">
        <ele>322.1516</ele>
        <time>2021-07-18T11:47:18Z</time>
      </trkpt>
      <trkpt lat="37.04466" lon="-2.41791">
        <ele>336.1657</ele>
        <time>2021-07-18T11:47:29Z</time>
      </trkpt>
      <trkpt lat="37.04547" lon="-2.41845">
        <ele>347.4422</ele>
        <time>2021-07-18T11:47:40Z</time>
      </trkpt>
      <trkpt lat="37.04568" lon="-2.41946">
        <ele>357.8324</ele>
        <time>2021-07-18T11:47:51Z</time>
      </trkpt>
      <trkpt lat="37.0459" lon="-2.41979">
        <ele>359.7661</ele>
        <time>2021-07-18T11:48:02Z</time>
      </trkpt>
      <trkpt lat="37.04594" lon="-2.4198">
        <ele>355.7086</ele>
        <time>2021-07-18T11:48:20Z</time>
      </trkpt>
      <trkpt lat="37.04582" lon="-2.41976">
        <ele>354.6283</ele>
        <time>2021-07-18T11:48:31Z</time>
      </trkpt>
      <trkpt lat="37.04552" lon="-2.41861">
        <ele>349.8623</ele>
        <time>2021-07-18T11:48:42Z</time>
      </trkpt>
      <trkpt lat="37.04474" lon="-2.41791">
        <ele>332.0278</ele>
        <time>2021-07-18T11:48:53Z</time>
      </trkpt>
      <trkpt lat="37.04397" lon="-2.41798">
        <ele>325.9321</ele>
        <time>2021-07-18T11:49:04Z</time>
      </trkpt>
      <trkpt lat="37.04351" lon="-2.41737">
        <ele>325.4081</ele>
        <time>2021-07-18T11:49:15Z</time>
      </trkpt>
      <trkpt lat="37.04312" lon="-2.41777">
        <ele>325.6419</ele>
        <time>2021-07-18T11:49:26Z</time>
      </trkpt>
      <trkpt lat="37.04299" lon="-2.41805">
        <ele>325.2073</ele>
        <time>2021-07-18T11:49:37Z</time>
      </trkpt>
      <trkpt lat="37.04296" lon="-2.41811">
        <ele>322.808</ele>
        <time>2021-07-18T11:49:52Z</time>
      </trkpt>
      <trkpt lat="37.04292" lon="-2.41806">
        <ele>322.3951</ele>
        <time>2021-07-18T11:50:03Z</time>
      </trkpt>
      <trkpt lat="37.04298" lon="-2.41806">
        <ele>320.1713</ele>
        <time>2021-07-18T11:50:25Z</time>
      </trkpt>
      <trkpt lat="37.04308" lon="-2.41817">
        <ele>322.0083</ele>
        <time>2021-07-18T11:50:36Z</time>
      </trkpt>
      <trkpt lat="37.04307" lon="-2.41817">
        <ele>322.173</ele>
        <time>2021-07-18T11:51:36Z</time>
      </trkpt>
      <trkpt lat="37.04303" lon="-2.41818">
        <ele>321.6465</ele>
        <time>2021-07-18T11:52:16Z</time>
      </trkpt>
      <trkpt lat="37.04306" lon="-2.41782">
        <ele>322.2982</ele>
        <time>2021-07-18T11:52:27Z</time>
      </trkpt>
      <trkpt lat="37.04318" lon="-2.41757">
        <ele>323.0002</ele>
        <time>2021-07-18T11:52:38Z</time>
      </trkpt>
      <trkpt lat="37.04318" lon="-2.41757">
        <ele>322.0831</ele>
        <time>2021-07-18T11:53:37Z</time>
      </trkpt>
      <trkpt lat="37.04316" lon="-2.41753">
        <ele>322.3086</ele>
        <time>2021-07-18T11:54:04Z</time>
      </trkpt>
      <trkpt lat="37.0432" lon="-2.41753">
        <ele>321.5943</ele>
        <time>2021-07-18T11:54:15Z</time>
      </trkpt>
      <trkpt lat="37.04318" lon="-2.41754">
        <ele>321.8445</ele>
        <time>2021-07-18T11:55:15Z</time>
      </trkpt>
      <trkpt lat="37.0432" lon="-2.41756">
        <ele>321.1793</ele>
        <time>2021-07-18T11:56:15Z</time>
      </trkpt>
      <trkpt lat="37.04317" lon="-2.41752">
        <ele>321.6601</ele>
        <time>2021-07-18T11:56:50Z</time>
      </trkpt>
      <trkpt lat="37.04317" lon="-2.41753">
        <ele>321.6204</ele>
        <time>2021-07-18T11:57:50Z</time>
      </trkpt>
      <trkpt lat="37.04313" lon="-2.41754">
        <ele>322.1936</ele>
        <time>2021-07-18T11:58:45Z</time>
      </trkpt>
      <trkpt lat="37.04313" lon="-2.41754">
        <ele>321.3425</ele>
        <time>2021-07-18T11:59:45Z</time>
      </trkpt>
      <trkpt lat="37.04315" lon="-2.41753">
        <ele>322.3128</ele>
        <time>2021-07-18T12:00:44Z</time>
      </trkpt>
      <trkpt lat="37.04318" lon="-2.41754">
        <ele>322.3377</ele>
        <time>2021-07-18T12:01:44Z</time>
      </trkpt>
      <trkpt lat="37.04318" lon="-2.41754">
        <ele>322.2348</ele>
        <time>2021-07-18T12:02:42Z</time>
      </trkpt>
      <trkpt lat="37.04319" lon="-2.41754">
        <ele>322.0865</ele>
        <time>2021-07-18T12:03:42Z</time>
      </trkpt>
      <trkpt lat="37.0432" lon="-2.41753">
        <ele>323.0427</ele>
        <time>2021-07-18T12:04:41Z</time>
      </trkpt>
      <trkpt lat="37.04321" lon="-2.41753">
        <ele>322.4148</ele>
        <time>2021-07-18T12:05:40Z</time>
      </trkpt>
      <trkpt lat="37.0432" lon="-2.41754">
        <ele>320.773</ele>
        <time>2021-07-18T12:06:40Z</time>
      </trkpt>
      <trkpt lat="37.04322" lon="-2.41754">
        <ele>322.4882</ele>
        <time>2021-07-18T12:07:40Z</time>
      </trkpt>
      <trkpt lat="37.04322" lon="-2.41753">
        <ele>322.1714</ele>
        <time>2021-07-18T12:08:40Z</time>
      </trkpt>
      <trkpt lat="37.04318" lon="-2.41753">
        <ele>322.3804</ele>
        <time>2021-07-18T12:09:19Z</time>
      </trkpt>
      <trkpt lat="37.04319" lon="-2.41753">
        <ele>322.2253</ele>
        <time>2021-07-18T12:10:19Z</time>
      </trkpt>
      <trkpt lat="37.04319" lon="-2.41755">
        <ele>321.5856</ele>
        <time>2021-07-18T12:11:19Z</time>
      </trkpt>
      <trkpt lat="37.0432" lon="-2.41754">
        <ele>321.8187</ele>
        <time>2021-07-18T12:12:19Z</time>
      </trkpt>
      <trkpt lat="37.0432" lon="-2.41753">
        <ele>321.4033</ele>
        <time>2021-07-18T12:13:19Z</time>
      </trkpt>
      <trkpt lat="37.04319" lon="-2.41751">
        <ele>322.086</ele>
        <time>2021-07-18T12:14:19Z</time>
      </trkpt>
      <trkpt lat="37.0432" lon="-2.41753">
        <ele>321.8291</ele>
        <time>2021-07-18T12:15:19Z</time>
      </trkpt>
      <trkpt lat="37.0432" lon="-2.41752">
        <ele>321.6031</ele>
        <time>2021-07-18T12:16:19Z</time>
      </trkpt>
      <trkpt lat="37.0432" lon="-2.41752">
        <ele>321.6031</ele>
        <time>2021-07-18T12:17:19Z</time>
      </trkpt>
      <trkpt lat="37.0432" lon="-2.41755">
        <ele>322.2616</ele>
        <time>2021-07-18T12:18:19Z</time>
      </trkpt>
      <trkpt lat="37.0432" lon="-2.41753">
        <ele>322.1786</ele>
        <time>2021-07-18T12:19:18Z</time>
      </trkpt>
      <trkpt lat="37.0432" lon="-2.41754">
        <ele>321.7831</ele>
        <time>2021-07-18T12:20:18Z</time>
      </trkpt>
      <trkpt lat="37.04319" lon="-2.41752">
        <ele>321.8728</ele>
        <time>2021-07-18T12:21:18Z</time>
      </trkpt>
      <trkpt lat="37.04319" lon="-2.41752">
        <ele>322.2419</ele>
        <time>2021-07-18T12:22:17Z</time>
      </trkpt>
      <trkpt lat="37.04319" lon="-2.41756">
        <ele>322.0388</ele>
        <time>2021-07-18T12:22:43Z</time>
      </trkpt>
      <trkpt lat="37.04319" lon="-2.41755">
        <ele>322.4313</ele>
        <time>2021-07-18T12:23:43Z</time>
      </trkpt>
      <trkpt lat="37.04319" lon="-2.4176">
        <ele>321.9201</ele>
        <time>2021-07-18T12:24:35Z</time>
      </trkpt>
      <trkpt lat="37.04312" lon="-2.41766">
        <ele>322.0593</ele>
        <time>2021-07-18T12:24:46Z</time>
      </trkpt>
      <trkpt lat="37.04315" lon="-2.41763">
        <ele>322.2244</ele>
        <time>2021-07-18T12:25:15Z</time>
      </trkpt>
      <trkpt lat="37.0432" lon="-2.41756">
        <ele>322.4798</ele>
        <time>2021-07-18T12:25:26Z</time>
      </trkpt>
      <trkpt lat="37.0432" lon="-2.41756">
        <ele>322.7296</ele>
        <time>2021-07-18T12:26:26Z</time>
      </trkpt>
      <trkpt lat="37.0432" lon="-2.41756">
        <ele>322.7296</ele>
        <time>2021-07-18T12:27:26Z</time>
      </trkpt>
      <trkpt lat="37.04324" lon="-2.41755">
        <ele>321.9529</ele>
        <time>2021-07-18T12:28:22Z</time>
      </trkpt>
      <trkpt lat="37.0436" lon="-2.41717">
        <ele>321.6799</ele>
        <time>2021-07-18T12:28:33Z</time>
      </trkpt>
      <trkpt lat="37.04385" lon="-2.41603">
        <ele>323.7147</ele>
        <time>2021-07-18T12:28:44Z</time>
      </trkpt>
      <trkpt lat="37.04384" lon="-2.41426">
        <ele>325.117</ele>
        <time>2021-07-18T12:28:55Z</time>
      </trkpt>
      <trkpt lat="37.04419" lon="-2.41271">
        <ele>331.4163</ele>
        <time>2021-07-18T12:29:06Z</time>
      </trkpt>
      <trkpt lat="37.04482" lon="-2.41083">
        <ele>332.8942</ele>
        <time>2021-07-18T12:29:17Z</time>
      </trkpt>
      <trkpt lat="37.04461" lon="-2.40915">
        <ele>335.8271</ele>
        <time>2021-07-18T12:29:28Z</time>
      </trkpt>
      <trkpt lat="37.04367" lon="-2.40747">
        <ele>334.3351</ele>
        <time>2021-07-18T12:29:39Z</time>
      </trkpt>
      <trkpt lat="37.04241" lon="-2.40526">
        <ele>338.8134</ele>
        <time>2021-07-18T12:29:50Z</time>
      </trkpt>
      <trkpt lat="37.04201" lon="-2.40466">
        <ele>339.2728</ele>
        <time>2021-07-18T12:30:01Z</time>
      </trkpt>
      <trkpt lat="37.04222" lon="-2.40451">
        <ele>339.8905</ele>
        <time>2021-07-18T12:30:12Z</time>
      </trkpt>
      <trkpt lat="37.04166" lon="-2.40302">
        <ele>340.5587</ele>
        <time>2021-07-18T12:30:23Z</time>
      </trkpt>
      <trkpt lat="37.041" lon="-2.4021">
        <ele>344.183</ele>
        <time>2021-07-18T12:30:34Z</time>
      </trkpt>
      <trkpt lat="37.04063" lon="-2.40115">
        <ele>347.8791</ele>
        <time>2021-07-18T12:30:45Z</time>
      </trkpt>
      <trkpt lat="37.04108" lon="-2.39997">
        <ele>351.8368</ele>
        <time>2021-07-18T12:30:56Z</time>
      </trkpt>
      <trkpt lat="37.04167" lon="-2.39933">
        <ele>352.8036</ele>
        <time>2021-07-18T12:31:07Z</time>
      </trkpt>
      <trkpt lat="37.04121" lon="-2.3989">
        <ele>354.0172</ele>
        <time>2021-07-18T12:31:18Z</time>
      </trkpt>
      <trkpt lat="37.0407" lon="-2.39792">
        <ele>356.4297</ele>
        <time>2021-07-18T12:31:29Z</time>
      </trkpt>
      <trkpt lat="37.0401" lon="-2.39714">
        <ele>364.2435</ele>
        <time>2021-07-18T12:31:40Z</time>
      </trkpt>
      <trkpt lat="37.03921" lon="-2.39671">
        <ele>362.8188</ele>
        <time>2021-07-18T12:31:51Z</time>
      </trkpt>
      <trkpt lat="37.03855" lon="-2.39639">
        <ele>364.5436</ele>
        <time>2021-07-18T12:32:02Z</time>
      </trkpt>
      <trkpt lat="37.03874" lon="-2.39532">
        <ele>368.017</ele>
        <time>2021-07-18T12:32:13Z</time>
      </trkpt>
      <trkpt lat="37.03864" lon="-2.39413">
        <ele>369.6771</ele>
        <time>2021-07-18T12:32:24Z</time>
      </trkpt>
      <trkpt lat="37.03878" lon="-2.39248">
        <ele>360.1212</ele>
        <time>2021-07-18T12:32:35Z</time>
      </trkpt>
      <trkpt lat="37.03854" lon="-2.39147">
        <ele>362.9482</ele>
        <time>2021-07-18T12:32:46Z</time>
      </trkpt>
      <trkpt lat="37.03832" lon="-2.3904">
        <ele>373.2713</ele>
        <time>2021-07-18T12:32:57Z</time>
      </trkpt>
      <trkpt lat="37.03812" lon="-2.38915">
        <ele>384.1126</ele>
        <time>2021-07-18T12:33:08Z</time>
      </trkpt>
      <trkpt lat="37.03797" lon="-2.38782">
        <ele>389.3359</ele>
        <time>2021-07-18T12:33:19Z</time>
      </trkpt>
      <trkpt lat="37.03857" lon="-2.38682">
        <ele>389.188</ele>
        <time>2021-07-18T12:33:30Z</time>
      </trkpt>
      <trkpt lat="37.03941" lon="-2.38619">
        <ele>393.1151</ele>
        <time>2021-07-18T12:33:41Z</time>
      </trkpt>
      <trkpt lat="37.04014" lon="-2.38577">
        <ele>391.9098</ele>
        <time>2021-07-18T12:33:52Z</time>
      </trkpt>
      <trkpt lat="37.04052" lon="-2.38657">
        <ele>393.5701</ele>
        <time>2021-07-18T12:34:03Z</time>
      </trkpt>
      <trkpt lat="37.04094" lon="-2.386">
        <ele>389.8798</ele>
        <time>2021-07-18T12:34:14Z</time>
      </trkpt>
      <trkpt lat="37.04112" lon="-2.3847">
        <ele>403.88</ele>
        <time>2021-07-18T12:34:25Z</time>
      </trkpt>
      <trkpt lat="37.04116" lon="-2.38354">
        <ele>414.7646</ele>
        <time>2021-07-18T12:34:36Z</time>
      </trkpt>
      <trkpt lat="37.04108" lon="-2.38222">
        <ele>418.7363</ele>
        <time>2021-07-18T12:34:47Z</time>
      </trkpt>
      <trkpt lat="37.04073" lon="-2.38042">
        <ele>428.9535</ele>
        <time>2021-07-18T12:34:58Z</time>
      </trkpt>
      <trkpt lat="37.04037" lon="-2.37888">
        <ele>433.7774</ele>
        <time>2021-07-18T12:35:09Z</time>
      </trkpt>
      <trkpt lat="37.04042" lon="-2.37765">
        <ele>441.9054</ele>
        <time>2021-07-18T12:35:20Z</time>
      </trkpt>
      <trkpt lat="37.03994" lon="-2.37655">
        <ele>443.0634</ele>
        <time>2021-07-18T12:35:31Z</time>
      </trkpt>
      <trkpt lat="37.0395" lon="-2.37548">
        <ele>436.1468</ele>
        <time>2021-07-18T12:35:42Z</time>
      </trkpt>
      <trkpt lat="37.03914" lon="-2.3749">
        <ele>419.2894</ele>
        <time>2021-07-18T12:35:53Z</time>
      </trkpt>
      <trkpt lat="37.03894" lon="-2.37449">
        <ele>425.8088</ele>
        <time>2021-07-18T12:36:04Z</time>
      </trkpt>
      <trkpt lat="37.03872" lon="-2.37363">
        <ele>431.7222</ele>
        <time>2021-07-18T12:36:15Z</time>
      </trkpt>
      <trkpt lat="37.03879" lon="-2.37258">
        <ele>428.6681</ele>
        <time>2021-07-18T12:36:26Z</time>
      </trkpt>
      <trkpt lat="37.03843" lon="-2.37139">
        <ele>426.6501</ele>
        <time>2021-07-18T12:36:37Z</time>
      </trkpt>
      <trkpt lat="37.03778" lon="-2.36998">
        <ele>430.237</ele>
        <time>2021-07-18T12:36:48Z</time>
      </trkpt>
      <trkpt lat="37.03705" lon="-2.3688">
        <ele>429.7283</ele>
        <time>2021-07-18T12:36:59Z</time>
      </trkpt>
      <trkpt lat="37.03673" lon="-2.36779">
        <ele>435.4165</ele>
        <time>2021-07-18T12:37:10Z</time>
      </trkpt>
      <trkpt lat="37.03699" lon="-2.36667">
        <ele>445.8491</ele>
        <time>2021-07-18T12:37:21Z</time>
      </trkpt>
      <trkpt lat="37.03733" lon="-2.36596">
        <ele>456.3104</ele>
        <time>2021-07-18T12:37:32Z</time>
      </trkpt>
      <trkpt lat="37.03734" lon="-2.36466">
        <ele>456.0026</ele>
        <time>2021-07-18T12:37:43Z</time>
      </trkpt>
      <trkpt lat="37.03716" lon="-2.36314">
        <ele>448.2339</ele>
        <time>2021-07-18T12:37:54Z</time>
      </trkpt>
      <trkpt lat="37.03669" lon="-2.36213">
        <ele>450.8825</ele>
        <time>2021-07-18T12:38:05Z</time>
      </trkpt>
      <trkpt lat="37.03611" lon="-2.36099">
        <ele>450.4015</ele>
        <time>2021-07-18T12:38:16Z</time>
      </trkpt>
      <trkpt lat="37.03636" lon="-2.35956">
        <ele>453.321</ele>
        <time>2021-07-18T12:38:27Z</time>
      </trkpt>
      <trkpt lat="37.03656" lon="-2.35849">
        <ele>459.9679</ele>
        <time>2021-07-18T12:38:38Z</time>
      </trkpt>
      <trkpt lat="37.0372" lon="-2.35829">
        <ele>467.5212</ele>
        <time>2021-07-18T12:38:49Z</time>
      </trkpt>
      <trkpt lat="37.03738" lon="-2.35746">
        <ele>470.1037</ele>
        <time>2021-07-18T12:39:00Z</time>
      </trkpt>
      <trkpt lat="37.03692" lon="-2.35655">
        <ele>476.2507</ele>
        <time>2021-07-18T12:39:11Z</time>
      </trkpt>
      <trkpt lat="37.0368" lon="-2.35554">
        <ele>477.5381</ele>
        <time>2021-07-18T12:39:22Z</time>
      </trkpt>
      <trkpt lat="37.03748" lon="-2.35503">
        <ele>477.7416</ele>
        <time>2021-07-18T12:39:33Z</time>
      </trkpt>
      <trkpt lat="37.03821" lon="-2.354">
        <ele>472.8528</ele>
        <time>2021-07-18T12:39:44Z</time>
      </trkpt>
      <trkpt lat="37.03925" lon="-2.35384">
        <ele>465.4587</ele>
        <time>2021-07-18T12:39:55Z</time>
      </trkpt>
      <trkpt lat="37.03972" lon="-2.35381">
        <ele>477.7291</ele>
        <time>2021-07-18T12:40:06Z</time>
      </trkpt>
      <trkpt lat="37.04011" lon="-2.35304">
        <ele>498.7491</ele>
        <time>2021-07-18T12:40:17Z</time>
      </trkpt>
      <trkpt lat="37.04028" lon="-2.3516">
        <ele>501.2453</ele>
        <time>2021-07-18T12:40:28Z</time>
      </trkpt>
      <trkpt lat="37.03994" lon="-2.35113">
        <ele>474.1951</ele>
        <time>2021-07-18T12:40:39Z</time>
      </trkpt>
      <trkpt lat="37.04015" lon="-2.3499">
        <ele>474.0977</ele>
        <time>2021-07-18T12:40:50Z</time>
      </trkpt>
      <trkpt lat="37.04046" lon="-2.34828">
        <ele>483.6503</ele>
        <time>2021-07-18T12:41:01Z</time>
      </trkpt>
      <trkpt lat="37.03978" lon="-2.34738">
        <ele>494.5078</ele>
        <time>2021-07-18T12:41:12Z</time>
      </trkpt>
      <trkpt lat="37.03947" lon="-2.34633">
        <ele>513.3106</ele>
        <time>2021-07-18T12:41:23Z</time>
      </trkpt>
      <trkpt lat="37.03957" lon="-2.34489">
        <ele>520.9567</ele>
        <time>2021-07-18T12:41:34Z</time>
      </trkpt>
      <trkpt lat="37.03912" lon="-2.34348">
        <ele>513.215</ele>
        <time>2021-07-18T12:41:45Z</time>
      </trkpt>
      <trkpt lat="37.03962" lon="-2.34261">
        <ele>515.0572</ele>
        <time>2021-07-18T12:41:56Z</time>
      </trkpt>
      <trkpt lat="37.03989" lon="-2.34187">
        <ele>520.2941</ele>
        <time>2021-07-18T12:42:07Z</time>
      </trkpt>
      <trkpt lat="37.04003" lon="-2.3407">
        <ele>523.6703</ele>
        <time>2021-07-18T12:42:18Z</time>
      </trkpt>
      <trkpt lat="37.03954" lon="-2.33972">
        <ele>542.8747</ele>
        <time>2021-07-18T12:42:29Z</time>
      </trkpt>
      <trkpt lat="37.03965" lon="-2.33815">
        <ele>550.2445</ele>
        <time>2021-07-18T12:42:40Z</time>
      </trkpt>
      <trkpt lat="37.03897" lon="-2.33697">
        <ele>554.4704</ele>
        <time>2021-07-18T12:42:51Z</time>
      </trkpt>
      <trkpt lat="37.03835" lon="-2.33562">
        <ele>557.2712</ele>
        <time>2021-07-18T12:43:02Z</time>
      </trkpt>
      <trkpt lat="37.03806" lon="-2.33416">
        <ele>560.618</ele>
        <time>2021-07-18T12:43:13Z</time>
      </trkpt>
      <trkpt lat="37.03777" lon="-2.33281">
        <ele>556.6951</ele>
        <time>2021-07-18T12:43:24Z</time>
      </trkpt>
      <trkpt lat="37.03753" lon="-2.33143">
        <ele>557.7589</ele>
        <time>2021-07-18T12:43:35Z</time>
      </trkpt>
      <trkpt lat="37.03798" lon="-2.33166">
        <ele>561.7077</ele>
        <time>2021-07-18T12:43:46Z</time>
      </trkpt>
      <trkpt lat="37.03885" lon="-2.33172">
        <ele>564.9996</ele>
        <time>2021-07-18T12:43:57Z</time>
      </trkpt>
      <trkpt lat="37.03913" lon="-2.3306">
        <ele>566.3167</ele>
        <time>2021-07-18T12:44:08Z</time>
      </trkpt>
      <trkpt lat="37.03965" lon="-2.32926">
        <ele>565.2663</ele>
        <time>2021-07-18T12:44:19Z</time>
      </trkpt>
      <trkpt lat="37.04046" lon="-2.3282">
        <ele>567.5798</ele>
        <time>2021-07-18T12:44:30Z</time>
      </trkpt>
      <trkpt lat="37.04122" lon="-2.32716">
        <ele>572.2459</ele>
        <time>2021-07-18T12:44:41Z</time>
      </trkpt>
      <trkpt lat="37.04101" lon="-2.32575">
        <ele>573.6973</ele>
        <time>2021-07-18T12:44:52Z</time>
      </trkpt>
      <trkpt lat="37.04125" lon="-2.32425">
        <ele>577.1451</ele>
        <time>2021-07-18T12:45:03Z</time>
      </trkpt>
      <trkpt lat="37.04177" lon="-2.32293">
        <ele>577.9419</ele>
        <time>2021-07-18T12:45:14Z</time>
      </trkpt>
      <trkpt lat="37.04233" lon="-2.32173">
        <ele>578.4841</ele>
        <time>2021-07-18T12:45:25Z</time>
      </trkpt>
      <trkpt lat="37.04249" lon="-2.32094">
        <ele>584.8029</ele>
        <time>2021-07-18T12:45:36Z</time>
      </trkpt>
      <trkpt lat="37.04226" lon="-2.32039">
        <ele>598.9995</ele>
        <time>2021-07-18T12:45:47Z</time>
      </trkpt>
      <trkpt lat="37.04203" lon="-2.31978">
        <ele>606.7222</ele>
        <time>2021-07-18T12:45:58Z</time>
      </trkpt>
      <trkpt lat="37.04204" lon="-2.31966">
        <ele>599.5064</ele>
        <time>2021-07-18T12:46:09Z</time>
      </trkpt>
      <trkpt lat="37.04205" lon="-2.31959">
        <ele>595.7304</ele>
        <time>2021-07-18T12:46:24Z</time>
      </trkpt>
      <trkpt lat="37.04253" lon="-2.3182">
        <ele>588.3565</ele>
        <time>2021-07-18T12:46:35Z</time>
      </trkpt>
      <trkpt lat="37.04345" lon="-2.31726">
        <ele>588.2783</ele>
        <time>2021-07-18T12:46:46Z</time>
      </trkpt>
      <trkpt lat="37.04462" lon="-2.31598">
        <ele>577.8583</ele>
        <time>2021-07-18T12:46:57Z</time>
      </trkpt>
      <trkpt lat="37.0453" lon="-2.31446">
        <ele>583.4427</ele>
        <time>2021-07-18T12:47:08Z</time>
      </trkpt>
      <trkpt lat="37.04519" lon="-2.31256">
        <ele>576.4089</ele>
        <time>2021-07-18T12:47:19Z</time>
      </trkpt>
      <trkpt lat="37.0453" lon="-2.31043">
        <ele>567.7291</ele>
        <time>2021-07-18T12:47:30Z</time>
      </trkpt>
      <trkpt lat="37.04601" lon="-2.30842">
        <ele>565.3838</ele>
        <time>2021-07-18T12:47:41Z</time>
      </trkpt>
      <trkpt lat="37.04606" lon="-2.30725">
        <ele>568.7131</ele>
        <time>2021-07-18T12:47:52Z</time>
      </trkpt>
      <trkpt lat="37.04666" lon="-2.307">
        <ele>570.2853</ele>
        <time>2021-07-18T12:48:03Z</time>
      </trkpt>
      <trkpt lat="37.04802" lon="-2.30616">
        <ele>566.2127</ele>
        <time>2021-07-18T12:48:14Z</time>
      </trkpt>
      <trkpt lat="37.04824" lon="-2.30493">
        <ele>564.8718</ele>
        <time>2021-07-18T12:48:25Z</time>
      </trkpt>
      <trkpt lat="37.04765" lon="-2.30338">
        <ele>566.902</ele>
        <time>2021-07-18T12:48:36Z</time>
      </trkpt>
      <trkpt lat="37.04786" lon="-2.30161">
        <ele>569.3967</ele>
        <time>2021-07-18T12:48:47Z</time>
      </trkpt>
      <trkpt lat="37.04897" lon="-2.30074">
        <ele>562.8673</ele>
        <time>2021-07-18T12:48:58Z</time>
      </trkpt>
      <trkpt lat="37.04946" lon="-2.29956">
        <ele>560.2457</ele>
        <time>2021-07-18T12:49:09Z</time>
      </trkpt>
      <trkpt lat="37.05026" lon="-2.29885">
        <ele>567.1979</ele>
        <time>2021-07-18T12:49:20Z</time>
      </trkpt>
      <trkpt lat="37.05142" lon="-2.29883">
        <ele>559.9213</ele>
        <time>2021-07-18T12:49:31Z</time>
      </trkpt>
      <trkpt lat="37.0526" lon="-2.29903">
        <ele>557.0659</ele>
        <time>2021-07-18T12:49:42Z</time>
      </trkpt>
      <trkpt lat="37.05405" lon="-2.29864">
        <ele>549.9942</ele>
        <time>2021-07-18T12:49:53Z</time>
      </trkpt>
      <trkpt lat="37.05508" lon="-2.29754">
        <ele>539.8569</ele>
        <time>2021-07-18T12:50:04Z</time>
      </trkpt>
      <trkpt lat="37.05605" lon="-2.29624">
        <ele>533.9845</ele>
        <time>2021-07-18T12:50:15Z</time>
      </trkpt>
      <trkpt lat="37.05648" lon="-2.2948">
        <ele>539.3063</ele>
        <time>2021-07-18T12:50:26Z</time>
      </trkpt>
      <trkpt lat="37.05629" lon="-2.29338">
        <ele>542.308</ele>
        <time>2021-07-18T12:50:37Z</time>
      </trkpt>
      <trkpt lat="37.05551" lon="-2.29123">
        <ele>543.7526</ele>
        <time>2021-07-18T12:50:48Z</time>
      </trkpt>
      <trkpt lat="37.05411" lon="-2.28923">
        <ele>544.127</ele>
        <time>2021-07-18T12:50:59Z</time>
      </trkpt>
      <trkpt lat="37.0529" lon="-2.28679">
        <ele>547.5456</ele>
        <time>2021-07-18T12:51:10Z</time>
      </trkpt>
      <trkpt lat="37.05199" lon="-2.28416">
        <ele>553.7966</ele>
        <time>2021-07-18T12:51:21Z</time>
      </trkpt>
      <trkpt lat="37.05118" lon="-2.28134">
        <ele>561.1064</ele>
        <time>2021-07-18T12:51:32Z</time>
      </trkpt>
      <trkpt lat="37.04975" lon="-2.27894">
        <ele>569.3826</ele>
        <time>2021-07-18T12:51:43Z</time>
      </trkpt>
      <trkpt lat="37.04813" lon="-2.27693">
        <ele>581.5925</ele>
        <time>2021-07-18T12:51:54Z</time>
      </trkpt>
      <trkpt lat="37.04624" lon="-2.2751">
        <ele>593.9333</ele>
        <time>2021-07-18T12:52:05Z</time>
      </trkpt>
      <trkpt lat="37.04411" lon="-2.27368">
        <ele>609.3222</ele>
        <time>2021-07-18T12:52:16Z</time>
      </trkpt>
      <trkpt lat="37.04221" lon="-2.27197">
        <ele>622.9766</ele>
        <time>2021-07-18T12:52:27Z</time>
      </trkpt>
      <trkpt lat="37.0401" lon="-2.27056">
        <ele>639.1525</ele>
        <time>2021-07-18T12:52:38Z</time>
      </trkpt>
      <trkpt lat="37.038" lon="-2.26951">
        <ele>656.5861</ele>
        <time>2021-07-18T12:52:49Z</time>
      </trkpt>
      <trkpt lat="37.03616" lon="-2.26847">
        <ele>675.1255</ele>
        <time>2021-07-18T12:53:00Z</time>
      </trkpt>
      <trkpt lat="37.03474" lon="-2.26741">
        <ele>691.1582</ele>
        <time>2021-07-18T12:53:11Z</time>
      </trkpt>
      <trkpt lat="37.0336" lon="-2.26753">
        <ele>701.1356</ele>
        <time>2021-07-18T12:53:22Z</time>
      </trkpt>
      <trkpt lat="37.03384" lon="-2.26592">
        <ele>715.198</ele>
        <time>2021-07-18T12:53:33Z</time>
      </trkpt>
      <trkpt lat="37.03414" lon="-2.26386">
        <ele>726.7489</ele>
        <time>2021-07-18T12:53:44Z</time>
      </trkpt>
      <trkpt lat="37.03323" lon="-2.26262">
        <ele>738.9239</ele>
        <time>2021-07-18T12:53:55Z</time>
      </trkpt>
      <trkpt lat="37.0332" lon="-2.26316">
        <ele>750.1882</ele>
        <time>2021-07-18T12:54:06Z</time>
      </trkpt>
      <trkpt lat="37.0332" lon="-2.26394">
        <ele>758.32</ele>
        <time>2021-07-18T12:54:17Z</time>
      </trkpt>
      <trkpt lat="37.03244" lon="-2.2624">
        <ele>769.394</ele>
        <time>2021-07-18T12:54:28Z</time>
      </trkpt>
      <trkpt lat="37.03216" lon="-2.26093">
        <ele>776.3801</ele>
        <time>2021-07-18T12:54:39Z</time>
      </trkpt>
      <trkpt lat="37.03197" lon="-2.2592">
        <ele>783.9158</ele>
        <time>2021-07-18T12:54:50Z</time>
      </trkpt>
      <trkpt lat="37.0318" lon="-2.25994">
        <ele>794.5177</ele>
        <time>2021-07-18T12:55:01Z</time>
      </trkpt>
      <trkpt lat="37.03128" lon="-2.2616">
        <ele>804.6088</ele>
        <time>2021-07-18T12:55:12Z</time>
      </trkpt>
      <trkpt lat="37.03208" lon="-2.26344">
        <ele>820.2085</ele>
        <time>2021-07-18T12:55:23Z</time>
      </trkpt>
      <trkpt lat="37.03166" lon="-2.26337">
        <ele>829.0783</ele>
        <time>2021-07-18T12:55:34Z</time>
      </trkpt>
      <trkpt lat="37.03051" lon="-2.26316">
        <ele>839.0079</ele>
        <time>2021-07-18T12:55:45Z</time>
      </trkpt>
      <trkpt lat="37.03043" lon="-2.26318">
        <ele>839.8605</ele>
        <time>2021-07-18T12:55:56Z</time>
      </trkpt>
      <trkpt lat="37.03085" lon="-2.2625">
        <ele>835.6857</ele>
        <time>2021-07-18T12:56:07Z</time>
      </trkpt>
      <trkpt lat="37.03007" lon="-2.26245">
        <ele>849.4834</ele>
        <time>2021-07-18T12:56:18Z</time>
      </trkpt>
      <trkpt lat="37.03015" lon="-2.26123">
        <ele>867.0409</ele>
        <time>2021-07-18T12:56:29Z</time>
      </trkpt>
      <trkpt lat="37.02971" lon="-2.26074">
        <ele>881.2114</ele>
        <time>2021-07-18T12:56:40Z</time>
      </trkpt>
      <trkpt lat="37.02991" lon="-2.25922">
        <ele>896.4957</ele>
        <time>2021-07-18T12:56:51Z</time>
      </trkpt>
      <trkpt lat="37.02847" lon="-2.26039">
        <ele>920.4023</ele>
        <time>2021-07-18T12:57:02Z</time>
      </trkpt>
      <trkpt lat="37.02729" lon="-2.26138">
        <ele>939.6659</ele>
        <time>2021-07-18T12:57:13Z</time>
      </trkpt>
      <trkpt lat="37.02625" lon="-2.26315">
        <ele>954.3401</ele>
        <time>2021-07-18T12:57:24Z</time>
      </trkpt>
      <trkpt lat="37.0247" lon="-2.26451">
        <ele>968.3885</ele>
        <time>2021-07-18T12:57:35Z</time>
      </trkpt>
      <trkpt lat="37.02329" lon="-2.26517">
        <ele>983.3208</ele>
        <time>2021-07-18T12:57:46Z</time>
      </trkpt>
      <trkpt lat="37.02196" lon="-2.26633">
        <ele>992.3503</ele>
        <time>2021-07-18T12:57:57Z</time>
      </trkpt>
      <trkpt lat="37.02045" lon="-2.26729">
        <ele>999.8165</ele>
        <time>2021-07-18T12:58:08Z</time>
      </trkpt>
      <trkpt lat="37.01933" lon="-2.26649">
        <ele>1011.619</ele>
        <time>2021-07-18T12:58:19Z</time>
      </trkpt>
      <trkpt lat="37.01816" lon="-2.26698">
        <ele>1026.835</ele>
        <time>2021-07-18T12:58:30Z</time>
      </trkpt>
      <trkpt lat="37.01697" lon="-2.26713">
        <ele>1025.015</ele>
        <time>2021-07-18T12:58:41Z</time>
      </trkpt>
      <trkpt lat="37.01706" lon="-2.26712">
        <ele>1025.765</ele>
        <time>2021-07-18T12:58:52Z</time>
      </trkpt>
      <trkpt lat="37.01805" lon="-2.26708">
        <ele>1027.388</ele>
        <time>2021-07-18T12:59:03Z</time>
      </trkpt>
      <trkpt lat="37.01804" lon="-2.26719">
        <ele>1028.212</ele>
        <time>2021-07-18T12:59:14Z</time>
      </trkpt>
      <trkpt lat="37.01804" lon="-2.26717">
        <ele>1028.037</ele>
        <time>2021-07-18T13:00:14Z</time>
      </trkpt>
      <trkpt lat="37.01804" lon="-2.26716">
        <ele>1027.754</ele>
        <time>2021-07-18T13:01:13Z</time>
      </trkpt>
      <trkpt lat="37.01802" lon="-2.2672">
        <ele>1024.135</ele>
        <time>2021-07-18T13:01:53Z</time>
      </trkpt>
      <trkpt lat="37.01805" lon="-2.26721">
        <ele>1022.584</ele>
        <time>2021-07-18T13:02:24Z</time>
      </trkpt>
      <trkpt lat="37.01806" lon="-2.2672">
        <ele>1024.625</ele>
        <time>2021-07-18T13:03:24Z</time>
      </trkpt>
      <trkpt lat="37.01807" lon="-2.26722">
        <ele>1024.464</ele>
        <time>2021-07-18T13:04:23Z</time>
      </trkpt>
      <trkpt lat="37.01804" lon="-2.2672">
        <ele>1023.318</ele>
        <time>2021-07-18T13:05:03Z</time>
      </trkpt>
      <trkpt lat="37.01802" lon="-2.26719">
        <ele>1021.782</ele>
        <time>2021-07-18T13:06:02Z</time>
      </trkpt>
      <trkpt lat="37.01805" lon="-2.26716">
        <ele>1023.868</ele>
        <time>2021-07-18T13:06:16Z</time>
      </trkpt>
      <trkpt lat="37.01804" lon="-2.2672">
        <ele>1024.334</ele>
        <time>2021-07-18T13:06:57Z</time>
      </trkpt>
      <trkpt lat="37.01805" lon="-2.26716">
        <ele>1022.892</ele>
        <time>2021-07-18T13:07:24Z</time>
      </trkpt>
      <trkpt lat="37.01803" lon="-2.2672">
        <ele>1023.419</ele>
        <time>2021-07-18T13:07:40Z</time>
      </trkpt>
      <trkpt lat="37.01804" lon="-2.26719">
        <ele>1022.138</ele>
        <time>2021-07-18T13:08:40Z</time>
      </trkpt>
      <trkpt lat="37.01802" lon="-2.26715">
        <ele>1023.928</ele>
        <time>2021-07-18T13:09:28Z</time>
      </trkpt>
      <trkpt lat="37.01804" lon="-2.26719">
        <ele>1024.213</ele>
        <time>2021-07-18T13:09:48Z</time>
      </trkpt>
      <trkpt lat="37.01804" lon="-2.26714">
        <ele>1023.74</ele>
        <time>2021-07-18T13:10:12Z</time>
      </trkpt>
      <trkpt lat="37.018" lon="-2.26713">
        <ele>1023.411</ele>
        <time>2021-07-18T13:10:23Z</time>
      </trkpt>
      <trkpt lat="37.01804" lon="-2.26717">
        <ele>1020.743</ele>
        <time>2021-07-18T13:10:53Z</time>
      </trkpt>
      <trkpt lat="37.018" lon="-2.26716">
        <ele>1025.53</ele>
        <time>2021-07-18T13:11:14Z</time>
      </trkpt>
      <trkpt lat="37.01801" lon="-2.26716">
        <ele>1025.803</ele>
        <time>2021-07-18T13:12:13Z</time>
      </trkpt>
      <trkpt lat="37.01804" lon="-2.26716">
        <ele>1025.527</ele>
        <time>2021-07-18T13:13:13Z</time>
      </trkpt>
      <trkpt lat="37.018" lon="-2.26717">
        <ele>1022.915</ele>
        <time>2021-07-18T13:14:13Z</time>
      </trkpt>
      <trkpt lat="37.01797" lon="-2.26715">
        <ele>1024.851</ele>
        <time>2021-07-18T13:14:30Z</time>
      </trkpt>
      <trkpt lat="37.018" lon="-2.26716">
        <ele>1025.816</ele>
        <time>2021-07-18T13:15:26Z</time>
      </trkpt>
      <trkpt lat="37.01804" lon="-2.26718">
        <ele>1026.371</ele>
        <time>2021-07-18T13:15:43Z</time>
      </trkpt>
      <trkpt lat="37.01799" lon="-2.26715">
        <ele>1023.453</ele>
        <time>2021-07-18T13:16:16Z</time>
      </trkpt>
      <trkpt lat="37.01795" lon="-2.26717">
        <ele>1024.832</ele>
        <time>2021-07-18T13:16:59Z</time>
      </trkpt>
      <trkpt lat="37.01783" lon="-2.26728">
        <ele>1024.137</ele>
        <time>2021-07-18T13:17:10Z</time>
      </trkpt>
      <trkpt lat="37.01771" lon="-2.26741">
        <ele>1026.964</ele>
        <time>2021-07-18T13:17:21Z</time>
      </trkpt>
      <trkpt lat="37.01759" lon="-2.26755">
        <ele>1029.587</ele>
        <time>2021-07-18T13:17:32Z</time>
      </trkpt>
      <trkpt lat="37.01747" lon="-2.26768">
        <ele>1029.918</ele>
        <time>2021-07-18T13:17:43Z</time>
      </trkpt>
      <trkpt lat="37.01737" lon="-2.26781">
        <ele>1032.968</ele>
        <time>2021-07-18T13:17:54Z</time>
      </trkpt>
      <trkpt lat="37.01726" lon="-2.26795">
        <ele>1035.832</ele>
        <time>2021-07-18T13:18:05Z</time>
      </trkpt>
      <trkpt lat="37.01715" lon="-2.26807">
        <ele>1037.17</ele>
        <time>2021-07-18T13:18:16Z</time>
      </trkpt>
      <trkpt lat="37.01705" lon="-2.26817">
        <ele>1037.911</ele>
        <time>2021-07-18T13:18:27Z</time>
      </trkpt>
      <trkpt lat="37.01694" lon="-2.2683">
        <ele>1043.08</ele>
        <time>2021-07-18T13:18:38Z</time>
      </trkpt>
      <trkpt lat="37.0169" lon="-2.26837">
        <ele>1045.493</ele>
        <time>2021-07-18T13:18:49Z</time>
      </trkpt>
      <trkpt lat="37.01682" lon="-2.26843">
        <ele>1048.137</ele>
        <time>2021-07-18T13:19:00Z</time>
      </trkpt>
      <trkpt lat="37.01676" lon="-2.26849">
        <ele>1047.239</ele>
        <time>2021-07-18T13:19:11Z</time>
      </trkpt>
      <trkpt lat="37.01666" lon="-2.26855">
        <ele>1051.092</ele>
        <time>2021-07-18T13:19:22Z</time>
      </trkpt>
      <trkpt lat="37.01663" lon="-2.26862">
        <ele>1051.957</ele>
        <time>2021-07-18T13:19:33Z</time>
      </trkpt>
      <trkpt lat="37.01658" lon="-2.26869">
        <ele>1054.565</ele>
        <time>2021-07-18T13:19:44Z</time>
      </trkpt>
      <trkpt lat="37.01654" lon="-2.26876">
        <ele>1056.211</ele>
        <time>2021-07-18T13:19:55Z</time>
      </trkpt>
      <trkpt lat="37.01648" lon="-2.26882">
        <ele>1058.537</ele>
        <time>2021-07-18T13:20:06Z</time>
      </trkpt>
      <trkpt lat="37.01642" lon="-2.26884">
        <ele>1061.009</ele>
        <time>2021-07-18T13:20:17Z</time>
      </trkpt>
      <trkpt lat="37.01635" lon="-2.26892">
        <ele>1063.714</ele>
        <time>2021-07-18T13:20:28Z</time>
      </trkpt>
      <trkpt lat="37.01632" lon="-2.26897">
        <ele>1065.319</ele>
        <time>2021-07-18T13:20:39Z</time>
      </trkpt>
      <trkpt lat="37.01623" lon="-2.26902">
        <ele>1068.446</ele>
        <time>2021-07-18T13:20:50Z</time>
      </trkpt>
      <trkpt lat="37.01616" lon="-2.2691">
        <ele>1072.805</ele>
        <time>2021-07-18T13:21:01Z</time>
      </trkpt>
      <trkpt lat="37.0161" lon="-2.26917">
        <ele>1074.255</ele>
        <time>2021-07-18T13:21:12Z</time>
      </trkpt>
      <trkpt lat="37.01609" lon="-2.26922">
        <ele>1076.803</ele>
        <time>2021-07-18T13:21:30Z</time>
      </trkpt>
      <trkpt lat="37.01603" lon="-2.26928">
        <ele>1081.217</ele>
        <time>2021-07-18T13:21:41Z</time>
      </trkpt>
      <trkpt lat="37.01596" lon="-2.26933">
        <ele>1083.338</ele>
        <time>2021-07-18T13:21:52Z</time>
      </trkpt>
      <trkpt lat="37.01594" lon="-2.26936">
        <ele>1085.503</ele>
        <time>2021-07-18T13:22:03Z</time>
      </trkpt>
      <trkpt lat="37.01597" lon="-2.26935">
        <ele>1083.908</ele>
        <time>2021-07-18T13:22:16Z</time>
      </trkpt>
      <trkpt lat="37.01601" lon="-2.26932">
        <ele>1079.338</ele>
        <time>2021-07-18T13:22:38Z</time>
      </trkpt>
      <trkpt lat="37.01606" lon="-2.26929">
        <ele>1079.774</ele>
        <time>2021-07-18T13:22:49Z</time>
      </trkpt>
      <trkpt lat="37.01611" lon="-2.26926">
        <ele>1076.449</ele>
        <time>2021-07-18T13:23:00Z</time>
      </trkpt>
      <trkpt lat="37.01616" lon="-2.26917">
        <ele>1074.616</ele>
        <time>2021-07-18T13:23:11Z</time>
      </trkpt>
      <trkpt lat="37.01623" lon="-2.2691">
        <ele>1071.302</ele>
        <time>2021-07-18T13:23:22Z</time>
      </trkpt>
      <trkpt lat="37.01629" lon="-2.26903">
        <ele>1068.599</ele>
        <time>2021-07-18T13:23:33Z</time>
      </trkpt>
      <trkpt lat="37.01636" lon="-2.26895">
        <ele>1063.422</ele>
        <time>2021-07-18T13:23:44Z</time>
      </trkpt>
      <trkpt lat="37.01647" lon="-2.26885">
        <ele>1059.003</ele>
        <time>2021-07-18T13:23:55Z</time>
      </trkpt>
      <trkpt lat="37.01659" lon="-2.26872">
        <ele>1055.65</ele>
        <time>2021-07-18T13:24:06Z</time>
      </trkpt>
      <trkpt lat="37.01671" lon="-2.26862">
        <ele>1051.029</ele>
        <time>2021-07-18T13:24:17Z</time>
      </trkpt>
      <trkpt lat="37.01686" lon="-2.26845">
        <ele>1045.804</ele>
        <time>2021-07-18T13:24:28Z</time>
      </trkpt>
      <trkpt lat="37.01704" lon="-2.26824">
        <ele>1039.128</ele>
        <time>2021-07-18T13:24:39Z</time>
      </trkpt>
      <trkpt lat="37.01719" lon="-2.26811">
        <ele>1037.662</ele>
        <time>2021-07-18T13:24:50Z</time>
      </trkpt>
      <trkpt lat="37.01731" lon="-2.26796">
        <ele>1031.787</ele>
        <time>2021-07-18T13:25:01Z</time>
      </trkpt>
      <trkpt lat="37.01745" lon="-2.2678">
        <ele>1031.013</ele>
        <time>2021-07-18T13:25:12Z</time>
      </trkpt>
      <trkpt lat="37.01755" lon="-2.26766">
        <ele>1030.923</ele>
        <time>2021-07-18T13:25:23Z</time>
      </trkpt>
      <trkpt lat="37.01767" lon="-2.26753">
        <ele>1029.263</ele>
        <time>2021-07-18T13:25:34Z</time>
      </trkpt>
      <trkpt lat="37.01778" lon="-2.2674">
        <ele>1026.772</ele>
        <time>2021-07-18T13:25:45Z</time>
      </trkpt>
      <trkpt lat="37.01789" lon="-2.26728">
        <ele>1025.825</ele>
        <time>2021-07-18T13:25:56Z</time>
      </trkpt>
      <trkpt lat="37.018" lon="-2.26719">
        <ele>1026.825</ele>
        <time>2021-07-18T13:26:07Z</time>
      </trkpt>
      <trkpt lat="37.018" lon="-2.26718">
        <ele>1025.653</ele>
        <time>2021-07-18T13:27:06Z</time>
      </trkpt>
      <trkpt lat="37.01802" lon="-2.26719">
        <ele>1024.653</ele>
        <time>2021-07-18T13:28:04Z</time>
      </trkpt>
      <trkpt lat="37.01803" lon="-2.2672">
        <ele>1024.25</ele>
        <time>2021-07-18T13:29:04Z</time>
      </trkpt>
      <trkpt lat="37.01803" lon="-2.2672">
        <ele>1024.25</ele>
        <time>2021-07-18T13:30:04Z</time>
      </trkpt>
      <trkpt lat="37.01802" lon="-2.26717">
        <ele>1026.943</ele>
        <time>2021-07-18T13:31:03Z</time>
      </trkpt>
      <trkpt lat="37.01802" lon="-2.26717">
        <ele>1026.649</ele>
        <time>2021-07-18T13:32:02Z</time>
      </trkpt>
      <trkpt lat="37.01802" lon="-2.26718">
        <ele>1025.857</ele>
        <time>2021-07-18T13:33:01Z</time>
      </trkpt>
      <trkpt lat="37.01803" lon="-2.26719">
        <ele>1026.051</ele>
        <time>2021-07-18T13:34:00Z</time>
      </trkpt>
      <trkpt lat="37.01793" lon="-2.26718">
        <ele>1025.297</ele>
        <time>2021-07-18T13:34:11Z</time>
      </trkpt>
      <trkpt lat="37.01724" lon="-2.26716">
        <ele>1025.778</ele>
        <time>2021-07-18T13:34:22Z</time>
      </trkpt>
      <trkpt lat="37.01591" lon="-2.26664">
        <ele>1031.609</ele>
        <time>2021-07-18T13:34:33Z</time>
      </trkpt>
      <trkpt lat="37.01425" lon="-2.26671">
        <ele>1043.716</ele>
        <time>2021-07-18T13:34:44Z</time>
      </trkpt>
      <trkpt lat="37.01274" lon="-2.26698">
        <ele>1064.031</ele>
        <time>2021-07-18T13:34:55Z</time>
      </trkpt>
      <trkpt lat="37.0116" lon="-2.26745">
        <ele>1075.575</ele>
        <time>2021-07-18T13:35:06Z</time>
      </trkpt>
      <trkpt lat="37.01068" lon="-2.26841">
        <ele>1087.283</ele>
        <time>2021-07-18T13:35:17Z</time>
      </trkpt>
      <trkpt lat="37.01053" lon="-2.26972">
        <ele>1084.463</ele>
        <time>2021-07-18T13:35:28Z</time>
      </trkpt>
      <trkpt lat="37.00955" lon="-2.26973">
        <ele>1098.203</ele>
        <time>2021-07-18T13:35:39Z</time>
      </trkpt>
      <trkpt lat="37.01005" lon="-2.27099">
        <ele>1106.175</ele>
        <time>2021-07-18T13:35:50Z</time>
      </trkpt>
      <trkpt lat="37.00982" lon="-2.27301">
        <ele>1112</ele>
        <time>2021-07-18T13:36:01Z</time>
      </trkpt>
      <trkpt lat="37.00903" lon="-2.27461">
        <ele>1122.958</ele>
        <time>2021-07-18T13:36:12Z</time>
      </trkpt>
      <trkpt lat="37.00892" lon="-2.2761">
        <ele>1128.413</ele>
        <time>2021-07-18T13:36:23Z</time>
      </trkpt>
      <trkpt lat="37.00917" lon="-2.27715">
        <ele>1131.693</ele>
        <time>2021-07-18T13:36:34Z</time>
      </trkpt>
      <trkpt lat="37.00975" lon="-2.27852">
        <ele>1133.533</ele>
        <time>2021-07-18T13:36:45Z</time>
      </trkpt>
      <trkpt lat="37.01024" lon="-2.27978">
        <ele>1139.615</ele>
        <time>2021-07-18T13:36:56Z</time>
      </trkpt>
      <trkpt lat="37.01065" lon="-2.2814">
        <ele>1145.666</ele>
        <time>2021-07-18T13:37:07Z</time>
      </trkpt>
      <trkpt lat="37.01055" lon="-2.28316">
        <ele>1150.716</ele>
        <time>2021-07-18T13:37:18Z</time>
      </trkpt>
      <trkpt lat="37.00988" lon="-2.28507">
        <ele>1153.482</ele>
        <time>2021-07-18T13:37:29Z</time>
      </trkpt>
      <trkpt lat="37.00927" lon="-2.28652">
        <ele>1157.427</ele>
        <time>2021-07-18T13:37:40Z</time>
      </trkpt>
      <trkpt lat="37.00866" lon="-2.28495">
        <ele>1170.947</ele>
        <time>2021-07-18T13:37:51Z</time>
      </trkpt>
      <trkpt lat="37.00842" lon="-2.28496">
        <ele>1179.83</ele>
        <time>2021-07-18T13:38:02Z</time>
      </trkpt>
      <trkpt lat="37.00826" lon="-2.2866">
        <ele>1190.074</ele>
        <time>2021-07-18T13:38:13Z</time>
      </trkpt>
      <trkpt lat="37.00718" lon="-2.28735">
        <ele>1197.823</ele>
        <time>2021-07-18T13:38:24Z</time>
      </trkpt>
      <trkpt lat="37.00642" lon="-2.28813">
        <ele>1206.725</ele>
        <time>2021-07-18T13:38:35Z</time>
      </trkpt>
      <trkpt lat="37.00673" lon="-2.28954">
        <ele>1212.478</ele>
        <time>2021-07-18T13:38:46Z</time>
      </trkpt>
      <trkpt lat="37.00628" lon="-2.29138">
        <ele>1210.809</ele>
        <time>2021-07-18T13:38:57Z</time>
      </trkpt>
      <trkpt lat="37.00549" lon="-2.29296">
        <ele>1209.358</ele>
        <time>2021-07-18T13:39:08Z</time>
      </trkpt>
      <trkpt lat="37.00492" lon="-2.29445">
        <ele>1216.008</ele>
        <time>2021-07-18T13:39:19Z</time>
      </trkpt>
      <trkpt lat="37.00401" lon="-2.29552">
        <ele>1226.406</ele>
        <time>2021-07-18T13:39:30Z</time>
      </trkpt>
      <trkpt lat="37.00345" lon="-2.29638">
        <ele>1239.25</ele>
        <time>2021-07-18T13:39:41Z</time>
      </trkpt>
      <trkpt lat="37.00234" lon="-2.29747">
        <ele>1253.062</ele>
        <time>2021-07-18T13:39:52Z</time>
      </trkpt>
      <trkpt lat="37.00199" lon="-2.29915">
        <ele>1263.767</ele>
        <time>2021-07-18T13:40:03Z</time>
      </trkpt>
      <trkpt lat="37.00162" lon="-2.30099">
        <ele>1276.6</ele>
        <time>2021-07-18T13:40:14Z</time>
      </trkpt>
      <trkpt lat="37.00081" lon="-2.30274">
        <ele>1282.81</ele>
        <time>2021-07-18T13:40:25Z</time>
      </trkpt>
      <trkpt lat="37.00005" lon="-2.3041">
        <ele>1293.525</ele>
        <time>2021-07-18T13:40:36Z</time>
      </trkpt>
      <trkpt lat="36.99968" lon="-2.30562">
        <ele>1297.059</ele>
        <time>2021-07-18T13:40:47Z</time>
      </trkpt>
      <trkpt lat="36.99995" lon="-2.30757">
        <ele>1294.442</ele>
        <time>2021-07-18T13:40:58Z</time>
      </trkpt>
      <trkpt lat="37.00023" lon="-2.30934">
        <ele>1299.362</ele>
        <time>2021-07-18T13:41:09Z</time>
      </trkpt>
      <trkpt lat="36.99971" lon="-2.31077">
        <ele>1284.17</ele>
        <time>2021-07-18T13:41:20Z</time>
      </trkpt>
      <trkpt lat="36.99906" lon="-2.31209">
        <ele>1274.696</ele>
        <time>2021-07-18T13:41:31Z</time>
      </trkpt>
      <trkpt lat="36.99805" lon="-2.31323">
        <ele>1283.163</ele>
        <time>2021-07-18T13:41:42Z</time>
      </trkpt>
      <trkpt lat="36.9976" lon="-2.31465">
        <ele>1278.947</ele>
        <time>2021-07-18T13:41:53Z</time>
      </trkpt>
      <trkpt lat="36.99685" lon="-2.31536">
        <ele>1248.896</ele>
        <time>2021-07-18T13:42:04Z</time>
      </trkpt>
      <trkpt lat="36.9962" lon="-2.31704">
        <ele>1275.469</ele>
        <time>2021-07-18T13:42:15Z</time>
      </trkpt>
      <trkpt lat="36.99605" lon="-2.3184">
        <ele>1283.089</ele>
        <time>2021-07-18T13:42:26Z</time>
      </trkpt>
      <trkpt lat="36.99531" lon="-2.31951">
        <ele>1286.446</ele>
        <time>2021-07-18T13:42:37Z</time>
      </trkpt>
      <trkpt lat="36.99436" lon="-2.32018">
        <ele>1289.236</ele>
        <time>2021-07-18T13:42:48Z</time>
      </trkpt>
      <trkpt lat="36.99419" lon="-2.32147">
        <ele>1292.94</ele>
        <time>2021-07-18T13:42:59Z</time>
      </trkpt>
      <trkpt lat="36.99491" lon="-2.32146">
        <ele>1286.094</ele>
        <time>2021-07-18T13:43:10Z</time>
      </trkpt>
      <trkpt lat="36.99586" lon="-2.32194">
        <ele>1280.908</ele>
        <time>2021-07-18T13:43:21Z</time>
      </trkpt>
      <trkpt lat="36.99634" lon="-2.32304">
        <ele>1274.527</ele>
        <time>2021-07-18T13:43:32Z</time>
      </trkpt>
      <trkpt lat="36.99588" lon="-2.32406">
        <ele>1271.085</ele>
        <time>2021-07-18T13:43:43Z</time>
      </trkpt>
      <trkpt lat="36.99518" lon="-2.32504">
        <ele>1264.419</ele>
        <time>2021-07-18T13:43:54Z</time>
      </trkpt>
      <trkpt lat="36.99495" lon="-2.32562">
        <ele>1256.113</ele>
        <time>2021-07-18T13:44:05Z</time>
      </trkpt>
      <trkpt lat="36.99542" lon="-2.32662">
        <ele>1248.168</ele>
        <time>2021-07-18T13:44:16Z</time>
      </trkpt>
      <trkpt lat="36.99625" lon="-2.32695">
        <ele>1241.762</ele>
        <time>2021-07-18T13:44:27Z</time>
      </trkpt>
      <trkpt lat="36.9967" lon="-2.3277">
        <ele>1233.741</ele>
        <time>2021-07-18T13:44:38Z</time>
      </trkpt>
      <trkpt lat="36.9962" lon="-2.32888">
        <ele>1230.42</ele>
        <time>2021-07-18T13:44:49Z</time>
      </trkpt>
      <trkpt lat="36.99604" lon="-2.33021">
        <ele>1219.912</ele>
        <time>2021-07-18T13:45:00Z</time>
      </trkpt>
      <trkpt lat="36.99558" lon="-2.33115">
        <ele>1208.031</ele>
        <time>2021-07-18T13:45:11Z</time>
      </trkpt>
      <trkpt lat="36.99551" lon="-2.3323">
        <ele>1198.968</ele>
        <time>2021-07-18T13:45:22Z</time>
      </trkpt>
      <trkpt lat="36.99517" lon="-2.33363">
        <ele>1197.769</ele>
        <time>2021-07-18T13:45:33Z</time>
      </trkpt>
      <trkpt lat="36.99501" lon="-2.33478">
        <ele>1199.87</ele>
        <time>2021-07-18T13:45:44Z</time>
      </trkpt>
      <trkpt lat="36.99471" lon="-2.33608">
        <ele>1205.628</ele>
        <time>2021-07-18T13:45:55Z</time>
      </trkpt>
      <trkpt lat="36.99419" lon="-2.33756">
        <ele>1217.064</ele>
        <time>2021-07-18T13:46:06Z</time>
      </trkpt>
      <trkpt lat="36.99384" lon="-2.33743">
        <ele>1222.966</ele>
        <time>2021-07-18T13:46:17Z</time>
      </trkpt>
      <trkpt lat="36.99313" lon="-2.33695">
        <ele>1225.243</ele>
        <time>2021-07-18T13:46:28Z</time>
      </trkpt>
      <trkpt lat="36.99275" lon="-2.33747">
        <ele>1236.256</ele>
        <time>2021-07-18T13:46:39Z</time>
      </trkpt>
      <trkpt lat="36.99264" lon="-2.33876">
        <ele>1243.112</ele>
        <time>2021-07-18T13:46:50Z</time>
      </trkpt>
      <trkpt lat="36.99178" lon="-2.33865">
        <ele>1248.037</ele>
        <time>2021-07-18T13:47:01Z</time>
      </trkpt>
      <trkpt lat="36.99174" lon="-2.33874">
        <ele>1250.431</ele>
        <time>2021-07-18T13:47:12Z</time>
      </trkpt>
      <trkpt lat="36.99205" lon="-2.33919">
        <ele>1253.552</ele>
        <time>2021-07-18T13:47:23Z</time>
      </trkpt>
      <trkpt lat="36.99304" lon="-2.33886">
        <ele>1256.994</ele>
        <time>2021-07-18T13:47:34Z</time>
      </trkpt>
      <trkpt lat="36.9936" lon="-2.33942">
        <ele>1262.729</ele>
        <time>2021-07-18T13:47:45Z</time>
      </trkpt>
      <trkpt lat="36.99372" lon="-2.34058">
        <ele>1266.976</ele>
        <time>2021-07-18T13:47:56Z</time>
      </trkpt>
      <trkpt lat="36.99402" lon="-2.34158">
        <ele>1276.746</ele>
        <time>2021-07-18T13:48:07Z</time>
      </trkpt>
      <trkpt lat="36.99417" lon="-2.34267">
        <ele>1285.335</ele>
        <time>2021-07-18T13:48:18Z</time>
      </trkpt>
      <trkpt lat="36.99448" lon="-2.34396">
        <ele>1290.257</ele>
        <time>2021-07-18T13:48:29Z</time>
      </trkpt>
      <trkpt lat="36.99452" lon="-2.34497">
        <ele>1289.528</ele>
        <time>2021-07-18T13:48:40Z</time>
      </trkpt>
      <trkpt lat="36.99453" lon="-2.34514">
        <ele>1290.355</ele>
        <time>2021-07-18T13:48:51Z</time>
      </trkpt>
      <trkpt lat="36.99451" lon="-2.34522">
        <ele>1288.711</ele>
        <time>2021-07-18T13:49:21Z</time>
      </trkpt>
      <trkpt lat="36.99438" lon="-2.3462">
        <ele>1288.321</ele>
        <time>2021-07-18T13:49:32Z</time>
      </trkpt>
      <trkpt lat="36.99433" lon="-2.34705">
        <ele>1287.102</ele>
        <time>2021-07-18T13:49:43Z</time>
      </trkpt>
      <trkpt lat="36.99404" lon="-2.34861">
        <ele>1288.735</ele>
        <time>2021-07-18T13:49:54Z</time>
      </trkpt>
      <trkpt lat="36.99349" lon="-2.35007">
        <ele>1292.239</ele>
        <time>2021-07-18T13:50:05Z</time>
      </trkpt>
      <trkpt lat="36.99348" lon="-2.35164">
        <ele>1291.009</ele>
        <time>2021-07-18T13:50:16Z</time>
      </trkpt>
      <trkpt lat="36.99315" lon="-2.35272">
        <ele>1290.4</ele>
        <time>2021-07-18T13:50:27Z</time>
      </trkpt>
      <trkpt lat="36.99262" lon="-2.35424">
        <ele>1291.313</ele>
        <time>2021-07-18T13:50:38Z</time>
      </trkpt>
      <trkpt lat="36.99151" lon="-2.35538">
        <ele>1295.476</ele>
        <time>2021-07-18T13:50:49Z</time>
      </trkpt>
      <trkpt lat="36.99077" lon="-2.35632">
        <ele>1296.348</ele>
        <time>2021-07-18T13:51:00Z</time>
      </trkpt>
      <trkpt lat="36.99031" lon="-2.35742">
        <ele>1301.085</ele>
        <time>2021-07-18T13:51:11Z</time>
      </trkpt>
      <trkpt lat="36.99006" lon="-2.35862">
        <ele>1297.161</ele>
        <time>2021-07-18T13:51:22Z</time>
      </trkpt>
      <trkpt lat="36.98969" lon="-2.36024">
        <ele>1299.39</ele>
        <time>2021-07-18T13:51:33Z</time>
      </trkpt>
      <trkpt lat="36.98961" lon="-2.36166">
        <ele>1305.602</ele>
        <time>2021-07-18T13:51:44Z</time>
      </trkpt>
      <trkpt lat="36.98891" lon="-2.36316">
        <ele>1305.76</ele>
        <time>2021-07-18T13:51:55Z</time>
      </trkpt>
      <trkpt lat="36.98767" lon="-2.36418">
        <ele>1304.576</ele>
        <time>2021-07-18T13:52:06Z</time>
      </trkpt>
      <trkpt lat="36.98635" lon="-2.36462">
        <ele>1308.746</ele>
        <time>2021-07-18T13:52:17Z</time>
      </trkpt>
      <trkpt lat="36.98609" lon="-2.36501">
        <ele>1309.767</ele>
        <time>2021-07-18T13:52:28Z</time>
      </trkpt>
      <trkpt lat="36.98609" lon="-2.36502">
        <ele>1311.189</ele>
        <time>2021-07-18T13:53:28Z</time>
      </trkpt>
      <trkpt lat="36.9861" lon="-2.36507">
        <ele>1310.374</ele>
        <time>2021-07-18T13:53:39Z</time>
      </trkpt>
      <trkpt lat="36.98656" lon="-2.36628">
        <ele>1297.029</ele>
        <time>2021-07-18T13:53:50Z</time>
      </trkpt>
      <trkpt lat="36.98708" lon="-2.36783">
        <ele>1302.424</ele>
        <time>2021-07-18T13:54:01Z</time>
      </trkpt>
      <trkpt lat="36.9869" lon="-2.36959">
        <ele>1302.706</ele>
        <time>2021-07-18T13:54:12Z</time>
      </trkpt>
      <trkpt lat="36.98641" lon="-2.37137">
        <ele>1301.062</ele>
        <time>2021-07-18T13:54:23Z</time>
      </trkpt>
      <trkpt lat="36.98564" lon="-2.37233">
        <ele>1295.092</ele>
        <time>2021-07-18T13:54:34Z</time>
      </trkpt>
      <trkpt lat="36.98538" lon="-2.37346">
        <ele>1293.286</ele>
        <time>2021-07-18T13:54:45Z</time>
      </trkpt>
      <trkpt lat="36.98613" lon="-2.37419">
        <ele>1286.456</ele>
        <time>2021-07-18T13:54:56Z</time>
      </trkpt>
      <trkpt lat="36.98653" lon="-2.37563">
        <ele>1280.302</ele>
        <time>2021-07-18T13:55:07Z</time>
      </trkpt>
      <trkpt lat="36.98662" lon="-2.37714">
        <ele>1270.927</ele>
        <time>2021-07-18T13:55:18Z</time>
      </trkpt>
      <trkpt lat="36.98695" lon="-2.37898">
        <ele>1275.748</ele>
        <time>2021-07-18T13:55:29Z</time>
      </trkpt>
      <trkpt lat="36.98706" lon="-2.3807">
        <ele>1270.734</ele>
        <time>2021-07-18T13:55:40Z</time>
      </trkpt>
      <trkpt lat="36.98742" lon="-2.38218">
        <ele>1267.626</ele>
        <time>2021-07-18T13:55:51Z</time>
      </trkpt>
      <trkpt lat="36.98727" lon="-2.38331">
        <ele>1265.324</ele>
        <time>2021-07-18T13:56:02Z</time>
      </trkpt>
      <trkpt lat="36.98669" lon="-2.38441">
        <ele>1257.015</ele>
        <time>2021-07-18T13:56:13Z</time>
      </trkpt>
      <trkpt lat="36.98694" lon="-2.38529">
        <ele>1252.834</ele>
        <time>2021-07-18T13:56:24Z</time>
      </trkpt>
      <trkpt lat="36.98733" lon="-2.38611">
        <ele>1245.762</ele>
        <time>2021-07-18T13:56:35Z</time>
      </trkpt>
      <trkpt lat="36.98724" lon="-2.38718">
        <ele>1239.278</ele>
        <time>2021-07-18T13:56:46Z</time>
      </trkpt>
      <trkpt lat="36.98747" lon="-2.38833">
        <ele>1230.448</ele>
        <time>2021-07-18T13:56:57Z</time>
      </trkpt>
      <trkpt lat="36.98715" lon="-2.38951">
        <ele>1222.421</ele>
        <time>2021-07-18T13:57:08Z</time>
      </trkpt>
      <trkpt lat="36.98668" lon="-2.39055">
        <ele>1215.049</ele>
        <time>2021-07-18T13:57:19Z</time>
      </trkpt>
      <trkpt lat="36.98668" lon="-2.39176">
        <ele>1204.491</ele>
        <time>2021-07-18T13:57:30Z</time>
      </trkpt>
      <trkpt lat="36.9871" lon="-2.39288">
        <ele>1190.856</ele>
        <time>2021-07-18T13:57:41Z</time>
      </trkpt>
      <trkpt lat="36.98738" lon="-2.39399">
        <ele>1181.466</ele>
        <time>2021-07-18T13:57:52Z</time>
      </trkpt>
      <trkpt lat="36.98753" lon="-2.39484">
        <ele>1179.272</ele>
        <time>2021-07-18T13:58:03Z</time>
      </trkpt>
      <trkpt lat="36.98738" lon="-2.39577">
        <ele>1176.799</ele>
        <time>2021-07-18T13:58:14Z</time>
      </trkpt>
      <trkpt lat="36.98688" lon="-2.39668">
        <ele>1167.229</ele>
        <time>2021-07-18T13:58:25Z</time>
      </trkpt>
      <trkpt lat="36.98672" lon="-2.39765">
        <ele>1159.053</ele>
        <time>2021-07-18T13:58:36Z</time>
      </trkpt>
      <trkpt lat="36.98721" lon="-2.39712">
        <ele>1154.676</ele>
        <time>2021-07-18T13:58:47Z</time>
      </trkpt>
      <trkpt lat="36.98773" lon="-2.39603">
        <ele>1141.255</ele>
        <time>2021-07-18T13:58:58Z</time>
      </trkpt>
      <trkpt lat="36.98825" lon="-2.39499">
        <ele>1131.738</ele>
        <time>2021-07-18T13:59:09Z</time>
      </trkpt>
      <trkpt lat="36.9887" lon="-2.39428">
        <ele>1127.639</ele>
        <time>2021-07-18T13:59:20Z</time>
      </trkpt>
      <trkpt lat="36.98868" lon="-2.3952">
        <ele>1125.76</ele>
        <time>2021-07-18T13:59:31Z</time>
      </trkpt>
      <trkpt lat="36.98835" lon="-2.39629">
        <ele>1117.776</ele>
        <time>2021-07-18T13:59:42Z</time>
      </trkpt>
      <trkpt lat="36.98816" lon="-2.39748">
        <ele>1108.585</ele>
        <time>2021-07-18T13:59:53Z</time>
      </trkpt>
      <trkpt lat="36.98779" lon="-2.39848">
        <ele>1097.673</ele>
        <time>2021-07-18T14:00:04Z</time>
      </trkpt>
      <trkpt lat="36.98778" lon="-2.39964">
        <ele>1086.611</ele>
        <time>2021-07-18T14:00:15Z</time>
      </trkpt>
      <trkpt lat="36.98779" lon="-2.40082">
        <ele>1081.136</ele>
        <time>2021-07-18T14:00:26Z</time>
      </trkpt>
      <trkpt lat="36.98791" lon="-2.40191">
        <ele>1073.907</ele>
        <time>2021-07-18T14:00:37Z</time>
      </trkpt>
      <trkpt lat="36.98806" lon="-2.40298">
        <ele>1067.306</ele>
        <time>2021-07-18T14:00:48Z</time>
      </trkpt>
      <trkpt lat="36.98847" lon="-2.40376">
        <ele>1055.996</ele>
        <time>2021-07-18T14:00:59Z</time>
      </trkpt>
      <trkpt lat="36.98855" lon="-2.40293">
        <ele>1054.084</ele>
        <time>2021-07-18T14:01:10Z</time>
      </trkpt>
      <trkpt lat="36.98882" lon="-2.40222">
        <ele>1054.263</ele>
        <time>2021-07-18T14:01:21Z</time>
      </trkpt>
      <trkpt lat="36.98908" lon="-2.4013">
        <ele>1047.603</ele>
        <time>2021-07-18T14:01:32Z</time>
      </trkpt>
      <trkpt lat="36.98907" lon="-2.40054">
        <ele>1042.252</ele>
        <time>2021-07-18T14:01:43Z</time>
      </trkpt>
      <trkpt lat="36.98956" lon="-2.40077">
        <ele>1044.128</ele>
        <time>2021-07-18T14:01:54Z</time>
      </trkpt>
      <trkpt lat="36.99027" lon="-2.40025">
        <ele>1031.401</ele>
        <time>2021-07-18T14:02:05Z</time>
      </trkpt>
      <trkpt lat="36.99045" lon="-2.39978">
        <ele>1028.127</ele>
        <time>2021-07-18T14:02:16Z</time>
      </trkpt>
      <trkpt lat="36.9911" lon="-2.39953">
        <ele>1020.223</ele>
        <time>2021-07-18T14:02:27Z</time>
      </trkpt>
      <trkpt lat="36.99162" lon="-2.39901">
        <ele>1013.297</ele>
        <time>2021-07-18T14:02:38Z</time>
      </trkpt>
      <trkpt lat="36.99189" lon="-2.39797">
        <ele>1005.308</ele>
        <time>2021-07-18T14:02:49Z</time>
      </trkpt>
      <trkpt lat="36.99201" lon="-2.397">
        <ele>998.3894</ele>
        <time>2021-07-18T14:03:00Z</time>
      </trkpt>
      <trkpt lat="36.99239" lon="-2.39654">
        <ele>998.4682</ele>
        <time>2021-07-18T14:03:11Z</time>
      </trkpt>
      <trkpt lat="36.99222" lon="-2.39728">
        <ele>993.2262</ele>
        <time>2021-07-18T14:03:22Z</time>
      </trkpt>
      <trkpt lat="36.99225" lon="-2.39862">
        <ele>984.6889</ele>
        <time>2021-07-18T14:03:33Z</time>
      </trkpt>
      <trkpt lat="36.99256" lon="-2.39972">
        <ele>978.4617</ele>
        <time>2021-07-18T14:03:44Z</time>
      </trkpt>
      <trkpt lat="36.99261" lon="-2.39908">
        <ele>968.8588</ele>
        <time>2021-07-18T14:03:55Z</time>
      </trkpt>
      <trkpt lat="36.99263" lon="-2.39788">
        <ele>944.058</ele>
        <time>2021-07-18T14:04:06Z</time>
      </trkpt>
      <trkpt lat="36.99322" lon="-2.39772">
        <ele>948.2738</ele>
        <time>2021-07-18T14:04:17Z</time>
      </trkpt>
      <trkpt lat="36.99334" lon="-2.39801">
        <ele>952.3492</ele>
        <time>2021-07-18T14:04:28Z</time>
      </trkpt>
      <trkpt lat="36.99322" lon="-2.39855">
        <ele>955.7967</ele>
        <time>2021-07-18T14:04:39Z</time>
      </trkpt>
      <trkpt lat="36.99378" lon="-2.39886">
        <ele>946.887</ele>
        <time>2021-07-18T14:04:50Z</time>
      </trkpt>
      <trkpt lat="36.9939" lon="-2.3998">
        <ele>938.0572</ele>
        <time>2021-07-18T14:05:01Z</time>
      </trkpt>
      <trkpt lat="36.99445" lon="-2.40056">
        <ele>920.3426</ele>
        <time>2021-07-18T14:05:12Z</time>
      </trkpt>
      <trkpt lat="36.99384" lon="-2.40102">
        <ele>909.329</ele>
        <time>2021-07-18T14:05:23Z</time>
      </trkpt>
      <trkpt lat="36.99329" lon="-2.40155">
        <ele>904.1819</ele>
        <time>2021-07-18T14:05:34Z</time>
      </trkpt>
      <trkpt lat="36.99309" lon="-2.40245">
        <ele>906.516</ele>
        <time>2021-07-18T14:05:45Z</time>
      </trkpt>
      <trkpt lat="36.99303" lon="-2.40337">
        <ele>911.0627</ele>
        <time>2021-07-18T14:05:56Z</time>
      </trkpt>
      <trkpt lat="36.99244" lon="-2.40394">
        <ele>908.3001</ele>
        <time>2021-07-18T14:06:07Z</time>
      </trkpt>
      <trkpt lat="36.99215" lon="-2.40419">
        <ele>909.7806</ele>
        <time>2021-07-18T14:06:18Z</time>
      </trkpt>
      <trkpt lat="36.99262" lon="-2.40511">
        <ele>899.3976</ele>
        <time>2021-07-18T14:06:29Z</time>
      </trkpt>
      <trkpt lat="36.99349" lon="-2.40547">
        <ele>874.2369</ele>
        <time>2021-07-18T14:06:40Z</time>
      </trkpt>
      <trkpt lat="36.99436" lon="-2.40582">
        <ele>861.7311</ele>
        <time>2021-07-18T14:06:51Z</time>
      </trkpt>
      <trkpt lat="36.99476" lon="-2.40666">
        <ele>854.2065</ele>
        <time>2021-07-18T14:07:02Z</time>
      </trkpt>
      <trkpt lat="36.99394" lon="-2.40705">
        <ele>850.6633</ele>
        <time>2021-07-18T14:07:13Z</time>
      </trkpt>
      <trkpt lat="36.99353" lon="-2.40705">
        <ele>849.0336</ele>
        <time>2021-07-18T14:07:24Z</time>
      </trkpt>
      <trkpt lat="36.99329" lon="-2.40788">
        <ele>844.5861</ele>
        <time>2021-07-18T14:07:35Z</time>
      </trkpt>
      <trkpt lat="36.99364" lon="-2.4082">
        <ele>839.8027</ele>
        <time>2021-07-18T14:07:46Z</time>
      </trkpt>
      <trkpt lat="36.99419" lon="-2.40882">
        <ele>832.4497</ele>
        <time>2021-07-18T14:07:57Z</time>
      </trkpt>
      <trkpt lat="36.99373" lon="-2.40976">
        <ele>824.4092</ele>
        <time>2021-07-18T14:08:08Z</time>
      </trkpt>
      <trkpt lat="36.99323" lon="-2.40996">
        <ele>816.7731</ele>
        <time>2021-07-18T14:08:19Z</time>
      </trkpt>
      <trkpt lat="36.99364" lon="-2.41051">
        <ele>810.1381</ele>
        <time>2021-07-18T14:08:30Z</time>
      </trkpt>
      <trkpt lat="36.99344" lon="-2.4112">
        <ele>805.0947</ele>
        <time>2021-07-18T14:08:41Z</time>
      </trkpt>
      <trkpt lat="36.99342" lon="-2.41123">
        <ele>804.762</ele>
        <time>2021-07-18T14:09:06Z</time>
      </trkpt>
      <trkpt lat="36.99343" lon="-2.41123">
        <ele>804.1384</ele>
        <time>2021-07-18T14:10:06Z</time>
      </trkpt>
      <trkpt lat="36.9934" lon="-2.41126">
        <ele>802.1411</ele>
        <time>2021-07-18T14:10:32Z</time>
      </trkpt>
      <trkpt lat="36.99304" lon="-2.4118">
        <ele>791.8728</ele>
        <time>2021-07-18T14:10:43Z</time>
      </trkpt>
      <trkpt lat="36.99281" lon="-2.41241">
        <ele>782.5571</ele>
        <time>2021-07-18T14:10:54Z</time>
      </trkpt>
      <trkpt lat="36.9932" lon="-2.4123">
        <ele>782.2298</ele>
        <time>2021-07-18T14:11:05Z</time>
      </trkpt>
      <trkpt lat="36.99325" lon="-2.41229">
        <ele>782.6862</ele>
        <time>2021-07-18T14:11:17Z</time>
      </trkpt>
      <trkpt lat="36.99362" lon="-2.41237">
        <ele>781.9835</ele>
        <time>2021-07-18T14:11:28Z</time>
      </trkpt>
      <trkpt lat="36.99421" lon="-2.41227">
        <ele>774.7926</ele>
        <time>2021-07-18T14:11:39Z</time>
      </trkpt>
      <trkpt lat="36.99461" lon="-2.41233">
        <ele>768.955</ele>
        <time>2021-07-18T14:11:50Z</time>
      </trkpt>
      <trkpt lat="36.9948" lon="-2.41279">
        <ele>764.1343</ele>
        <time>2021-07-18T14:12:01Z</time>
      </trkpt>
      <trkpt lat="36.99483" lon="-2.41309">
        <ele>759.4587</ele>
        <time>2021-07-18T14:12:12Z</time>
      </trkpt>
      <trkpt lat="36.9945" lon="-2.41343">
        <ele>751.1734</ele>
        <time>2021-07-18T14:12:23Z</time>
      </trkpt>
      <trkpt lat="36.99493" lon="-2.41339">
        <ele>753.8069</ele>
        <time>2021-07-18T14:12:34Z</time>
      </trkpt>
      <trkpt lat="36.9952" lon="-2.41337">
        <ele>755.3423</ele>
        <time>2021-07-18T14:12:45Z</time>
      </trkpt>
      <trkpt lat="36.9948" lon="-2.4136">
        <ele>752.1016</ele>
        <time>2021-07-18T14:12:56Z</time>
      </trkpt>
      <trkpt lat="36.99434" lon="-2.41383">
        <ele>744.5361</ele>
        <time>2021-07-18T14:13:07Z</time>
      </trkpt>
      <trkpt lat="36.99429" lon="-2.4145">
        <ele>738.9873</ele>
        <time>2021-07-18T14:13:18Z</time>
      </trkpt>
      <trkpt lat="36.99467" lon="-2.41434">
        <ele>736.7317</ele>
        <time>2021-07-18T14:13:29Z</time>
      </trkpt>
      <trkpt lat="36.99505" lon="-2.41409">
        <ele>735.9179</ele>
        <time>2021-07-18T14:13:40Z</time>
      </trkpt>
      <trkpt lat="36.99559" lon="-2.41392">
        <ele>730.6532</ele>
        <time>2021-07-18T14:13:51Z</time>
      </trkpt>
      <trkpt lat="36.996" lon="-2.41378">
        <ele>722.832</ele>
        <time>2021-07-18T14:14:02Z</time>
      </trkpt>
      <trkpt lat="36.99587" lon="-2.41433">
        <ele>718.4342</ele>
        <time>2021-07-18T14:14:13Z</time>
      </trkpt>
      <trkpt lat="36.99624" lon="-2.41422">
        <ele>716.235</ele>
        <time>2021-07-18T14:14:24Z</time>
      </trkpt>
      <trkpt lat="36.99587" lon="-2.41487">
        <ele>709.7849</ele>
        <time>2021-07-18T14:14:35Z</time>
      </trkpt>
      <trkpt lat="36.99526" lon="-2.4155">
        <ele>704.1192</ele>
        <time>2021-07-18T14:14:46Z</time>
      </trkpt>
      <trkpt lat="36.99503" lon="-2.41589">
        <ele>694.4526</ele>
        <time>2021-07-18T14:14:57Z</time>
      </trkpt>
      <trkpt lat="36.99571" lon="-2.41597">
        <ele>683.2204</ele>
        <time>2021-07-18T14:15:08Z</time>
      </trkpt>
      <trkpt lat="36.996" lon="-2.41624">
        <ele>677.1814</ele>
        <time>2021-07-18T14:15:19Z</time>
      </trkpt>
      <trkpt lat="36.99542" lon="-2.41642">
        <ele>678.911</ele>
        <time>2021-07-18T14:15:30Z</time>
      </trkpt>
      <trkpt lat="36.99494" lon="-2.41653">
        <ele>681.8655</ele>
        <time>2021-07-18T14:15:41Z</time>
      </trkpt>
      <trkpt lat="36.99465" lon="-2.41714">
        <ele>677.5348</ele>
        <time>2021-07-18T14:15:52Z</time>
      </trkpt>
      <trkpt lat="36.99493" lon="-2.41751">
        <ele>678.2317</ele>
        <time>2021-07-18T14:16:03Z</time>
      </trkpt>
      <trkpt lat="36.99488" lon="-2.41704">
        <ele>674.7244</ele>
        <time>2021-07-18T14:16:14Z</time>
      </trkpt>
      <trkpt lat="36.99528" lon="-2.41697">
        <ele>670.8533</ele>
        <time>2021-07-18T14:16:25Z</time>
      </trkpt>
      <trkpt lat="36.99575" lon="-2.41672">
        <ele>663.6602</ele>
        <time>2021-07-18T14:16:36Z</time>
      </trkpt>
      <trkpt lat="36.99631" lon="-2.41704">
        <ele>647.3266</ele>
        <time>2021-07-18T14:16:47Z</time>
      </trkpt>
      <trkpt lat="36.99701" lon="-2.41737">
        <ele>644.2488</ele>
        <time>2021-07-18T14:16:59Z</time>
      </trkpt>
      <trkpt lat="36.99746" lon="-2.41719">
        <ele>645.6937</ele>
        <time>2021-07-18T14:17:10Z</time>
      </trkpt>
      <trkpt lat="36.99735" lon="-2.4177">
        <ele>644.7389</ele>
        <time>2021-07-18T14:17:21Z</time>
      </trkpt>
      <trkpt lat="36.99738" lon="-2.41836">
        <ele>636.8622</ele>
        <time>2021-07-18T14:17:32Z</time>
      </trkpt>
      <trkpt lat="36.99795" lon="-2.4191">
        <ele>627.2018</ele>
        <time>2021-07-18T14:17:43Z</time>
      </trkpt>
      <trkpt lat="36.99826" lon="-2.41901">
        <ele>621.4093</ele>
        <time>2021-07-18T14:17:54Z</time>
      </trkpt>
      <trkpt lat="36.99802" lon="-2.41846">
        <ele>617.3619</ele>
        <time>2021-07-18T14:18:05Z</time>
      </trkpt>
      <trkpt lat="36.99808" lon="-2.41822">
        <ele>611.6023</ele>
        <time>2021-07-18T14:18:16Z</time>
      </trkpt>
      <trkpt lat="36.99863" lon="-2.41799">
        <ele>605.1745</ele>
        <time>2021-07-18T14:18:27Z</time>
      </trkpt>
      <trkpt lat="36.99902" lon="-2.41777">
        <ele>596.4348</ele>
        <time>2021-07-18T14:18:38Z</time>
      </trkpt>
      <trkpt lat="36.9994" lon="-2.41714">
        <ele>593.8604</ele>
        <time>2021-07-18T14:18:49Z</time>
      </trkpt>
      <trkpt lat="37.0001" lon="-2.41695">
        <ele>588.97</ele>
        <time>2021-07-18T14:19:00Z</time>
      </trkpt>
      <trkpt lat="37.00049" lon="-2.41668">
        <ele>583.8918</ele>
        <time>2021-07-18T14:19:11Z</time>
      </trkpt>
      <trkpt lat="37.0011" lon="-2.41711">
        <ele>566.7488</ele>
        <time>2021-07-18T14:19:22Z</time>
      </trkpt>
      <trkpt lat="37.00179" lon="-2.41734">
        <ele>562.5951</ele>
        <time>2021-07-18T14:19:33Z</time>
      </trkpt>
      <trkpt lat="37.00183" lon="-2.41816">
        <ele>522.8273</ele>
        <time>2021-07-18T14:19:44Z</time>
      </trkpt>
      <trkpt lat="37.00204" lon="-2.41879">
        <ele>551.3681</ele>
        <time>2021-07-18T14:19:55Z</time>
      </trkpt>
      <trkpt lat="37.00229" lon="-2.41921">
        <ele>596.8067</ele>
        <time>2021-07-18T14:20:06Z</time>
      </trkpt>
      <trkpt lat="37.00225" lon="-2.41937">
        <ele>563.1176</ele>
        <time>2021-07-18T14:20:17Z</time>
      </trkpt>
      <trkpt lat="37.00239" lon="-2.41983">
        <ele>564.9981</ele>
        <time>2021-07-18T14:20:28Z</time>
      </trkpt>
      <trkpt lat="37.00269" lon="-2.41947">
        <ele>561.6116</ele>
        <time>2021-07-18T14:20:39Z</time>
      </trkpt>
      <trkpt lat="37.00225" lon="-2.41875">
        <ele>555.0038</ele>
        <time>2021-07-18T14:20:50Z</time>
      </trkpt>
      <trkpt lat="37.00258" lon="-2.41805">
        <ele>550.4049</ele>
        <time>2021-07-18T14:21:01Z</time>
      </trkpt>
      <trkpt lat="37.0026" lon="-2.41731">
        <ele>544.4828</ele>
        <time>2021-07-18T14:21:12Z</time>
      </trkpt>
      <trkpt lat="37.00276" lon="-2.41678">
        <ele>539.6619</ele>
        <time>2021-07-18T14:21:23Z</time>
      </trkpt>
      <trkpt lat="37.00353" lon="-2.41736">
        <ele>532.9993</ele>
        <time>2021-07-18T14:21:34Z</time>
      </trkpt>
      <trkpt lat="37.00346" lon="-2.41819">
        <ele>528.4257</ele>
        <time>2021-07-18T14:21:45Z</time>
      </trkpt>
      <trkpt lat="37.00381" lon="-2.41851">
        <ele>523.8868</ele>
        <time>2021-07-18T14:21:56Z</time>
      </trkpt>
      <trkpt lat="37.00486" lon="-2.41891">
        <ele>517.9727</ele>
        <time>2021-07-18T14:22:07Z</time>
      </trkpt>
      <trkpt lat="37.00542" lon="-2.41846">
        <ele>513.6348</ele>
        <time>2021-07-18T14:22:18Z</time>
      </trkpt>
      <trkpt lat="37.00593" lon="-2.41861">
        <ele>510.2816</ele>
        <time>2021-07-18T14:22:29Z</time>
      </trkpt>
      <trkpt lat="37.00616" lon="-2.41959">
        <ele>503.9228</ele>
        <time>2021-07-18T14:22:40Z</time>
      </trkpt>
      <trkpt lat="37.00624" lon="-2.42028">
        <ele>498.0469</ele>
        <time>2021-07-18T14:22:51Z</time>
      </trkpt>
      <trkpt lat="37.00672" lon="-2.42033">
        <ele>490.7563</ele>
        <time>2021-07-18T14:23:02Z</time>
      </trkpt>
      <trkpt lat="37.00735" lon="-2.42042">
        <ele>483.2323</ele>
        <time>2021-07-18T14:23:13Z</time>
      </trkpt>
      <trkpt lat="37.00748" lon="-2.42062">
        <ele>481.2619</ele>
        <time>2021-07-18T14:23:24Z</time>
      </trkpt>
      <trkpt lat="37.00747" lon="-2.42063">
        <ele>479.6103</ele>
        <time>2021-07-18T14:24:24Z</time>
      </trkpt>
      <trkpt lat="37.00753" lon="-2.42055">
        <ele>476.4659</ele>
        <time>2021-07-18T14:24:41Z</time>
      </trkpt>
      <trkpt lat="37.00796" lon="-2.41973">
        <ele>475.7594</ele>
        <time>2021-07-18T14:24:52Z</time>
      </trkpt>
      <trkpt lat="37.00805" lon="-2.41948">
        <ele>471.5804</ele>
        <time>2021-07-18T14:25:04Z</time>
      </trkpt>
      <trkpt lat="37.00805" lon="-2.41939">
        <ele>470.643</ele>
        <time>2021-07-18T14:25:36Z</time>
      </trkpt>
      <trkpt lat="37.0077" lon="-2.41814">
        <ele>452.7803</ele>
        <time>2021-07-18T14:25:47Z</time>
      </trkpt>
      <trkpt lat="37.00773" lon="-2.41781">
        <ele>462.2197</ele>
        <time>2021-07-18T14:25:58Z</time>
      </trkpt>
      <trkpt lat="37.00825" lon="-2.41828">
        <ele>453.4849</ele>
        <time>2021-07-18T14:26:09Z</time>
      </trkpt>
      <trkpt lat="37.00807" lon="-2.41739">
        <ele>448.3043</ele>
        <time>2021-07-18T14:26:20Z</time>
      </trkpt>
      <trkpt lat="37.00846" lon="-2.41772">
        <ele>449.1531</ele>
        <time>2021-07-18T14:26:31Z</time>
      </trkpt>
      <trkpt lat="37.00893" lon="-2.41788">
        <ele>443.1855</ele>
        <time>2021-07-18T14:26:42Z</time>
      </trkpt>
      <trkpt lat="37.00968" lon="-2.41832">
        <ele>436.1045</ele>
        <time>2021-07-18T14:26:53Z</time>
      </trkpt>
      <trkpt lat="37.01008" lon="-2.41764">
        <ele>431.2748</ele>
        <time>2021-07-18T14:27:04Z</time>
      </trkpt>
      <trkpt lat="37.01066" lon="-2.41761">
        <ele>424.5298</ele>
        <time>2021-07-18T14:27:15Z</time>
      </trkpt>
      <trkpt lat="37.01125" lon="-2.41774">
        <ele>417.4538</ele>
        <time>2021-07-18T14:27:26Z</time>
      </trkpt>
      <trkpt lat="37.01182" lon="-2.41715">
        <ele>407.1234</ele>
        <time>2021-07-18T14:27:37Z</time>
      </trkpt>
      <trkpt lat="37.01233" lon="-2.41658">
        <ele>400.7284</ele>
        <time>2021-07-18T14:27:48Z</time>
      </trkpt>
      <trkpt lat="37.01274" lon="-2.41614">
        <ele>399.7561</ele>
        <time>2021-07-18T14:27:59Z</time>
      </trkpt>
      <trkpt lat="37.01324" lon="-2.41676">
        <ele>387.5342</ele>
        <time>2021-07-18T14:28:10Z</time>
      </trkpt>
      <trkpt lat="37.01375" lon="-2.41785">
        <ele>379.8071</ele>
        <time>2021-07-18T14:28:21Z</time>
      </trkpt>
      <trkpt lat="37.01437" lon="-2.41806">
        <ele>376.213</ele>
        <time>2021-07-18T14:28:32Z</time>
      </trkpt>
      <trkpt lat="37.01511" lon="-2.41759">
        <ele>369.6306</ele>
        <time>2021-07-18T14:28:43Z</time>
      </trkpt>
      <trkpt lat="37.01587" lon="-2.41774">
        <ele>362.132</ele>
        <time>2021-07-18T14:28:54Z</time>
      </trkpt>
      <trkpt lat="37.01665" lon="-2.4182">
        <ele>355.1698</ele>
        <time>2021-07-18T14:29:05Z</time>
      </trkpt>
      <trkpt lat="37.01715" lon="-2.41828">
        <ele>350.1964</ele>
        <time>2021-07-18T14:29:16Z</time>
      </trkpt>
      <trkpt lat="37.01758" lon="-2.41928">
        <ele>351.5014</ele>
        <time>2021-07-18T14:29:27Z</time>
      </trkpt>
      <trkpt lat="37.0176" lon="-2.42006">
        <ele>347.2648</ele>
        <time>2021-07-18T14:29:38Z</time>
      </trkpt>
      <trkpt lat="37.0182" lon="-2.42078">
        <ele>339.4758</ele>
        <time>2021-07-18T14:29:49Z</time>
      </trkpt>
      <trkpt lat="37.01892" lon="-2.42108">
        <ele>333.6076</ele>
        <time>2021-07-18T14:30:00Z</time>
      </trkpt>
      <trkpt lat="37.01946" lon="-2.42214">
        <ele>330.78</ele>
        <time>2021-07-18T14:30:11Z</time>
      </trkpt>
      <trkpt lat="37.02005" lon="-2.42275">
        <ele>323.6309</ele>
        <time>2021-07-18T14:30:22Z</time>
      </trkpt>
      <trkpt lat="37.02003" lon="-2.42356">
        <ele>327.767</ele>
        <time>2021-07-18T14:30:33Z</time>
      </trkpt>
      <trkpt lat="37.01957" lon="-2.42404">
        <ele>329.5733</ele>
        <time>2021-07-18T14:30:44Z</time>
      </trkpt>
      <trkpt lat="37.01911" lon="-2.42431">
        <ele>330.6582</ele>
        <time>2021-07-18T14:30:55Z</time>
      </trkpt>
      <trkpt lat="37.01928" lon="-2.42514">
        <ele>326.9725</ele>
        <time>2021-07-18T14:31:06Z</time>
      </trkpt>
      <trkpt lat="37.0193" lon="-2.42519">
        <ele>326.7233</ele>
        <time>2021-07-18T14:31:17Z</time>
      </trkpt>
      <trkpt lat="37.0193" lon="-2.42519">
        <ele>324.3663</ele>
        <time>2021-07-18T14:32:16Z</time>
      </trkpt>
      <trkpt lat="37.0193" lon="-2.42519">
        <ele>324.1651</ele>
        <time>2021-07-18T14:33:16Z</time>
      </trkpt>
      <trkpt lat="37.0193" lon="-2.42519">
        <ele>324.1114</ele>
        <time>2021-07-18T14:34:16Z</time>
      </trkpt>
      <trkpt lat="37.0193" lon="-2.4252">
        <ele>324.2593</ele>
        <time>2021-07-18T14:35:16Z</time>
      </trkpt>
      <trkpt lat="37.01933" lon="-2.42527">
        <ele>324.1574</ele>
        <time>2021-07-18T14:35:51Z</time>
      </trkpt>
      <trkpt lat="37.01926" lon="-2.42588">
        <ele>320.5752</ele>
        <time>2021-07-18T14:36:02Z</time>
      </trkpt>
      <trkpt lat="37.01946" lon="-2.4269">
        <ele>319.561</ele>
        <time>2021-07-18T14:36:13Z</time>
      </trkpt>
      <trkpt lat="37.01961" lon="-2.42778">
        <ele>314.0121</ele>
        <time>2021-07-18T14:36:24Z</time>
      </trkpt>
      <trkpt lat="37.02002" lon="-2.42846">
        <ele>315.7214</ele>
        <time>2021-07-18T14:36:35Z</time>
      </trkpt>
      <trkpt lat="37.02057" lon="-2.42903">
        <ele>313.7425</ele>
        <time>2021-07-18T14:36:46Z</time>
      </trkpt>
      <trkpt lat="37.02114" lon="-2.42984">
        <ele>311.8439</ele>
        <time>2021-07-18T14:36:57Z</time>
      </trkpt>
      <trkpt lat="37.02143" lon="-2.43163">
        <ele>306.6897</ele>
        <time>2021-07-18T14:37:08Z</time>
      </trkpt>
      <trkpt lat="37.02078" lon="-2.43292">
        <ele>306.4512</ele>
        <time>2021-07-18T14:37:19Z</time>
      </trkpt>
      <trkpt lat="37.02054" lon="-2.43429">
        <ele>302.6805</ele>
        <time>2021-07-18T14:37:30Z</time>
      </trkpt>
      <trkpt lat="37.02111" lon="-2.43474">
        <ele>300.4744</ele>
        <time>2021-07-18T14:37:41Z</time>
      </trkpt>
      <trkpt lat="37.02118" lon="-2.43475">
        <ele>299.9697</ele>
        <time>2021-07-18T14:37:52Z</time>
      </trkpt>
      <trkpt lat="37.02057" lon="-2.43647">
        <ele>294.7755</ele>
        <time>2021-07-18T14:38:03Z</time>
      </trkpt>
      <trkpt lat="37.02007" lon="-2.43946">
        <ele>281.931</ele>
        <time>2021-07-18T14:38:14Z</time>
      </trkpt>
      <trkpt lat="37.019" lon="-2.44163">
        <ele>269.4309</ele>
        <time>2021-07-18T14:38:25Z</time>
      </trkpt>
      <trkpt lat="37.01869" lon="-2.44362">
        <ele>258.5357</ele>
        <time>2021-07-18T14:38:36Z</time>
      </trkpt>
      <trkpt lat="37.01876" lon="-2.44499">
        <ele>269.8762</ele>
        <time>2021-07-18T14:38:47Z</time>
      </trkpt>
      <trkpt lat="37.01862" lon="-2.44614">
        <ele>275.1613</ele>
        <time>2021-07-18T14:38:58Z</time>
      </trkpt>
      <trkpt lat="37.01702" lon="-2.44607">
        <ele>275.5775</ele>
        <time>2021-07-18T14:39:09Z</time>
      </trkpt>
      <trkpt lat="37.01577" lon="-2.44621">
        <ele>273.6048</ele>
        <time>2021-07-18T14:39:20Z</time>
      </trkpt>
      <trkpt lat="37.01535" lon="-2.44627">
        <ele>270.3651</ele>
        <time>2021-07-18T14:39:31Z</time>
      </trkpt>
      <trkpt lat="37.01431" lon="-2.44645">
        <ele>268.8558</ele>
        <time>2021-07-18T14:39:42Z</time>
      </trkpt>
      <trkpt lat="37.01317" lon="-2.44743">
        <ele>244.8171</ele>
        <time>2021-07-18T14:39:53Z</time>
      </trkpt>
      <trkpt lat="37.01217" lon="-2.44892">
        <ele>198.6962</ele>
        <time>2021-07-18T14:40:04Z</time>
      </trkpt>
      <trkpt lat="37.01108" lon="-2.45058">
        <ele>133.8975</ele>
        <time>2021-07-18T14:40:15Z</time>
      </trkpt>
      <trkpt lat="37.00973" lon="-2.45318">
        <ele>239.759</ele>
        <time>2021-07-18T14:40:26Z</time>
      </trkpt>
      <trkpt lat="37.00889" lon="-2.45483">
        <ele>229.1986</ele>
        <time>2021-07-18T14:40:37Z</time>
      </trkpt>
      <trkpt lat="37.00804" lon="-2.45513">
        <ele>221.2682</ele>
        <time>2021-07-18T14:40:48Z</time>
      </trkpt>
      <trkpt lat="37.00789" lon="-2.45516">
        <ele>221.5293</ele>
        <time>2021-07-18T14:40:59Z</time>
      </trkpt>
      <trkpt lat="37.00813" lon="-2.45518">
        <ele>220.7894</ele>
        <time>2021-07-18T14:41:10Z</time>
      </trkpt>
      <trkpt lat="37.00829" lon="-2.45552">
        <ele>220.2151</ele>
        <time>2021-07-18T14:41:21Z</time>
      </trkpt>
      <trkpt lat="37.00869" lon="-2.4561">
        <ele>218.9652</ele>
        <time>2021-07-18T14:41:32Z</time>
      </trkpt>
      <trkpt lat="37.00889" lon="-2.45666">
        <ele>220.0006</ele>
        <time>2021-07-18T14:41:43Z</time>
      </trkpt>
      <trkpt lat="37.00843" lon="-2.45709">
        <ele>220.6442</ele>
        <time>2021-07-18T14:41:54Z</time>
      </trkpt>
      <trkpt lat="37.00764" lon="-2.45728">
        <ele>217.7883</ele>
        <time>2021-07-18T14:42:05Z</time>
      </trkpt>
      <trkpt lat="37.00719" lon="-2.4579">
        <ele>213.8599</ele>
        <time>2021-07-18T14:42:16Z</time>
      </trkpt>
      <trkpt lat="37.0065" lon="-2.45827">
        <ele>214.3146</ele>
        <time>2021-07-18T14:42:27Z</time>
      </trkpt>
      <trkpt lat="37.00587" lon="-2.4588">
        <ele>213.4253</ele>
        <time>2021-07-18T14:42:38Z</time>
      </trkpt>
      <trkpt lat="37.00511" lon="-2.45971">
        <ele>212.9505</ele>
        <time>2021-07-18T14:42:49Z</time>
      </trkpt>
      <trkpt lat="37.00446" lon="-2.4605">
        <ele>209.085</ele>
        <time>2021-07-18T14:43:00Z</time>
      </trkpt>
      <trkpt lat="37.00375" lon="-2.46153">
        <ele>208.672</ele>
        <time>2021-07-18T14:43:11Z</time>
      </trkpt>
      <trkpt lat="37.0031" lon="-2.46238">
        <ele>214.5041</ele>
        <time>2021-07-18T14:43:22Z</time>
      </trkpt>
      <trkpt lat="37.00247" lon="-2.46311">
        <ele>208.1556</ele>
        <time>2021-07-18T14:43:33Z</time>
      </trkpt>
      <trkpt lat="37.00175" lon="-2.46349">
        <ele>205.2465</ele>
        <time>2021-07-18T14:43:44Z</time>
      </trkpt>
      <trkpt lat="37.00065" lon="-2.46388">
        <ele>204.3623</ele>
        <time>2021-07-18T14:43:55Z</time>
      </trkpt>
      <trkpt lat="36.99972" lon="-2.46431">
        <ele>203.2639</ele>
        <time>2021-07-18T14:44:06Z</time>
      </trkpt>
      <trkpt lat="36.99902" lon="-2.46508">
        <ele>201.1966</ele>
        <time>2021-07-18T14:44:17Z</time>
      </trkpt>
      <trkpt lat="36.99854" lon="-2.4661">
        <ele>201.1792</ele>
        <time>2021-07-18T14:44:28Z</time>
      </trkpt>
      <trkpt lat="36.99789" lon="-2.46657">
        <ele>199.2049</ele>
        <time>2021-07-18T14:44:39Z</time>
      </trkpt>
      <trkpt lat="36.99731" lon="-2.46641">
        <ele>197.9607</ele>
        <time>2021-07-18T14:44:50Z</time>
      </trkpt>
      <trkpt lat="36.99672" lon="-2.46577">
        <ele>199.709</ele>
        <time>2021-07-18T14:45:01Z</time>
      </trkpt>
      <trkpt lat="36.99598" lon="-2.46552">
        <ele>200.0583</ele>
        <time>2021-07-18T14:45:12Z</time>
      </trkpt>
      <trkpt lat="36.99521" lon="-2.4656">
        <ele>195.2451</ele>
        <time>2021-07-18T14:45:23Z</time>
      </trkpt>
      <trkpt lat="36.99479" lon="-2.46618">
        <ele>193.6998</ele>
        <time>2021-07-18T14:45:34Z</time>
      </trkpt>
      <trkpt lat="36.99461" lon="-2.4666">
        <ele>192.5461</ele>
        <time>2021-07-18T14:45:45Z</time>
      </trkpt>
      <trkpt lat="36.99458" lon="-2.46668">
        <ele>190.9583</ele>
        <time>2021-07-18T14:46:05Z</time>
      </trkpt>
      <trkpt lat="36.99396" lon="-2.46734">
        <ele>191.0771</ele>
        <time>2021-07-18T14:46:16Z</time>
      </trkpt>
      <trkpt lat="36.9933" lon="-2.46751">
        <ele>191.5205</ele>
        <time>2021-07-18T14:46:27Z</time>
      </trkpt>
      <trkpt lat="36.99323" lon="-2.46751">
        <ele>192.3812</ele>
        <time>2021-07-18T14:46:39Z</time>
      </trkpt>
      <trkpt lat="36.9926" lon="-2.46709">
        <ele>191.2009</ele>
        <time>2021-07-18T14:46:50Z</time>
      </trkpt>
      <trkpt lat="36.99217" lon="-2.4664">
        <ele>190.3031</ele>
        <time>2021-07-18T14:47:01Z</time>
      </trkpt>
      <trkpt lat="36.9918" lon="-2.46541">
        <ele>191.3429</ele>
        <time>2021-07-18T14:47:12Z</time>
      </trkpt>
      <trkpt lat="36.99147" lon="-2.46516">
        <ele>191.0119</ele>
        <time>2021-07-18T14:47:23Z</time>
      </trkpt>
      <trkpt lat="36.99098" lon="-2.46479">
        <ele>190.219</ele>
        <time>2021-07-18T14:47:34Z</time>
      </trkpt>
      <trkpt lat="36.99051" lon="-2.46469">
        <ele>188.6278</ele>
        <time>2021-07-18T14:47:45Z</time>
      </trkpt>
      <trkpt lat="36.99047" lon="-2.4647">
        <ele>188.2164</ele>
        <time>2021-07-18T14:47:57Z</time>
      </trkpt>
      <trkpt lat="36.99034" lon="-2.46475">
        <ele>185.0502</ele>
        <time>2021-07-18T14:48:08Z</time>
      </trkpt>
      <trkpt lat="36.98938" lon="-2.46525">
        <ele>183.5145</ele>
        <time>2021-07-18T14:48:19Z</time>
      </trkpt>
      <trkpt lat="36.98847" lon="-2.46573">
        <ele>181.1441</ele>
        <time>2021-07-18T14:48:30Z</time>
      </trkpt>
      <trkpt lat="36.98787" lon="-2.46684">
        <ele>182.1175</ele>
        <time>2021-07-18T14:48:41Z</time>
      </trkpt>
      <trkpt lat="36.98708" lon="-2.4674">
        <ele>179.7263</ele>
        <time>2021-07-18T14:48:52Z</time>
      </trkpt>
      <trkpt lat="36.98616" lon="-2.46764">
        <ele>179.3355</ele>
        <time>2021-07-18T14:49:03Z</time>
      </trkpt>
      <trkpt lat="36.98527" lon="-2.46761">
        <ele>178.0275</ele>
        <time>2021-07-18T14:49:14Z</time>
      </trkpt>
      <trkpt lat="36.98346" lon="-2.46769">
        <ele>178.4667</ele>
        <time>2021-07-18T14:49:25Z</time>
      </trkpt>
      <trkpt lat="36.98257" lon="-2.46764">
        <ele>176.2444</ele>
        <time>2021-07-18T14:49:36Z</time>
      </trkpt>
      <trkpt lat="36.98173" lon="-2.46741">
        <ele>174.2175</ele>
        <time>2021-07-18T14:49:47Z</time>
      </trkpt>
      <trkpt lat="36.98066" lon="-2.46658">
        <ele>172.3771</ele>
        <time>2021-07-18T14:49:58Z</time>
      </trkpt>
      <trkpt lat="36.97975" lon="-2.46563">
        <ele>164.2164</ele>
        <time>2021-07-18T14:50:09Z</time>
      </trkpt>
      <trkpt lat="36.97862" lon="-2.4658">
        <ele>165.6031</ele>
        <time>2021-07-18T14:50:20Z</time>
      </trkpt>
      <trkpt lat="36.97767" lon="-2.46633">
        <ele>170.1634</ele>
        <time>2021-07-18T14:50:31Z</time>
      </trkpt>
      <trkpt lat="36.97616" lon="-2.46659">
        <ele>164.7481</ele>
        <time>2021-07-18T14:50:42Z</time>
      </trkpt>
      <trkpt lat="36.97493" lon="-2.46642">
        <ele>165.9457</ele>
        <time>2021-07-18T14:50:53Z</time>
      </trkpt>
      <trkpt lat="36.97352" lon="-2.46635">
        <ele>158.2057</ele>
        <time>2021-07-18T14:51:04Z</time>
      </trkpt>
      <trkpt lat="36.97196" lon="-2.46639">
        <ele>163.5657</ele>
        <time>2021-07-18T14:51:15Z</time>
      </trkpt>
      <trkpt lat="36.97056" lon="-2.46629">
        <ele>180.6648</ele>
        <time>2021-07-18T14:51:26Z</time>
      </trkpt>
      <trkpt lat="36.96886" lon="-2.46638">
        <ele>171.0938</ele>
        <time>2021-07-18T14:51:37Z</time>
      </trkpt>
      <trkpt lat="36.96737" lon="-2.46655">
        <ele>173.0907</ele>
        <time>2021-07-18T14:51:48Z</time>
      </trkpt>
      <trkpt lat="36.96605" lon="-2.46695">
        <ele>175.6382</ele>
        <time>2021-07-18T14:51:59Z</time>
      </trkpt>
      <trkpt lat="36.96475" lon="-2.46716">
        <ele>175.2609</ele>
        <time>2021-07-18T14:52:10Z</time>
      </trkpt>
      <trkpt lat="36.96441" lon="-2.46712">
        <ele>169.7814</ele>
        <time>2021-07-18T14:52:21Z</time>
      </trkpt>
      <trkpt lat="36.96434" lon="-2.4671">
        <ele>168.9099</ele>
        <time>2021-07-18T14:52:43Z</time>
      </trkpt>
      <trkpt lat="36.9637" lon="-2.46752">
        <ele>162.3749</ele>
        <time>2021-07-18T14:52:54Z</time>
      </trkpt>
      <trkpt lat="36.96246" lon="-2.46788">
        <ele>147.1463</ele>
        <time>2021-07-18T14:53:05Z</time>
      </trkpt>
      <trkpt lat="36.96146" lon="-2.46843">
        <ele>145.5371</ele>
        <time>2021-07-18T14:53:16Z</time>
      </trkpt>
      <trkpt lat="36.96011" lon="-2.4689">
        <ele>148.7408</ele>
        <time>2021-07-18T14:53:27Z</time>
      </trkpt>
      <trkpt lat="36.95876" lon="-2.46932">
        <ele>140.7443</ele>
        <time>2021-07-18T14:53:38Z</time>
      </trkpt>
      <trkpt lat="36.9577" lon="-2.46999">
        <ele>140.0344</ele>
        <time>2021-07-18T14:53:49Z</time>
      </trkpt>
      <trkpt lat="36.95657" lon="-2.47084">
        <ele>139.0623</ele>
        <time>2021-07-18T14:54:00Z</time>
      </trkpt>
      <trkpt lat="36.95536" lon="-2.4716">
        <ele>143.985</ele>
        <time>2021-07-18T14:54:11Z</time>
      </trkpt>
      <trkpt lat="36.954" lon="-2.47229">
        <ele>147.7023</ele>
        <time>2021-07-18T14:54:22Z</time>
      </trkpt>
      <trkpt lat="36.95249" lon="-2.47327">
        <ele>148.6233</ele>
        <time>2021-07-18T14:54:33Z</time>
      </trkpt>
      <trkpt lat="36.95205" lon="-2.47371">
        <ele>148.3366</ele>
        <time>2021-07-18T14:54:44Z</time>
      </trkpt>
      <trkpt lat="36.95074" lon="-2.47403">
        <ele>144.9439</ele>
        <time>2021-07-18T14:54:55Z</time>
      </trkpt>
      <trkpt lat="36.94984" lon="-2.4742">
        <ele>138.9819</ele>
        <time>2021-07-18T14:55:06Z</time>
      </trkpt>
      <trkpt lat="36.94843" lon="-2.47346">
        <ele>137.0213</ele>
        <time>2021-07-18T14:55:17Z</time>
      </trkpt>
      <trkpt lat="36.94714" lon="-2.47215">
        <ele>134.906</ele>
        <time>2021-07-18T14:55:28Z</time>
      </trkpt>
      <trkpt lat="36.94623" lon="-2.47108">
        <ele>133.6236</ele>
        <time>2021-07-18T14:55:39Z</time>
      </trkpt>
      <trkpt lat="36.94543" lon="-2.47042">
        <ele>133.2687</ele>
        <time>2021-07-18T14:55:50Z</time>
      </trkpt>
      <trkpt lat="36.94533" lon="-2.47034">
        <ele>135.3767</ele>
        <time>2021-07-18T14:56:27Z</time>
      </trkpt>
      <trkpt lat="36.94395" lon="-2.4689">
        <ele>132.9983</ele>
        <time>2021-07-18T14:56:38Z</time>
      </trkpt>
      <trkpt lat="36.94301" lon="-2.46818">
        <ele>132.0415</ele>
        <time>2021-07-18T14:56:49Z</time>
      </trkpt>
      <trkpt lat="36.94208" lon="-2.46674">
        <ele>129.5481</ele>
        <time>2021-07-18T14:57:00Z</time>
      </trkpt>
      <trkpt lat="36.94075" lon="-2.46492">
        <ele>128.949</ele>
        <time>2021-07-18T14:57:11Z</time>
      </trkpt>
      <trkpt lat="36.93969" lon="-2.46355">
        <ele>125.7936</ele>
        <time>2021-07-18T14:57:22Z</time>
      </trkpt>
      <trkpt lat="36.93927" lon="-2.46262">
        <ele>124.7211</ele>
        <time>2021-07-18T14:57:33Z</time>
      </trkpt>
      <trkpt lat="36.93894" lon="-2.46176">
        <ele>124.0246</ele>
        <time>2021-07-18T14:57:44Z</time>
      </trkpt>
      <trkpt lat="36.93854" lon="-2.46135">
        <ele>124.7038</ele>
        <time>2021-07-18T14:57:55Z</time>
      </trkpt>
      <trkpt lat="36.93816" lon="-2.46079">
        <ele>123.0559</ele>
        <time>2021-07-18T14:58:06Z</time>
      </trkpt>
      <trkpt lat="36.93787" lon="-2.4605">
        <ele>124.3314</ele>
        <time>2021-07-18T14:58:17Z</time>
      </trkpt>
      <trkpt lat="36.93774" lon="-2.46042">
        <ele>127.1404</ele>
        <time>2021-07-18T14:58:28Z</time>
      </trkpt>
      <trkpt lat="36.93739" lon="-2.46023">
        <ele>125.5153</ele>
        <time>2021-07-18T14:58:39Z</time>
      </trkpt>
      <trkpt lat="36.93723" lon="-2.45968">
        <ele>122.7507</ele>
        <time>2021-07-18T14:58:50Z</time>
      </trkpt>
      <trkpt lat="36.93719" lon="-2.45939">
        <ele>124.212</ele>
        <time>2021-07-18T14:59:01Z</time>
      </trkpt>
      <trkpt lat="36.93724" lon="-2.4594">
        <ele>121.9375</ele>
        <time>2021-07-18T14:59:17Z</time>
      </trkpt>
      <trkpt lat="36.93731" lon="-2.45925">
        <ele>122.0986</ele>
        <time>2021-07-18T14:59:28Z</time>
      </trkpt>
      <trkpt lat="36.93726" lon="-2.45924">
        <ele>123.9659</ele>
        <time>2021-07-18T14:59:45Z</time>
      </trkpt>
      <trkpt lat="36.9372" lon="-2.45919">
        <ele>125.0489</ele>
        <time>2021-07-18T15:00:00Z</time>
      </trkpt>
      <trkpt lat="36.93665" lon="-2.45818">
        <ele>121.04</ele>
        <time>2021-07-18T15:00:11Z</time>
      </trkpt>
      <trkpt lat="36.93611" lon="-2.45717">
        <ele>118.6062</ele>
        <time>2021-07-18T15:00:22Z</time>
      </trkpt>
      <trkpt lat="36.93548" lon="-2.45591">
        <ele>118.9782</ele>
        <time>2021-07-18T15:00:33Z</time>
      </trkpt>
      <trkpt lat="36.93477" lon="-2.45436">
        <ele>117.4528</ele>
        <time>2021-07-18T15:00:44Z</time>
      </trkpt>
      <trkpt lat="36.93415" lon="-2.45284">
        <ele>114.5509</ele>
        <time>2021-07-18T15:00:55Z</time>
      </trkpt>
      <trkpt lat="36.93347" lon="-2.45204">
        <ele>114.1713</ele>
        <time>2021-07-18T15:01:06Z</time>
      </trkpt>
      <trkpt lat="36.93284" lon="-2.45141">
        <ele>114.2329</ele>
        <time>2021-07-18T15:01:17Z</time>
      </trkpt>
      <trkpt lat="36.93226" lon="-2.45081">
        <ele>113.4148</ele>
        <time>2021-07-18T15:01:28Z</time>
      </trkpt>
      <trkpt lat="36.93154" lon="-2.45026">
        <ele>111.6686</ele>
        <time>2021-07-18T15:01:39Z</time>
      </trkpt>
      <trkpt lat="36.93088" lon="-2.44998">
        <ele>112.7507</ele>
        <time>2021-07-18T15:01:50Z</time>
      </trkpt>
      <trkpt lat="36.93019" lon="-2.44973">
        <ele>110.7507</ele>
        <time>2021-07-18T15:02:01Z</time>
      </trkpt>
      <trkpt lat="36.92908" lon="-2.4494">
        <ele>109.4905</ele>
        <time>2021-07-18T15:02:12Z</time>
      </trkpt>
      <trkpt lat="36.92793" lon="-2.44909">
        <ele>105.6034</ele>
        <time>2021-07-18T15:02:23Z</time>
      </trkpt>
      <trkpt lat="36.92661" lon="-2.44883">
        <ele>104.7366</ele>
        <time>2021-07-18T15:02:34Z</time>
      </trkpt>
      <trkpt lat="36.9255" lon="-2.44883">
        <ele>105.5599</ele>
        <time>2021-07-18T15:02:45Z</time>
      </trkpt>
      <trkpt lat="36.92465" lon="-2.4486">
        <ele>105.8499</ele>
        <time>2021-07-18T15:02:56Z</time>
      </trkpt>
      <trkpt lat="36.92352" lon="-2.4482">
        <ele>103.2964</ele>
        <time>2021-07-18T15:03:07Z</time>
      </trkpt>
      <trkpt lat="36.92228" lon="-2.4476">
        <ele>101.953</ele>
        <time>2021-07-18T15:03:18Z</time>
      </trkpt>
      <trkpt lat="36.92088" lon="-2.44711">
        <ele>100.4365</ele>
        <time>2021-07-18T15:03:29Z</time>
      </trkpt>
      <trkpt lat="36.91985" lon="-2.44678">
        <ele>99.07946</ele>
        <time>2021-07-18T15:03:40Z</time>
      </trkpt>
      <trkpt lat="36.919" lon="-2.44662">
        <ele>98.62517</ele>
        <time>2021-07-18T15:03:51Z</time>
      </trkpt>
      <trkpt lat="36.91791" lon="-2.44642">
        <ele>96.3555</ele>
        <time>2021-07-18T15:04:02Z</time>
      </trkpt>
      <trkpt lat="36.91694" lon="-2.44653">
        <ele>95.13171</ele>
        <time>2021-07-18T15:04:13Z</time>
      </trkpt>
      <trkpt lat="36.91601" lon="-2.44653">
        <ele>96.48808</ele>
        <time>2021-07-18T15:04:24Z</time>
      </trkpt>
      <trkpt lat="36.91596" lon="-2.4465">
        <ele>95.50369</ele>
        <time>2021-07-18T15:04:36Z</time>
      </trkpt>
      <trkpt lat="36.91476" lon="-2.4466">
        <ele>95.01606</ele>
        <time>2021-07-18T15:04:47Z</time>
      </trkpt>
      <trkpt lat="36.91332" lon="-2.44655">
        <ele>92.76699</ele>
        <time>2021-07-18T15:04:58Z</time>
      </trkpt>
      <trkpt lat="36.91214" lon="-2.44688">
        <ele>89.59701</ele>
        <time>2021-07-18T15:05:09Z</time>
      </trkpt>
      <trkpt lat="36.91065" lon="-2.44652">
        <ele>90.01548</ele>
        <time>2021-07-18T15:05:20Z</time>
      </trkpt>
      <trkpt lat="36.90946" lon="-2.4461">
        <ele>89.21092</ele>
        <time>2021-07-18T15:05:32Z</time>
      </trkpt>
      <trkpt lat="36.90819" lon="-2.44601">
        <ele>85.10041</ele>
        <time>2021-07-18T15:05:43Z</time>
      </trkpt>
      <trkpt lat="36.90683" lon="-2.44564">
        <ele>85.47325</ele>
        <time>2021-07-18T15:05:54Z</time>
      </trkpt>
      <trkpt lat="36.9056" lon="-2.44493">
        <ele>85.30513</ele>
        <time>2021-07-18T15:06:05Z</time>
      </trkpt>
      <trkpt lat="36.90427" lon="-2.44407">
        <ele>81.69898</ele>
        <time>2021-07-18T15:06:16Z</time>
      </trkpt>
      <trkpt lat="36.903" lon="-2.44352">
        <ele>76.47918</ele>
        <time>2021-07-18T15:06:27Z</time>
      </trkpt>
      <trkpt lat="36.90203" lon="-2.44273">
        <ele>77.50161</ele>
        <time>2021-07-18T15:06:38Z</time>
      </trkpt>
      <trkpt lat="36.90125" lon="-2.44141">
        <ele>80.32144</ele>
        <time>2021-07-18T15:06:49Z</time>
      </trkpt>
      <trkpt lat="36.90054" lon="-2.44008">
        <ele>77.72227</ele>
        <time>2021-07-18T15:07:00Z</time>
      </trkpt>
      <trkpt lat="36.89941" lon="-2.43859">
        <ele>76.32802</ele>
        <time>2021-07-18T15:07:12Z</time>
      </trkpt>
      <trkpt lat="36.89869" lon="-2.43795">
        <ele>76.62926</ele>
        <time>2021-07-18T15:07:23Z</time>
      </trkpt>
      <trkpt lat="36.89752" lon="-2.43753">
        <ele>75.2752</ele>
        <time>2021-07-18T15:07:34Z</time>
      </trkpt>
      <trkpt lat="36.89619" lon="-2.43691">
        <ele>74.08695</ele>
        <time>2021-07-18T15:07:45Z</time>
      </trkpt>
      <trkpt lat="36.89487" lon="-2.43613">
        <ele>73.38962</ele>
        <time>2021-07-18T15:07:56Z</time>
      </trkpt>
      <trkpt lat="36.89373" lon="-2.43544">
        <ele>73.14086</ele>
        <time>2021-07-18T15:08:07Z</time>
      </trkpt>
      <trkpt lat="36.89253" lon="-2.43466">
        <ele>70.88667</ele>
        <time>2021-07-18T15:08:18Z</time>
      </trkpt>
      <trkpt lat="36.89112" lon="-2.43409">
        <ele>68.66176</ele>
        <time>2021-07-18T15:08:29Z</time>
      </trkpt>
      <trkpt lat="36.88978" lon="-2.43336">
        <ele>71.82669</ele>
        <time>2021-07-18T15:08:40Z</time>
      </trkpt>
      <trkpt lat="36.88863" lon="-2.43251">
        <ele>67.3571</ele>
        <time>2021-07-18T15:08:51Z</time>
      </trkpt>
      <trkpt lat="36.88756" lon="-2.43204">
        <ele>66.29612</ele>
        <time>2021-07-18T15:09:02Z</time>
      </trkpt>
      <trkpt lat="36.88636" lon="-2.43148">
        <ele>65.33565</ele>
        <time>2021-07-18T15:09:13Z</time>
      </trkpt>
      <trkpt lat="36.88561" lon="-2.43101">
        <ele>65.75892</ele>
        <time>2021-07-18T15:09:24Z</time>
      </trkpt>
      <trkpt lat="36.8857" lon="-2.43048">
        <ele>69.23305</ele>
        <time>2021-07-18T15:09:35Z</time>
      </trkpt>
      <trkpt lat="36.88569" lon="-2.43043">
        <ele>69.60297</ele>
        <time>2021-07-18T15:10:03Z</time>
      </trkpt>
      <trkpt lat="36.88569" lon="-2.43045">
        <ele>67.28387</ele>
        <time>2021-07-18T15:11:03Z</time>
      </trkpt>
      <trkpt lat="36.88573" lon="-2.43034">
        <ele>67.54608</ele>
        <time>2021-07-18T15:11:17Z</time>
      </trkpt>
      <trkpt lat="36.88614" lon="-2.42937">
        <ele>68.05039</ele>
        <time>2021-07-18T15:11:28Z</time>
      </trkpt>
      <trkpt lat="36.88648" lon="-2.42861">
        <ele>69.48085</ele>
        <time>2021-07-18T15:11:39Z</time>
      </trkpt>
      <trkpt lat="36.88666" lon="-2.42803">
        <ele>69.84368</ele>
        <time>2021-07-18T15:11:50Z</time>
      </trkpt>
      <trkpt lat="36.88651" lon="-2.42778">
        <ele>70.6775</ele>
        <time>2021-07-18T15:12:01Z</time>
      </trkpt>
      <trkpt lat="36.88589" lon="-2.42702">
        <ele>72.54075</ele>
        <time>2021-07-18T15:12:12Z</time>
      </trkpt>
      <trkpt lat="36.88451" lon="-2.42607">
        <ele>67.84936</ele>
        <time>2021-07-18T15:12:23Z</time>
      </trkpt>
      <trkpt lat="36.88314" lon="-2.42503">
        <ele>64.63513</ele>
        <time>2021-07-18T15:12:34Z</time>
      </trkpt>
      <trkpt lat="36.88196" lon="-2.42464">
        <ele>63.98263</ele>
        <time>2021-07-18T15:12:45Z</time>
      </trkpt>
      <trkpt lat="36.88136" lon="-2.42651">
        <ele>65.49278</ele>
        <time>2021-07-18T15:12:56Z</time>
      </trkpt>
      <trkpt lat="36.88081" lon="-2.42846">
        <ele>67.31931</ele>
        <time>2021-07-18T15:13:07Z</time>
      </trkpt>
      <trkpt lat="36.8803" lon="-2.4303">
        <ele>68.68785</ele>
        <time>2021-07-18T15:13:18Z</time>
      </trkpt>
      <trkpt lat="36.87958" lon="-2.43267">
        <ele>69.18617</ele>
        <time>2021-07-18T15:13:29Z</time>
      </trkpt>
      <trkpt lat="36.87867" lon="-2.43495">
        <ele>75.17915</ele>
        <time>2021-07-18T15:13:40Z</time>
      </trkpt>
      <trkpt lat="36.87746" lon="-2.4368">
        <ele>72.00939</ele>
        <time>2021-07-18T15:13:51Z</time>
      </trkpt>
      <trkpt lat="36.87588" lon="-2.43836">
        <ele>67.93354</ele>
        <time>2021-07-18T15:14:02Z</time>
      </trkpt>
      <trkpt lat="36.87414" lon="-2.43957">
        <ele>72.72039</ele>
        <time>2021-07-18T15:14:13Z</time>
      </trkpt>
      <trkpt lat="36.87312" lon="-2.44068">
        <ele>74.10747</ele>
        <time>2021-07-18T15:14:24Z</time>
      </trkpt>
      <trkpt lat="36.87257" lon="-2.4423">
        <ele>76.98488</ele>
        <time>2021-07-18T15:14:35Z</time>
      </trkpt>
      <trkpt lat="36.87225" lon="-2.44387">
        <ele>83.90338</ele>
        <time>2021-07-18T15:14:46Z</time>
      </trkpt>
      <trkpt lat="36.87168" lon="-2.44475">
        <ele>85.59793</ele>
        <time>2021-07-18T15:14:57Z</time>
      </trkpt>
      <trkpt lat="36.87002" lon="-2.44539">
        <ele>87.48352</ele>
        <time>2021-07-18T15:15:08Z</time>
      </trkpt>
      <trkpt lat="36.86832" lon="-2.44593">
        <ele>96.29068</ele>
        <time>2021-07-18T15:15:19Z</time>
      </trkpt>
      <trkpt lat="36.86672" lon="-2.4469">
        <ele>105.1705</ele>
        <time>2021-07-18T15:15:30Z</time>
      </trkpt>
      <trkpt lat="36.86539" lon="-2.44829">
        <ele>113.0586</ele>
        <time>2021-07-18T15:15:41Z</time>
      </trkpt>
      <trkpt lat="36.86487" lon="-2.44892">
        <ele>111.849</ele>
        <time>2021-07-18T15:15:52Z</time>
      </trkpt>
      <trkpt lat="36.86354" lon="-2.44879">
        <ele>112.1162</ele>
        <time>2021-07-18T15:16:03Z</time>
      </trkpt>
      <trkpt lat="36.86212" lon="-2.44885">
        <ele>106.2625</ele>
        <time>2021-07-18T15:16:14Z</time>
      </trkpt>
      <trkpt lat="36.86118" lon="-2.44864">
        <ele>102.0052</ele>
        <time>2021-07-18T15:16:25Z</time>
      </trkpt>
      <trkpt lat="36.86012" lon="-2.44755">
        <ele>96.09038</ele>
        <time>2021-07-18T15:16:36Z</time>
      </trkpt>
      <trkpt lat="36.85934" lon="-2.44694">
        <ele>94.73092</ele>
        <time>2021-07-18T15:16:47Z</time>
      </trkpt>
      <trkpt lat="36.8583" lon="-2.4474">
        <ele>88.26689</ele>
        <time>2021-07-18T15:16:58Z</time>
      </trkpt>
      <trkpt lat="36.85701" lon="-2.44872">
        <ele>83.49024</ele>
        <time>2021-07-18T15:17:09Z</time>
      </trkpt>
      <trkpt lat="36.85605" lon="-2.44954">
        <ele>92.06028</ele>
        <time>2021-07-18T15:17:20Z</time>
      </trkpt>
      <trkpt lat="36.85599" lon="-2.44909">
        <ele>89.73569</ele>
        <time>2021-07-18T15:17:31Z</time>
      </trkpt>
      <trkpt lat="36.85732" lon="-2.44818">
        <ele>96.77292</ele>
        <time>2021-07-18T15:17:42Z</time>
      </trkpt>
      <trkpt lat="36.85776" lon="-2.44744">
        <ele>91.81122</ele>
        <time>2021-07-18T15:17:53Z</time>
      </trkpt>
      <trkpt lat="36.85776" lon="-2.44736">
        <ele>88.7606</ele>
        <time>2021-07-18T15:18:04Z</time>
      </trkpt>
      <trkpt lat="36.85777" lon="-2.44741">
        <ele>91.95922</ele>
        <time>2021-07-18T15:18:16Z</time>
      </trkpt>
      <trkpt lat="36.8577" lon="-2.44753">
        <ele>94.80339</ele>
        <time>2021-07-18T15:18:27Z</time>
      </trkpt>
      <trkpt lat="36.85767" lon="-2.44772">
        <ele>99.92401</ele>
        <time>2021-07-18T15:18:38Z</time>
      </trkpt>
      <trkpt lat="36.85766" lon="-2.44776">
        <ele>99.26569</ele>
        <time>2021-07-18T15:19:01Z</time>
      </trkpt>
      <trkpt lat="36.85766" lon="-2.44774">
        <ele>99.26539</ele>
        <time>2021-07-18T15:20:01Z</time>
      </trkpt>
      <trkpt lat="36.85768" lon="-2.44765">
        <ele>100.3105</ele>
        <time>2021-07-18T15:20:48Z</time>
      </trkpt>
      <trkpt lat="36.8577" lon="-2.44759">
        <ele>99.63995</ele>
        <time>2021-07-18T15:20:59Z</time>
      </trkpt>
      <trkpt lat="36.8578" lon="-2.44759">
        <ele>102.5159</ele>
        <time>2021-07-18T15:21:10Z</time>
      </trkpt>
      <trkpt lat="36.85779" lon="-2.44746">
        <ele>103.4335</ele>
        <time>2021-07-18T15:21:21Z</time>
      </trkpt>
      <trkpt lat="36.85778" lon="-2.44724">
        <ele>82.30311</ele>
        <time>2021-07-18T15:21:32Z</time>
      </trkpt>
      <trkpt lat="36.85775" lon="-2.44713">
        <ele>81.12214</ele>
        <time>2021-07-18T15:21:43Z</time>
      </trkpt>
      <trkpt lat="36.85779" lon="-2.44714">
        <ele>81.16207</ele>
        <time>2021-07-18T15:21:55Z</time>
      </trkpt>
      <trkpt lat="36.85784" lon="-2.44715">
        <ele>79.8536</ele>
        <time>2021-07-18T15:22:06Z</time>
      </trkpt>
      <trkpt lat="36.85787" lon="-2.4472">
        <ele>81.44144</ele>
        <time>2021-07-18T15:22:20Z</time>
      </trkpt>
      <trkpt lat="36.85789" lon="-2.44726">
        <ele>80.25099</ele>
        <time>2021-07-18T15:22:31Z</time>
      </trkpt>
      <trkpt lat="36.8579" lon="-2.44721">
        <ele>79.68217</ele>
        <time>2021-07-18T15:22:42Z</time>
      </trkpt>
      <trkpt lat="36.85782" lon="-2.44714">
        <ele>80.81909</ele>
        <time>2021-07-18T15:22:53Z</time>
      </trkpt>
      <trkpt lat="36.8578" lon="-2.44719">
        <ele>80.97812</ele>
        <time>2021-07-18T15:23:04Z</time>
      </trkpt>
      <trkpt lat="36.85783" lon="-2.44711">
        <ele>81.73703</ele>
        <time>2021-07-18T15:23:15Z</time>
      </trkpt>
      <trkpt lat="36.85783" lon="-2.44705">
        <ele>82.56186</ele>
        <time>2021-07-18T15:23:26Z</time>
      </trkpt>
      <trkpt lat="36.85781" lon="-2.4471">
        <ele>82.63482</ele>
        <time>2021-07-18T15:23:37Z</time>
      </trkpt>
      <trkpt lat="36.85779" lon="-2.44714">
        <ele>81.56691</ele>
        <time>2021-07-18T15:23:48Z</time>
      </trkpt>
      <trkpt lat="36.85784" lon="-2.44711">
        <ele>81.95207</ele>
        <time>2021-07-18T15:23:59Z</time>
      </trkpt>
      <trkpt lat="36.85782" lon="-2.44721">
        <ele>83.04482</ele>
        <time>2021-07-18T15:24:19Z</time>
      </trkpt>
      <trkpt lat="36.85781" lon="-2.44732">
        <ele>79.49518</ele>
        <time>2021-07-18T15:24:30Z</time>
      </trkpt>
      <trkpt lat="36.85783" lon="-2.44744">
        <ele>77.93331</ele>
        <time>2021-07-18T15:24:41Z</time>
      </trkpt>
      <trkpt lat="36.85787" lon="-2.44736">
        <ele>78.53243</ele>
        <time>2021-07-18T15:24:52Z</time>
      </trkpt>
      <trkpt lat="36.85784" lon="-2.44734">
        <ele>78.71854</ele>
        <time>2021-07-18T15:25:03Z</time>
      </trkpt>
      <trkpt lat="36.85781" lon="-2.44727">
        <ele>78.9217</ele>
        <time>2021-07-18T15:25:14Z</time>
      </trkpt>
      <trkpt lat="36.85784" lon="-2.44729">
        <ele>79.11043</ele>
        <time>2021-07-18T15:25:25Z</time>
      </trkpt>
      <trkpt lat="36.8579" lon="-2.44736">
        <ele>78.58013</ele>
        <time>2021-07-18T15:25:36Z</time>
      </trkpt>
      <trkpt lat="36.8579" lon="-2.44731">
        <ele>78.22802</ele>
        <time>2021-07-18T15:25:50Z</time>
      </trkpt>
      <trkpt lat="36.85784" lon="-2.44726">
        <ele>80.24946</ele>
        <time>2021-07-18T15:26:01Z</time>
      </trkpt>
      <trkpt lat="36.85781" lon="-2.44729">
        <ele>80.06194</ele>
        <time>2021-07-18T15:26:16Z</time>
      </trkpt>
      <trkpt lat="36.85777" lon="-2.4473">
        <ele>78.81369</ele>
        <time>2021-07-18T15:26:58Z</time>
      </trkpt>
      <trkpt lat="36.85778" lon="-2.44724">
        <ele>79.4413</ele>
        <time>2021-07-18T15:27:42Z</time>
      </trkpt>
      <trkpt lat="36.85815" lon="-2.44717">
        <ele>81.16517</ele>
        <time>2021-07-18T15:27:54Z</time>
      </trkpt>
      <trkpt lat="36.85892" lon="-2.4467">
        <ele>87.58883</ele>
        <time>2021-07-18T15:28:05Z</time>
      </trkpt>
      <trkpt lat="36.85942" lon="-2.44677">
        <ele>87.46817</ele>
        <time>2021-07-18T15:28:16Z</time>
      </trkpt>
      <trkpt lat="36.85844" lon="-2.44735">
        <ele>80.48501</ele>
        <time>2021-07-18T15:28:27Z</time>
      </trkpt>
      <trkpt lat="36.85721" lon="-2.44858">
        <ele>74.36243</ele>
        <time>2021-07-18T15:28:38Z</time>
      </trkpt>
      <trkpt lat="36.8562" lon="-2.44935">
        <ele>70.57582</ele>
        <time>2021-07-18T15:28:49Z</time>
      </trkpt>
      <trkpt lat="36.85567" lon="-2.44946">
        <ele>66.83996</ele>
        <time>2021-07-18T15:29:00Z</time>
      </trkpt>
      <trkpt lat="36.8546" lon="-2.45018">
        <ele>63.06019</ele>
        <time>2021-07-18T15:29:11Z</time>
      </trkpt>
      <trkpt lat="36.85333" lon="-2.45155">
        <ele>57.45333</ele>
        <time>2021-07-18T15:29:22Z</time>
      </trkpt>
      <trkpt lat="36.85216" lon="-2.45257">
        <ele>53.37794</ele>
        <time>2021-07-18T15:29:33Z</time>
      </trkpt>
      <trkpt lat="36.85121" lon="-2.4535">
        <ele>49.86454</ele>
        <time>2021-07-18T15:29:44Z</time>
      </trkpt>
      <trkpt lat="36.8503" lon="-2.45451">
        <ele>48.45303</ele>
        <time>2021-07-18T15:29:55Z</time>
      </trkpt>
      <trkpt lat="36.84953" lon="-2.45535">
        <ele>45.98622</ele>
        <time>2021-07-18T15:30:06Z</time>
      </trkpt>
      <trkpt lat="36.84867" lon="-2.45631">
        <ele>44.24052</ele>
        <time>2021-07-18T15:30:17Z</time>
      </trkpt>
      <trkpt lat="36.84815" lon="-2.45687">
        <ele>40.54297</ele>
        <time>2021-07-18T15:30:28Z</time>
      </trkpt>
      <trkpt lat="36.84812" lon="-2.45693">
        <ele>42.01303</ele>
        <time>2021-07-18T15:30:41Z</time>
      </trkpt>
      <trkpt lat="36.84765" lon="-2.45743">
        <ele>41.76007</ele>
        <time>2021-07-18T15:30:52Z</time>
      </trkpt>
      <trkpt lat="36.84711" lon="-2.45806">
        <ele>41.19586</ele>
        <time>2021-07-18T15:31:03Z</time>
      </trkpt>
      <trkpt lat="36.84668" lon="-2.4585">
        <ele>38.66087</ele>
        <time>2021-07-18T15:31:14Z</time>
      </trkpt>
      <trkpt lat="36.84645" lon="-2.45877">
        <ele>38.87238</ele>
        <time>2021-07-18T15:31:25Z</time>
      </trkpt>
      <trkpt lat="36.84637" lon="-2.45886">
        <ele>39.19452</ele>
        <time>2021-07-18T15:31:36Z</time>
      </trkpt>
      <trkpt lat="36.84597" lon="-2.45922">
        <ele>36.58926</ele>
        <time>2021-07-18T15:31:47Z</time>
      </trkpt>
      <trkpt lat="36.84553" lon="-2.45974">
        <ele>35.49984</ele>
        <time>2021-07-18T15:31:58Z</time>
      </trkpt>
      <trkpt lat="36.8452" lon="-2.4601">
        <ele>35.68432</ele>
        <time>2021-07-18T15:32:09Z</time>
      </trkpt>
      <trkpt lat="36.84459" lon="-2.46075">
        <ele>33.11501</ele>
        <time>2021-07-18T15:32:20Z</time>
      </trkpt>
      <trkpt lat="36.84396" lon="-2.46131">
        <ele>31.00083</ele>
        <time>2021-07-18T15:32:31Z</time>
      </trkpt>
      <trkpt lat="36.84326" lon="-2.46202">
        <ele>30.33533</ele>
        <time>2021-07-18T15:32:42Z</time>
      </trkpt>
      <trkpt lat="36.84262" lon="-2.46266">
        <ele>28.2202</ele>
        <time>2021-07-18T15:32:53Z</time>
      </trkpt>
      <trkpt lat="36.84218" lon="-2.46319">
        <ele>27.40213</ele>
        <time>2021-07-18T15:33:04Z</time>
      </trkpt>
      <trkpt lat="36.84194" lon="-2.46374">
        <ele>25.36931</ele>
        <time>2021-07-18T15:33:15Z</time>
      </trkpt>
      <trkpt lat="36.84188" lon="-2.46381">
        <ele>27.24693</ele>
        <time>2021-07-18T15:33:26Z</time>
      </trkpt>
      <trkpt lat="36.84186" lon="-2.46385">
        <ele>27.66515</ele>
        <time>2021-07-18T15:33:46Z</time>
      </trkpt>
      <trkpt lat="36.84184" lon="-2.46393">
        <ele>26.92213</ele>
        <time>2021-07-18T15:34:19Z</time>
      </trkpt>
      <trkpt lat="36.84182" lon="-2.46468">
        <ele>25.27124</ele>
        <time>2021-07-18T15:34:30Z</time>
      </trkpt>
      <trkpt lat="36.84213" lon="-2.46525">
        <ele>26.49893</ele>
        <time>2021-07-18T15:34:41Z</time>
      </trkpt>
      <trkpt lat="36.84241" lon="-2.46612">
        <ele>29.2602</ele>
        <time>2021-07-18T15:34:52Z</time>
      </trkpt>
      <trkpt lat="36.84218" lon="-2.46666">
        <ele>34.5014</ele>
        <time>2021-07-18T15:35:03Z</time>
      </trkpt>
      <trkpt lat="36.8411" lon="-2.46715">
        <ele>32.73341</ele>
        <time>2021-07-18T15:35:14Z</time>
      </trkpt>
      <trkpt lat="36.84062" lon="-2.46797">
        <ele>28.24862</ele>
        <time>2021-07-18T15:35:25Z</time>
      </trkpt>
      <trkpt lat="36.8401" lon="-2.46793">
        <ele>24.66394</ele>
        <time>2021-07-18T15:35:36Z</time>
      </trkpt>
      <trkpt lat="36.83966" lon="-2.46752">
        <ele>20.03297</ele>
        <time>2021-07-18T15:35:47Z</time>
      </trkpt>
      <trkpt lat="36.83965" lon="-2.46739">
        <ele>20.17973</ele>
        <time>2021-07-18T15:35:58Z</time>
      </trkpt>
      <trkpt lat="36.83949" lon="-2.46728">
        <ele>19.50172</ele>
        <time>2021-07-18T15:36:09Z</time>
      </trkpt>
      <trkpt lat="36.83878" lon="-2.46732">
        <ele>15.68971</ele>
        <time>2021-07-18T15:36:20Z</time>
      </trkpt>
      <trkpt lat="36.83858" lon="-2.4674">
        <ele>16.57373</ele>
        <time>2021-07-18T15:36:31Z</time>
      </trkpt>
      <trkpt lat="36.83855" lon="-2.46743">
        <ele>15.66451</ele>
        <time>2021-07-18T15:36:42Z</time>
      </trkpt>
      <trkpt lat="36.83857" lon="-2.46754">
        <ele>16.12787</ele>
        <time>2021-07-18T15:37:31Z</time>
      </trkpt>
      <trkpt lat="36.83862" lon="-2.46763">
        <ele>16.01063</ele>
        <time>2021-07-18T15:37:42Z</time>
      </trkpt>
      <trkpt lat="36.83801" lon="-2.46794">
        <ele>13.44331</ele>
        <time>2021-07-18T15:37:53Z</time>
      </trkpt>
      <trkpt lat="36.83765" lon="-2.46795">
        <ele>12.72914</ele>
        <time>2021-07-18T15:38:04Z</time>
      </trkpt>
      <trkpt lat="36.83734" lon="-2.46826">
        <ele>11.6793</ele>
        <time>2021-07-18T15:38:15Z</time>
      </trkpt>
      <trkpt lat="36.83745" lon="-2.46906">
        <ele>11.49295</ele>
        <time>2021-07-18T15:38:26Z</time>
      </trkpt>
      <trkpt lat="36.83766" lon="-2.46986">
        <ele>8.363293</ele>
        <time>2021-07-18T15:38:37Z</time>
      </trkpt>
      <trkpt lat="36.83713" lon="-2.4702">
        <ele>6.114087</ele>
        <time>2021-07-18T15:38:48Z</time>
      </trkpt>
      <trkpt lat="36.83678" lon="-2.46967">
        <ele>7.251987</ele>
        <time>2021-07-18T15:38:59Z</time>
      </trkpt>
      <trkpt lat="36.83641" lon="-2.46839">
        <ele>6.107799</ele>
        <time>2021-07-18T15:39:10Z</time>
      </trkpt>
      <trkpt lat="36.83602" lon="-2.46716">
        <ele>7.783342</ele>
        <time>2021-07-18T15:39:21Z</time>
      </trkpt>
      <trkpt lat="36.83595" lon="-2.46686">
        <ele>8.762929</ele>
        <time>2021-07-18T15:39:32Z</time>
      </trkpt>
      <trkpt lat="36.83647" lon="-2.46646">
        <ele>11.11129</ele>
        <time>2021-07-18T15:39:43Z</time>
      </trkpt>
      <trkpt lat="36.83718" lon="-2.46595">
        <ele>12.2451</ele>
        <time>2021-07-18T15:39:54Z</time>
      </trkpt>
      <trkpt lat="36.83775" lon="-2.4657">
        <ele>14.20166</ele>
        <time>2021-07-18T15:40:05Z</time>
      </trkpt>
      <trkpt lat="36.83824" lon="-2.46554">
        <ele>15.35183</ele>
        <time>2021-07-18T15:40:16Z</time>
      </trkpt>
      <trkpt lat="36.83885" lon="-2.46557">
        <ele>17.24492</ele>
        <time>2021-07-18T15:40:27Z</time>
      </trkpt>
      <trkpt lat="36.83933" lon="-2.46544">
        <ele>22.21608</ele>
        <time>2021-07-18T15:40:38Z</time>
      </trkpt>
      <trkpt lat="36.83984" lon="-2.46532">
        <ele>21.52063</ele>
        <time>2021-07-18T15:40:49Z</time>
      </trkpt>
      <trkpt lat="36.84055" lon="-2.46518">
        <ele>22.34841</ele>
        <time>2021-07-18T15:41:00Z</time>
      </trkpt>
      <trkpt lat="36.84095" lon="-2.46517">
        <ele>23.00695</ele>
        <time>2021-07-18T15:41:11Z</time>
      </trkpt>
      <trkpt lat="36.84146" lon="-2.46587">
        <ele>24.82725</ele>
        <time>2021-07-18T15:41:22Z</time>
      </trkpt>
      <trkpt lat="36.84156" lon="-2.46606">
        <ele>24.94026</ele>
        <time>2021-07-18T15:41:33Z</time>
      </trkpt>
      <trkpt lat="36.84162" lon="-2.46618">
        <ele>26.93744</ele>
        <time>2021-07-18T15:41:44Z</time>
      </trkpt>
      <trkpt lat="36.84164" lon="-2.46623">
        <ele>27.02588</ele>
        <time>2021-07-18T15:41:55Z</time>
      </trkpt>
      <trkpt lat="36.84164" lon="-2.46622">
        <ele>27.4544</ele>
        <time>2021-07-18T15:42:55Z</time>
      </trkpt>
      <trkpt lat="36.84156" lon="-2.46631">
        <ele>27.62052</ele>
        <time>2021-07-18T15:43:06Z</time>
      </trkpt>
      <trkpt lat="36.84159" lon="-2.46628">
        <ele>26.31437</ele>
        <time>2021-07-18T15:43:33Z</time>
      </trkpt>
      <trkpt lat="36.84162" lon="-2.46625">
        <ele>27.21391</ele>
        <time>2021-07-18T15:43:52Z</time>
      </trkpt>
      <trkpt lat="36.84166" lon="-2.46625">
        <ele>27.60131</ele>
        <time>2021-07-18T15:44:05Z</time>
      </trkpt>
      <trkpt lat="36.84163" lon="-2.46627">
        <ele>27.75573</ele>
        <time>2021-07-18T15:44:20Z</time>
      </trkpt>
      <trkpt lat="36.84159" lon="-2.46631">
        <ele>27.59131</ele>
        <time>2021-07-18T15:44:31Z</time>
      </trkpt>
      <trkpt lat="36.84166" lon="-2.46626">
        <ele>27.75234</ele>
        <time>2021-07-18T15:44:42Z</time>
      </trkpt>
      <trkpt lat="36.84163" lon="-2.46622">
        <ele>23.5125</ele>
        <time>2021-07-18T15:45:06Z</time>
      </trkpt>
      <trkpt lat="36.84166" lon="-2.46626">
        <ele>27.36163</ele>
        <time>2021-07-18T15:45:17Z</time>
      </trkpt>
      <trkpt lat="36.84163" lon="-2.46622">
        <ele>27.78331</ele>
        <time>2021-07-18T15:46:08Z</time>
      </trkpt>
      <trkpt lat="36.84162" lon="-2.46619">
        <ele>27.33575</ele>
        <time>2021-07-18T15:47:07Z</time>
      </trkpt>
      <trkpt lat="36.84164" lon="-2.46622">
        <ele>27.36082</ele>
        <time>2021-07-18T15:47:22Z</time>
      </trkpt>
    </trkseg>
  </trk>
</gpx>